[[{"header":{"parameterUnit":"m.s-1","parameterCategory":1,"la1":31.0,"la2":29.5877,"lo1":-88.7671,"lo2":-86.6584,"dy":0.0162,"dx":0.0185,"nx":115,"ny":88,"refTime":"2023-08-04T18:00:00:Z","depth":0,"parameterNumber":2,"parameterNumberName":"U-component_of_WINDS"},"data":[0.0,0.0,0.0,0.0,0.0,0.0,0.0,0.0,0.0,0.0,0.0,0.0,0.0,0.0,0.0,0.0,0.0,0.0,0.0,0.0,0.0,0.0,0.0,0.0,0.0,0.0,0.0,0.0,0.0,0.0,0.0,0.0,0.0,0.0,0.0,0.0,0.0,0.0,0.0,0.0,0.0,0.0,0.0,0.0,0.0,0.0,0.0,0.0,0.0,0.0,0.0,0.0,0.0,0.0,0.0,0.0,0.0,0.0,0.0,0.0,0.0,0.0,0.0,0.0,0.0,0.0,0.0,0.0,0.0,0.0,0.0,0.0,0.0,0.0,0.0,0.0,0.0,0.0,0.0,0.0,0.0,0.0,0.0,0.0,0.0,0.0,0.0,0.0,0.0,0.0,0.0,0.0,0.0,0.0,0.0,0.0,0.0,0.0,0.0,0.0,0.0,0.0,0.0,0.0,0.0,0.0,0.0,0.0,0.0,0.0,0.0,0.0,0.0,0.0,0.0,0.0,0.0,0.0,0.0,0.0,0.0,0.0,0.0,0.0,0.0,0.0,0.0,0.0,0.0,0.0,0.0,0.0,0.0,0.0,0.0,0.0,0.0,0.0,0.0,0.0,0.0,0.0,0.0,0.0,0.0,0.0,0.0,0.0,0.0,0.0,0.0,0.0,0.0,0.0,0.0,0.0,0.0,0.0,0.0,0.0,0.0,0.0,0.0,0.0,0.0,0.0,0.0,0.0,0.0,0.0,0.0,0.0,0.0,0.0,0.0,0.0,0.0,0.0,0.0,0.0,0.0,0.0,0.0,0.0,0.0,0.0,0.0,0.0,0.0,0.0,0.0,0.0,0.0,0.0,0.0,0.0,0.0,0.0,0.0,0.0,0.0,0.0,0.0,0.0,0.0,0.0,0.0,0.0,0.0,0.0,0.0,0.0,0.0,0.0,0.0,0.0,0.0,0.0,0.0,0.0,0.0,0.0,0.0,0.0,0.0,0.0,0.0,0.0,0.0,0.0,0.0,0.0,0.0,0.0,0.0,0.0,0.0,0.0,0.0,0.0,0.0,0.0,0.0,0.0,0.0,0.0,0.0,0.0,0.0,0.0,0.0,0.0,0.0,0.0,0.0,0.0,0.0,0.0,0.0,0.0,0.0,0.0,0.0,0.0,0.0,0.0,0.0,0.0,0.0,0.0,0.0,0.0,0.0,0.0,0.0,0.0,0.0,0.0,0.0,0.0,0.0,0.0,0.0,0.0,0.0,0.0,0.0,0.0,0.0,0.0,0.0,0.0,0.0,0.0,0.0,0.0,0.0,0.0,0.0,0.0,0.0,0.0,0.0,0.0,0.0,0.0,0.0,0.0,0.0,0.0,0.0,0.0,0.0,0.0,0.0,0.0,0.0,0.0,0.0,0.0,0.0,0.0,0.0,0.0,0.0,0.0,0.0,0.0,0.0,0.0,0.0,0.0,0.0,0.0,0.0,0.0,0.0,0.0,0.0,0.0,0.0,0.0,0.0,0.0,0.0,0.0,0.0,0.0,0.0,0.0,0.0,0.0,0.0,0.0,0.0,0.0,0.0,0.0,0.0,0.0,0.0,0.0,0.0,0.0,0.0,0.0,0.0,0.0,0.0,0.0,0.0,0.0,0.0,0.0,0.0,0.0,0.0,0.0,0.0,0.0,0.0,0.0,0.0,0.0,0.0,0.0,0.0,0.0,0.0,0.0,0.0,0.0,0.0,0.0,0.0,0.0,0.0,0.0,0.0,0.0,0.0,0.0,0.0,0.0,0.0,0.0,0.0,0.0,0.0,0.0,0.0,0.0,0.0,0.0,0.0,0.0,0.0,0.0,0.0,0.0,0.0,0.0,0.0,0.0,0.0,0.0,0.0,0.0,0.0,0.0,0.0,0.0,0.0,0.0,0.0,0.0,0.0,0.0,0.0,0.0,0.0,0.0,0.0,0.0,0.0,0.0,0.0,0.0,0.0,0.0,0.0,0.0,0.0,0.0,0.0,0.0,0.0,0.0,0.0,0.0,0.0,0.0,0.0,0.0,0.0,0.0,0.0,0.0,0.0,0.0,0.0,0.0,0.0,0.0,0.0,0.0,0.0,0.0,0.0,0.0,0.0,0.0,0.0,0.0,0.0,0.0,0.0,0.0,0.0,0.0,0.0,0.0,0.0,0.0,0.0,0.0,0.0,0.0,0.0,0.0,0.0,0.0,0.0,0.0,0.0,0.0,0.0,0.0,0.0,0.0,0.0,0.0,0.0,0.0,0.0,0.0,0.0,0.0,0.0,0.0,0.0,0.0,0.0,0.0,0.0,0.0,0.0,0.0,0.0,0.0,0.0,0.0,0.0,0.0,0.0,0.0,0.0,0.0,0.0,0.0,0.0,0.0,0.0,0.0,0.0,0.0,0.0,0.0,0.0,0.0,0.0,0.0,0.0,0.0,0.0,0.0,0.0,0.0,0.0,0.0,0.0,0.0,0.0,0.0,0.0,0.0,0.0,0.0,0.0,0.0,0.0,0.0,0.0,0.0,0.0,0.0,0.0,0.0,0.0,0.0,0.0,0.0,0.0,0.0,0.0,0.0,0.0,0.0,0.0,0.0,0.0,0.0,0.0,0.0,0.0,0.0,0.0,0.0,0.0,0.0,0.0,0.0,0.0,0.0,0.0,0.0,0.0,0.0,0.0,0.0,0.0,0.0,0.0,0.0,0.0,0.0,0.0,0.0,0.0,0.0,0.0,0.0,0.0,0.0,0.0,0.0,0.0,0.0,0.0,0.0,0.0,0.0,0.0,0.0,0.0,0.0,0.0,0.0,0.0,0.0,0.0,0.0,0.0,0.0,0.0,0.0,0.0,0.0,0.0,0.0,0.0,0.0,0.0,0.0,0.0,0.0,0.0,0.0,0.0,0.0,0.0,0.0,0.0,0.0,0.0,0.0,0.0,0.0,0.0,0.0,0.0,0.0,0.0,0.0,0.0,0.0,0.0,0.0,0.0,0.0,0.0,0.0,0.0,0.0,0.0,0.0,0.0,0.0,0.0,0.0,0.0,0.0,0.0,0.0,0.0,0.0,0.0,0.0,0.0,0.0,0.0,0.0,0.0,0.0,0.0,0.0,0.0,0.0,0.0,0.0,0.0,0.0,0.0,0.0,0.0,0.0,0.0,0.0,0.0,0.0,0.0,0.0,0.0,0.0,0.0,0.0,0.0,0.0,0.0,0.0,0.0,0.0,0.0,0.0,0.0,0.0,0.0,0.0,0.0,0.0,0.0,0.0,0.0,0.0,0.0,0.0,0.0,0.0,0.0,0.0,0.0,0.0,0.0,0.0,0.0,0.0,0.0,0.0,0.0,0.0,0.0,0.0,0.0,0.0,0.0,0.0,0.0,0.0,0.0,0.0,0.0,0.0,0.0,0.0,0.0,0.0,0.0,0.0,0.0,0.0,0.0,0.0,0.0,0.0,0.0,0.0,0.0,0.0,0.0,0.0,0.0,0.0,0.0,0.0,0.0,0.0,0.0,0.0,0.0,0.0,0.0,0.0,0.0,0.0,0.0,0.0,0.0,0.0,0.0,0.0,0.0,0.0,0.0,0.0,0.0,0.0,0.0,0.0,0.0,0.0,0.0,0.0,0.0,0.0,0.0,0.0,0.0,0.0,0.0,0.0,0.0,0.0,0.0,0.0,0.0,0.0,0.0,0.0,0.0,0.0,0.0,0.0,0.0,0.0,0.0,0.0,0.0,0.0,0.0,0.0,0.0,0.0,0.0,0.0,0.0,0.0,0.0,0.0,0.0,0.0,0.0,0.0,0.0,0.0,0.0,0.0,0.0,0.0,0.0,0.0,0.0,0.0,0.0,0.0,0.0,0.0,0.0,0.0,0.0,0.0,0.0,0.0,0.0,0.0,0.0,0.0,0.0,0.0,0.0,0.0,0.0,0.0,0.0,0.0,0.0,0.0,0.0,0.0,0.0,0.0,0.0,0.0,0.0,0.0,0.0,0.0,0.0,0.0,0.0,0.0,0.0,0.0,0.0,0.0,0.0,0.0,0.0,0.0,0.0,0.0,0.0,0.0,0.0,0.0,0.0,0.0,0.0,0.0,0.0,0.0,0.0,0.0,0.0,0.0,0.0,0.0,0.0,0.0,0.0,0.0,0.0,0.0,0.0,0.0,0.0,0.0,0.0,0.0,0.0,0.0,0.0,0.0,0.0,0.0,0.0,0.0,0.0,0.0,0.0,0.0,0.0,0.0,0.0,0.0,0.0,0.0,-0.9089,0.0,0.0,0.0,0.0,0.0,0.0,0.0,0.0,0.0,0.0,0.0,0.0,0.0,0.0,0.0,0.0,0.0,0.0,0.0,0.0,0.0,0.0,0.0,0.0,0.0,0.0,0.0,0.0,0.0,0.0,0.0,0.0,0.0,0.0,0.0,0.0,0.0,0.0,0.0,0.0,0.0,0.0,0.0,0.0,0.0,0.0,0.0,0.0,0.0,0.0,0.0,0.0,0.0,0.0,0.0,0.0,0.0,0.0,0.0,0.0,0.0,0.0,0.0,0.0,0.0,0.0,0.0,0.0,0.0,0.0,0.0,0.0,0.0,0.0,0.0,0.0,0.0,0.0,0.0,0.0,0.0,0.0,0.0,0.0,0.0,0.0,0.0,0.0,0.0,0.0,0.0,0.0,0.0,0.0,0.0,0.0,0.0,0.0,0.0,0.0,0.0,0.0,0.0,0.0,0.0,0.0,0.0,0.0,0.0,0.0,-0.8829,-0.9022,-0.9151,-0.9093,-0.8842,0.0,0.0,0.0,0.0,0.0,0.0,0.0,0.0,0.0,0.0,0.0,0.0,0.0,0.0,0.0,0.0,0.0,0.0,0.0,0.0,0.0,0.0,0.0,0.0,0.0,0.0,0.0,0.0,0.0,0.0,0.0,0.0,0.0,0.0,0.0,0.0,0.0,0.0,0.0,0.0,0.0,0.0,0.0,0.0,0.0,0.0,0.0,0.0,0.0,0.0,0.0,0.0,0.0,0.0,0.0,0.0,0.0,0.0,0.0,0.0,0.0,0.0,0.0,0.0,0.0,0.0,0.0,0.0,0.0,0.0,0.0,0.0,0.0,0.0,0.0,0.0,0.0,0.0,0.0,0.0,0.0,0.0,0.0,0.0,0.0,0.0,0.0,0.0,0.0,0.0,0.0,0.0,0.0,0.0,0.0,0.0,0.0,0.0,0.0,0.0,0.0,0.0,0.0,0.0,0.0,0.0,0.0,0.0,0.0,0.0,0.0,0.0,-0.8907,-0.8882,-0.8639,0.0,0.0,0.0,0.0,0.0,0.0,0.0,0.0,0.0,0.0,0.0,0.0,0.0,0.0,0.0,0.0,0.0,0.0,0.0,0.0,0.0,0.0,0.0,0.0,0.0,0.0,0.0,0.0,0.0,0.0,0.0,0.0,0.0,0.0,0.0,0.0,0.0,0.0,0.0,0.0,0.0,0.0,0.0,0.0,0.0,0.0,0.0,0.0,0.0,0.0,0.0,0.0,0.0,0.0,0.0,0.0,0.0,0.0,0.0,0.0,0.0,0.0,0.0,0.0,0.0,0.0,0.0,0.0,0.0,0.0,0.0,0.0,0.0,0.0,0.0,0.0,0.0,0.0,0.0,0.0,0.0,0.0,0.0,0.0,0.0,0.0,0.0,0.0,0.0,0.0,0.0,0.0,0.0,0.0,0.0,0.0,0.0,0.0,0.0,0.0,0.0,0.0,0.0,0.0,0.0,0.0,0.0,0.0,0.0,0.0,-0.8144,-0.8337,-0.8684,0.0,-0.8791,0.0,0.0,0.0,0.0,0.0,0.0,0.0,0.0,0.0,0.0,0.0,0.0,0.0,0.0,0.0,0.0,0.0,0.0,0.0,0.0,0.0,0.0,0.0,0.0,0.0,0.0,0.0,0.0,0.0,0.0,0.0,0.0,0.0,0.0,0.0,0.0,0.0,0.0,0.0,0.0,0.0,0.0,0.0,0.0,0.0,0.0,0.0,0.0,0.0,0.0,0.0,0.0,0.0,0.0,0.0,0.0,0.0,0.0,0.0,0.0,0.0,0.0,0.0,0.0,0.0,0.0,0.0,0.0,0.0,0.0,0.0,0.0,0.0,0.0,0.0,0.0,0.0,0.0,0.0,0.0,0.0,0.0,0.0,0.0,0.0,0.0,0.0,0.0,0.0,0.0,0.0,0.0,0.0,0.0,0.0,0.0,0.0,0.0,0.0,0.0,0.0,0.0,0.0,0.0,0.0,0.0,0.0,0.0,0.0,0.0,-0.7688,-0.8305,-0.8102,-0.8243,0.0,0.0,0.0,0.0,0.0,0.0,0.0,0.0,0.0,0.0,0.0,0.0,0.0,0.0,0.0,0.0,0.0,0.0,0.0,0.0,0.0,0.0,0.0,0.0,0.0,0.0,0.0,0.0,0.0,0.0,0.0,0.0,0.0,0.0,0.0,0.0,0.0,0.0,0.0,0.0,0.0,0.0,0.0,0.0,0.0,0.0,0.0,0.0,0.0,0.0,0.0,0.0,0.0,0.0,0.0,0.0,0.0,0.0,0.0,0.0,0.0,0.0,0.0,0.0,0.0,0.0,0.0,0.0,0.0,0.0,0.0,0.0,0.0,0.0,0.0,0.0,0.0,0.0,0.0,0.0,0.0,0.0,0.0,0.0,0.0,0.0,0.0,0.0,0.0,0.0,0.0,0.0,0.0,0.0,0.0,0.0,0.0,0.0,0.0,0.0,0.0,0.0,0.0,0.0,0.0,0.0,0.0,0.0,0.0,0.0,-0.6848,-0.7048,-0.7711,-0.744,-0.7455,-0.8014,0.0,0.0,0.0,0.0,0.0,0.0,0.0,0.0,0.0,0.0,0.0,0.0,0.0,0.0,0.0,0.0,0.0,0.0,0.0,0.0,0.0,0.0,0.0,0.0,0.0,0.0,0.0,0.0,0.0,0.0,0.0,0.0,0.0,0.0,0.0,0.0,0.0,0.0,0.0,0.0,0.0,0.0,0.0,0.0,0.0,0.0,0.0,0.0,0.0,0.0,0.0,0.0,0.0,0.0,0.0,0.0,0.0,0.0,0.0,0.0,0.0,0.0,0.0,0.0,0.0,0.0,0.0,0.0,0.0,0.0,0.0,0.0,0.0,0.0,0.0,0.0,0.0,0.0,0.0,0.0,0.0,0.0,0.0,0.0,0.0,0.0,0.0,0.0,0.0,0.0,0.0,0.0,0.0,0.0,0.0,0.0,0.0,0.0,0.0,0.0,0.0,0.0,0.0,0.0,0.0,0.0,0.0,0.0,-0.6399,-0.6271,-0.6271,-0.65,-0.6437,-0.6356,0.0,0.0,0.0,0.0,0.0,0.0,0.0,0.0,0.0,0.0,0.0,0.0,0.0,0.0,0.0,0.0,0.0,0.0,0.0,0.0,0.0,0.0,0.0,0.0,0.0,0.0,0.0,0.0,0.0,0.0,0.0,0.0,0.0,0.0,0.0,0.0,0.0,0.0,0.0,0.0,0.0,0.0,0.0,0.0,0.0,0.0,0.0,0.0,0.0,0.0,0.0,0.0,0.0,0.0,0.0,0.0,0.0,0.0,0.0,0.0,0.0,0.0,0.0,0.0,0.0,0.0,0.0,0.0,0.0,0.0,0.0,0.0,0.0,0.0,0.0,0.0,0.0,0.0,0.0,0.0,0.0,0.0,0.0,0.0,0.0,0.0,0.0,0.0,0.0,0.0,0.0,0.0,0.0,0.0,0.0,0.0,0.0,0.0,0.0,0.0,0.0,0.0,0.0,0.0,0.0,0.0,0.0,0.0,0.0,-0.5579,-0.5967,-0.6324,-0.6576,-0.5948,-0.578,0.0,0.0,0.0,0.0,0.0,0.0,0.0,0.0,0.0,0.0,0.0,0.0,0.0,0.0,0.0,0.0,0.0,0.0,0.0,0.0,0.0,0.0,0.0,0.0,0.0,0.0,0.0,0.0,0.0,0.0,0.0,0.0,0.0,0.0,0.0,0.0,0.0,0.0,0.0,0.0,0.0,0.0,0.0,0.0,0.0,0.0,0.0,0.0,0.0,0.0,0.0,0.0,0.0,0.0,0.0,0.0,0.0,0.0,0.0,0.0,0.0,0.0,0.0,0.0,0.0,0.0,0.0,0.0,0.0,0.0,0.0,0.0,0.0,0.0,0.0,0.0,0.0,0.0,0.0,0.0,0.0,0.0,0.0,0.0,0.0,0.0,0.0,0.0,0.0,0.0,0.0,0.0,0.0,0.0,0.0,0.0,0.0,0.0,0.0,0.0,0.0,0.0,0.0,0.0,0.0,0.0,0.0,0.0,0.0,-0.4953,0.0,-0.5868,-0.6002,-0.5377,-0.5187,0.0,0.0,0.0,0.0,0.0,0.0,0.0,0.0,0.0,0.0,0.0,0.0,0.0,0.0,0.0,0.0,0.0,0.0,0.0,0.0,0.0,0.0,0.0,0.0,0.0,0.0,0.0,0.0,0.0,0.0,0.0,0.0,0.0,0.0,0.0,0.0,0.0,0.0,0.0,0.0,0.0,0.0,0.0,0.0,0.0,0.0,0.0,0.0,0.0,0.0,0.0,0.0,0.0,0.0,0.0,0.0,0.0,0.0,0.0,0.0,0.0,0.0,0.0,0.0,0.0,0.0,0.0,0.0,0.0,0.0,0.0,0.0,0.0,0.0,0.0,0.0,0.0,0.0,0.0,0.0,0.0,0.0,0.0,0.0,0.0,0.0,0.0,0.0,0.0,0.0,0.0,0.0,0.0,0.0,0.0,0.0,0.0,0.0,0.0,0.0,0.0,0.0,0.0,0.0,0.0,0.0,0.0,0.0,-0.4414,-0.4709,-0.476,-0.4839,-0.4737,-0.4715,-0.4491,0.0,0.0,0.0,0.0,0.0,0.0,0.0,0.0,0.0,0.0,0.0,0.0,0.0,0.0,0.0,0.0,0.0,0.0,0.0,0.0,0.0,0.0,0.0,0.0,0.0,0.0,0.0,0.0,0.0,0.0,0.0,0.0,0.0,0.0,0.0,0.0,0.0,0.0,0.0,0.0,0.0,0.0,0.0,0.0,0.0,0.0,0.0,0.0,0.0,0.0,0.0,0.0,0.0,0.0,0.0,0.0,0.0,0.0,0.0,0.0,0.0,0.0,0.0,0.0,0.0,0.0,0.0,0.0,0.0,0.0,0.0,0.0,0.0,0.0,0.0,0.0,0.0,0.0,0.0,0.0,0.0,0.0,0.0,0.0,0.0,0.0,0.0,0.0,0.0,0.0,0.0,0.0,0.0,0.0,0.0,0.0,0.0,0.0,0.0,0.0,0.0,0.0,0.0,0.0,0.0,0.0,0.0,0.0,0.0,-0.4596,-0.4645,-0.4773,-0.4887,-0.458,-0.4417,0.0,0.0,0.0,0.0,0.0,0.0,0.0,0.0,0.0,0.0,0.0,0.0,0.0,0.0,0.0,0.0,0.0,0.0,0.0,0.0,0.0,0.0,0.0,0.0,0.0,0.0,0.0,0.0,0.0,0.0,0.0,0.0,0.0,0.0,0.0,0.0,0.0,0.0,0.0,0.0,0.0,0.0,0.0,0.0,0.0,0.0,0.0,0.0,0.0,0.0,0.0,0.0,0.0,0.0,0.0,0.0,0.0,0.0,0.0,0.0,0.0,0.0,0.0,0.0,0.0,0.0,0.0,0.0,0.0,0.0,0.0,0.0,0.0,0.0,0.0,0.0,0.0,0.0,0.0,0.0,0.0,0.0,0.0,0.0,0.0,0.0,0.0,0.0,0.0,0.0,0.0,0.0,0.0,0.0,0.0,0.0,0.0,0.0,0.0,0.0,0.0,0.0,0.0,0.0,0.0,0.0,0.0,0.0,0.0,-0.4675,-0.4792,-0.4904,-0.5015,-0.4681,-0.4507,-0.4582,0.0,0.0,0.0,0.0,0.0,0.0,0.0,0.0,0.0,0.0,0.0,0.0,0.0,0.0,0.0,0.0,0.0,0.0,0.0,0.0,0.0,0.0,0.0,0.0,0.0,0.0,0.0,0.0,0.0,0.0,0.0,0.0,0.0,0.0,0.0,0.0,0.0,0.0,0.0,0.0,0.0,0.0,0.0,0.0,0.0,0.0,0.0,0.0,0.0,0.0,0.0,0.0,0.0,0.0,0.0,0.0,0.0,0.0,0.0,0.0,0.0,0.0,0.0,0.0,0.0,0.0,0.0,0.0,0.0,0.0,0.0,0.0,0.0,0.0,0.0,0.0,0.0,0.0,0.0,0.0,0.0,0.0,0.0,0.0,0.0,0.0,0.0,0.0,0.0,0.0,0.0,0.0,0.0,0.0,0.0,0.0,0.0,0.0,0.0,0.0,0.0,0.0,0.0,0.0,0.0,0.0,0.0,0.0,-0.5056,-0.5162,-0.5165,-0.5053,-0.4915,-0.4683,0.0,0.0,0.0,0.0,0.0,0.0,0.0,0.0,0.0,0.0,0.0,0.0,0.0,0.0,0.0,0.0,0.0,0.0,0.0,0.0,0.0,0.0,0.0,0.0,0.0,0.0,0.0,0.0,0.0,0.0,0.0,0.0,0.0,0.0,0.0,0.0,0.0,0.0,0.0,0.0,0.0,0.0,0.0,0.0,0.0,0.0,0.0,0.0,0.0,0.0,0.0,0.0,0.0,0.0,0.0,0.0,0.0,0.0,0.0,0.0,0.0,0.0,0.0,0.0,0.0,0.0,0.0,0.0,0.0,0.0,0.0,0.0,0.0,0.0,0.0,0.0,0.0,0.0,0.0,0.0,0.0,0.0,0.0,0.0,0.0,0.0,0.0,0.0,0.0,0.0,0.0,0.0,0.0,0.0,0.0,0.0,0.0,0.0,0.0,0.0,0.0,0.0,0.0,0.0,0.0,0.0,0.0,0.0,0.0,-0.5529,-0.5575,-0.5532,-0.5409,-0.5124,-0.4925,0.0,0.0,0.0,0.0,0.0,0.0,0.0,0.0,0.0,0.0,0.0,0.0,0.0,0.0,0.0,0.0,0.0,0.0,0.0,0.0,0.0,0.0,0.0,0.0,0.0,0.0,0.0,0.0,0.0,0.0,0.0,0.0,0.0,0.0,0.0,0.0,0.0,0.0,0.0,0.0,0.0,0.0,0.0,0.0,0.0,0.0,0.0,0.0,0.0,0.0,0.0,0.0,0.0,0.0,0.0,0.0,0.0,0.0,0.0,0.0,0.0,0.0,0.0,0.0,0.0,0.0,0.0,0.0,0.0,0.0,0.0,0.0,0.0,0.0,0.0,0.0,0.0,0.0,0.0,0.0,0.0,0.0,0.0,0.0,0.0,0.0,0.0,0.0,0.0,0.0,0.0,0.0,0.0,0.0,0.0,0.0,0.0,0.0,0.0,0.0,0.0,0.0,0.0,0.0,0.0,0.0,0.0,0.0,-0.5349,-0.5725,-0.5779,-0.5771,-0.57,-0.5404,-0.517,0.0,0.0,0.0,0.0,0.0,0.0,0.0,0.0,0.0,0.0,0.0,0.0,0.0,0.0,0.0,0.0,0.0,0.0,0.0,0.0,0.0,0.0,0.0,0.0,0.0,0.0,0.0,0.0,0.0,0.0,0.0,0.0,0.0,0.0,0.0,0.0,0.0,0.0,0.0,0.0,0.0,0.0,0.0,0.0,0.0,0.0,0.0,0.0,0.0,0.0,0.0,0.0,0.0,0.0,0.0,0.0,0.0,0.0,0.0,0.0,0.0,0.0,0.0,0.0,0.0,0.0,0.0,0.0,0.0,0.0,0.0,0.0,0.0,0.0,0.0,0.0,0.0,0.0,0.0,0.0,0.0,0.0,0.0,0.0,0.0,0.0,0.0,0.0,0.0,0.0,0.0,0.0,0.0,0.0,0.0,0.0,0.0,0.0,0.0,0.0,0.0,0.0,0.0,0.0,0.0,0.0,0.0,0.0,-0.5523,-0.5765,-0.5974,-0.6031,-0.6023,-0.5786,-0.5485,0.0,0.0,0.0,0.0,0.0,0.0,0.0,0.0,0.0,0.0,0.0,0.0,0.0,0.0,0.0,0.0,0.0,0.0,0.0,0.0,0.0,0.0,0.0,0.0,0.0,0.0,0.0,0.0,0.0,0.0,0.0,0.0,0.0,0.0,0.0,0.0,0.0,0.0,0.0,0.0,0.0,0.0,0.0,0.0,0.0,0.0,0.0,0.0,0.0,0.0,0.0,0.0,0.0,0.0,0.0,0.0,0.0,0.0,0.0,0.0,0.0,0.0,0.0,0.0,0.0,0.0,0.0,0.0,0.0,0.0,0.0,0.0,0.0,0.0,0.0,0.0,0.0,0.0,0.0,0.0,0.0,0.0,0.0,0.0,0.0,0.0,0.0,0.0,0.0,0.0,0.0,0.0,0.0,0.0,0.0,0.0,0.0,0.0,0.0,0.0,0.0,0.0,0.0,0.0,0.0,0.0,0.0,0.0,-0.5771,-0.6005,-0.6783,-0.7136,-0.7136,-0.6762,-0.6111,0.0,0.0,0.0,0.0,0.0,0.0,0.0,0.0,0.0,0.0,0.0,0.0,0.0,0.0,0.0,0.0,0.0,0.0,0.0,0.0,0.0,0.0,0.0,0.0,0.0,0.0,0.0,0.0,0.0,0.0,0.0,0.0,0.0,0.0,0.0,0.0,0.0,0.0,0.0,0.0,0.0,0.0,0.0,0.0,0.0,0.0,0.0,0.0,-1.053,0.0,0.0,0.0,0.0,0.0,0.0,0.0,0.0,0.0,0.0,0.0,0.0,0.0,0.0,0.0,0.0,0.0,0.0,0.0,0.0,0.0,0.0,0.0,0.0,0.0,0.0,0.0,0.0,0.0,0.0,0.0,0.0,0.0,0.0,0.0,0.0,0.0,0.0,0.0,0.0,0.0,0.0,0.0,0.0,0.0,0.0,0.0,0.0,0.0,0.0,0.0,0.0,0.0,0.0,0.0,0.0,0.0,0.0,0.0,-0.6385,-0.6643,-0.7538,-0.7994,-0.7983,-0.8058,-0.7489,0.0,0.0,0.0,0.0,0.0,0.0,0.0,0.0,0.0,0.0,0.0,0.0,0.0,0.0,0.0,0.0,0.0,0.0,0.0,0.0,0.0,0.0,0.0,0.0,0.0,0.0,0.0,0.0,0.0,0.0,0.0,0.0,0.0,0.0,0.0,0.0,0.0,0.0,0.0,0.0,0.0,0.0,0.0,0.0,0.0,0.0,0.0,0.0,0.0,0.0,0.0,0.0,0.0,0.0,0.0,0.0,0.0,0.0,0.0,0.0,0.0,0.0,0.0,0.0,0.0,0.0,0.0,0.0,0.0,0.0,0.0,0.0,0.0,0.0,0.0,0.0,0.0,0.0,0.0,0.0,0.0,0.0,0.0,0.0,0.0,0.0,0.0,0.0,0.0,0.0,0.0,0.0,0.0,0.0,0.0,0.0,0.0,0.0,0.0,0.0,0.0,0.0,0.0,0.0,0.0,0.0,0.0,-0.6436,-0.7125,-0.7486,-0.8328,-0.881,-0.8802,-0.9284,-0.9121,-0.8092,0.0,0.0,0.0,0.0,0.0,0.0,0.0,0.0,0.0,0.0,0.0,0.0,0.0,0.0,0.0,0.0,0.0,0.0,0.0,0.0,0.0,0.0,0.0,0.0,0.0,0.0,0.0,0.0,0.0,0.0,0.0,0.0,0.0,0.0,0.0,0.0,0.0,0.0,-0.921,-0.9977,0.0,0.0,0.0,0.0,0.0,0.0,0.0,0.0,-0.9612,0.0,0.0,0.0,0.0,0.0,0.0,0.0,0.0,0.0,0.0,0.0,0.0,0.0,0.0,0.0,0.0,0.0,0.0,0.0,0.0,0.0,0.0,0.0,0.0,0.0,0.0,0.0,0.0,0.0,0.0,0.0,0.0,0.0,0.0,0.0,0.0,0.0,0.0,0.0,0.0,0.0,0.0,0.0,0.0,0.0,0.0,0.0,0.0,0.0,0.0,0.0,0.0,0.0,0.0,0.0,0.0,-0.6332,-0.6805,-0.7411,-0.8149,-0.9216,-0.9776,-0.9763,-1.0207,-1.0181,-0.9653,0.0,0.0,0.0,0.0,0.0,0.0,0.0,0.0,0.0,0.0,0.0,0.0,0.0,0.0,0.0,0.0,0.0,0.0,0.0,0.0,0.0,0.0,0.0,0.0,0.0,0.0,0.0,0.0,0.0,0.0,0.0,0.0,0.0,0.0,0.0,0.0,0.0,0.0,0.0,-1.1089,-1.1425,0.0,0.0,0.0,0.0,0.0,0.0,0.0,0.0,-0.9748,0.0,0.0,0.0,0.0,0.0,0.0,0.0,0.0,0.0,0.0,0.0,0.0,0.0,0.0,0.0,0.0,0.0,0.0,0.0,0.0,0.0,0.0,0.0,0.0,0.0,0.0,0.0,0.0,0.0,0.0,0.0,0.0,0.0,0.0,0.0,0.0,0.0,0.0,0.0,0.0,0.0,0.0,0.0,0.0,0.0,0.0,0.0,0.0,0.0,0.0,0.0,0.0,0.0,0.0,0.0,-0.6645,-0.7728,-0.8571,-0.9127,-1.0065,-1.0605,-1.0596,-1.0501,-1.0324,0.0,0.0,0.0,0.0,0.0,0.0,0.0,0.0,0.0,0.0,0.0,0.0,0.0,0.0,0.0,0.0,0.0,0.0,0.0,0.0,0.0,0.0,0.0,0.0,0.0,0.0,0.0,0.0,0.0,0.0,0.0,0.0,0.0,0.0,0.0,0.0,0.0,0.0,0.0,0.0,-1.0435,-1.0725,-1.0314,0.0,0.0,0.0,0.0,0.0,0.0,-0.9774,-0.9264,0.0,0.0,0.0,0.0,0.0,0.0,0.0,0.0,0.0,0.0,0.0,0.0,0.0,0.0,0.0,0.0,0.0,0.0,0.0,0.0,0.0,0.0,0.0,0.0,0.0,0.0,0.0,0.0,0.0,0.0,0.0,0.0,0.0,0.0,0.0,0.0,0.0,0.0,0.0,0.0,0.0,0.0,0.0,0.0,0.0,0.0,0.0,0.0,0.0,0.0,0.0,0.0,0.0,0.0,0.0,-0.6987,-0.8615,-0.9729,-1.0023,-1.0798,-1.1194,-1.1184,-1.0679,-1.0338,0.0,0.0,0.0,0.0,0.0,0.0,0.0,0.0,0.0,0.0,0.0,0.0,0.0,0.0,0.0,0.0,0.0,0.0,0.0,0.0,0.0,0.0,0.0,0.0,0.0,0.0,0.0,0.0,0.0,0.0,0.0,0.0,0.0,0.0,0.0,0.0,0.0,0.0,0.0,0.0,0.0,-0.9917,-0.9701,-1.007,0.0,0.0,0.0,0.0,-1.0636,-0.949,0.0,0.0,0.0,0.0,0.0,0.0,0.0,0.0,0.0,0.0,0.0,0.0,0.0,0.0,0.0,0.0,0.0,0.0,0.0,0.0,0.0,0.0,0.0,0.0,0.0,0.0,0.0,0.0,0.0,0.0,0.0,0.0,0.0,0.0,0.0,0.0,0.0,0.0,0.0,0.0,0.0,0.0,0.0,0.0,0.0,0.0,0.0,0.0,0.0,0.0,0.0,0.0,0.0,0.0,0.0,0.0,-0.7669,-0.8984,-1.0019,-1.07,-1.1094,-1.1194,-1.1189,-1.0953,-1.056,0.0,0.0,0.0,0.0,0.0,0.0,0.0,0.0,0.0,0.0,0.0,0.0,0.0,0.0,0.0,0.0,0.0,0.0,0.0,0.0,0.0,0.0,0.0,0.0,0.0,0.0,0.0,0.0,0.0,0.0,0.0,0.0,0.0,0.0,0.0,0.0,0.0,0.0,0.0,0.0,0.0,-0.987,-0.9165,-0.9165,-0.9223,0.0,0.0,-0.9385,-1.0449,-0.968,0.0,0.0,0.0,0.0,0.0,0.0,0.0,0.0,0.0,0.0,0.0,0.0,0.0,0.0,0.0,0.0,0.0,0.0,0.0,0.0,0.0,0.0,0.0,0.0,0.0,0.0,0.0,0.0,0.0,0.0,0.0,0.0,0.0,0.0,0.0,0.0,0.0,0.0,0.0,0.0,0.0,0.0,0.0,0.0,0.0,0.0,0.0,0.0,0.0,0.0,0.0,0.0,0.0,0.0,0.0,-0.7338,-0.7993,-0.9609,-1.0568,-1.1057,-1.1151,-1.1194,-1.1194,-1.0882,-1.0532,0.0,0.0,0.0,0.0,0.0,0.0,0.0,0.0,0.0,0.0,0.0,0.0,0.0,0.0,0.0,0.0,0.0,0.0,0.0,0.0,0.0,0.0,0.0,0.0,0.0,0.0,0.0,0.0,0.0,0.0,0.0,0.0,0.0,0.0,0.0,0.0,0.0,0.0,0.0,0.0,0.0,0.0,-0.8788,-0.9442,0.0,0.0,0.0,-0.9446,-1.0342,0.0,0.0,0.0,0.0,0.0,0.0,0.0,0.0,0.0,0.0,0.0,0.0,0.0,0.0,0.0,0.0,0.0,0.0,0.0,0.0,0.0,0.0,0.0,0.0,0.0,0.0,0.0,0.0,0.0,0.0,0.0,0.0,0.0,0.0,0.0,0.0,0.0,0.0,0.0,0.0,0.0,0.0,0.0,0.0,0.0,0.0,0.0,0.0,0.0,0.0,0.0,0.0,0.0,0.0,0.0,0.0,0.0,-0.8372,-1.0063,-1.1042,-1.1189,-1.1194,-1.1194,-1.1189,-1.0891,0.0,0.0,0.0,0.0,0.0,0.0,0.0,0.0,0.0,0.0,0.0,0.0,0.0,0.0,0.0,0.0,0.0,0.0,0.0,0.0,0.0,0.0,0.0,0.0,0.0,0.0,0.0,-0.7992,0.0,0.0,0.0,0.0,0.0,0.0,0.0,0.0,0.0,0.0,0.0,0.0,0.0,0.0,-0.9653,-0.8495,-0.9447,-1.0272,0.0,0.0,-0.982,-1.0941,-1.0315,-0.9526,0.0,0.0,0.0,0.0,0.0,0.0,0.0,0.0,0.0,0.0,0.0,0.0,0.0,0.0,0.0,0.0,0.0,0.0,0.0,0.0,0.0,0.0,0.0,0.0,0.0,0.0,0.0,0.0,0.0,0.0,0.0,0.0,0.0,0.0,0.0,0.0,0.0,0.0,0.0,0.0,0.0,0.0,0.0,0.0,0.0,0.0,0.0,0.0,0.0,0.0,0.0,0.0,0.0,0.0,-0.8267,-0.8999,-1.0377,-1.1179,-1.1194,-1.1194,-1.1194,-1.1194,-1.1165,-1.0778,0.0,0.0,0.0,0.0,0.0,0.0,0.0,0.0,0.0,0.0,0.0,0.0,0.0,0.0,0.0,0.0,0.0,0.0,0.0,0.0,0.0,0.0,0.0,0.0,0.0,0.0,0.0,0.0,0.0,0.0,0.0,0.0,0.0,0.0,0.0,0.0,0.0,0.0,0.0,0.0,0.0,-0.8243,-0.8251,-0.8369,-0.9258,0.0,-1.0717,-1.0738,-1.2621,-1.2113,-1.1094,-0.9611,0.0,0.0,0.0,0.0,0.0,0.0,0.0,0.0,0.0,0.0,0.0,0.0,0.0,0.0,0.0,0.0,0.0,0.0,0.0,0.0,0.0,0.0,0.0,0.0,0.0,0.0,0.0,0.0,0.0,0.0,0.0,0.0,0.0,0.0,0.0,0.0,0.0,0.0,0.0,0.0,0.0,0.0,0.0,0.0,0.0,0.0,0.0,0.0,0.0,0.0,0.0,0.0,0.0,-0.8127,-0.8468,-1.0292,-1.1194,-1.1194,-1.1194,-1.1194,-1.1194,-1.1194,-1.0868,0.0,0.0,0.0,0.0,0.0,0.0,0.0,0.0,0.0,0.0,0.0,0.0,0.0,0.0,0.0,0.0,0.0,0.0,0.0,0.0,0.0,0.0,0.0,0.0,0.0,0.0,0.0,0.0,-1.0608,-1.0653,-0.9689,0.0,0.0,0.0,0.0,0.0,0.0,0.0,0.0,0.0,0.0,-0.999,-0.9705,-0.9669,0.0,0.0,-0.9744,-0.9722,-1.0524,-1.0032,-0.9452,-0.8795,-0.8404,0.0,0.0,0.0,0.0,0.0,0.0,0.0,0.0,0.0,0.0,0.0,0.0,0.0,0.0,0.0,0.0,0.0,0.0,0.0,0.0,0.0,0.0,0.0,0.0,0.0,0.0,0.0,0.0,0.0,0.0,0.0,0.0,0.0,0.0,0.0,0.0,0.0,0.0,0.0,0.0,0.0,0.0,0.0,0.0,0.0,0.0,0.0,0.0,0.0,0.0,0.0,0.0,-0.8224,-0.8456,-1.0233,-1.1194,-1.1194,-1.1194,-1.1194,-1.1194,-1.1194,-1.0934,0.0,0.0,0.0,0.0,0.0,0.0,0.0,0.0,0.0,0.0,0.0,0.0,0.0,0.0,0.0,0.0,0.0,0.0,0.0,0.0,0.0,0.0,0.0,0.0,0.0,0.0,0.0,0.0,-1.1134,-1.115,-0.9902,0.0,0.0,0.0,0.0,0.0,0.0,0.0,0.0,0.0,0.0,-1.1045,-1.1049,-1.074,-1.0403,-1.0188,-0.9775,-0.9643,-0.9917,-0.966,-0.9329,-0.915,0.0,0.0,0.0,0.0,0.0,0.0,0.0,0.0,0.0,0.0,0.0,0.0,0.0,0.0,0.0,0.0,0.0,0.0,0.0,0.0,0.0,0.0,0.0,0.0,0.0,0.0,0.0,0.0,0.0,0.0,-0.2179,0.0,0.0,0.0,0.0,0.0,0.0,0.0,0.0,0.0,0.0,0.0,0.0,0.0,0.0,0.0,0.0,0.0,0.0,0.0,0.0,0.0,0.0,-0.8456,-0.9178,-1.05,-1.1203,-1.1203,-1.1194,-1.1198,-1.1203,-1.1194,-1.1,-1.0579,0.0,0.0,0.0,0.0,0.0,0.0,0.0,0.0,0.0,0.0,0.0,0.0,0.0,0.0,0.0,0.0,0.0,0.0,0.0,0.0,0.0,0.0,0.0,0.0,0.0,0.0,-0.955,-0.8876,-0.8538,0.0,0.0,0.0,0.0,0.0,0.0,0.0,0.0,0.0,-1.1166,-1.0906,-1.0865,-1.2005,-1.1298,-1.1101,-1.224,-1.1336,-1.0925,-1.1757,-1.1903,-1.1668,0.0,0.0,0.0,0.0,0.0,0.0,0.0,0.0,0.0,0.0,0.0,0.0,0.0,0.0,0.0,0.0,0.0,0.0,0.0,0.0,0.0,0.0,0.0,0.0,0.0,0.0,0.0,-0.2489,-0.2452,0.0,0.0,0.0,0.0,0.0,0.0,0.0,0.0,0.0,0.0,0.0,-0.2786,-0.3198,0.0,0.0,0.0,0.0,0.0,0.0,0.0,0.0,0.0,0.0,0.0,0.0,-0.8717,-0.9561,-1.0798,-1.1477,-1.1595,-1.1335,-1.1264,-1.1406,-1.1406,-1.1217,-1.0801,0.0,0.0,0.0,0.0,0.0,0.0,0.0,0.0,0.0,0.0,0.0,0.0,0.0,0.0,0.0,0.0,0.0,0.0,0.0,0.0,0.0,0.0,0.0,0.0,0.0,-1.0748,0.0,0.0,0.0,0.0,0.0,0.0,0.0,0.0,0.0,0.0,0.0,-1.1514,-1.1904,-1.2354,-1.2592,-1.2558,-1.2204,-1.2135,0.0,0.0,0.0,0.0,0.0,0.0,0.0,0.0,0.0,0.0,0.0,0.0,0.0,0.0,-1.2924,-1.019,-0.9616,-0.9756,-0.9981,0.0,0.0,0.0,0.0,0.0,0.0,0.0,0.0,0.0,0.0,0.0,0.0,0.0,0.0,-0.2673,0.0,-0.2636,0.0,0.0,0.0,0.0,0.0,0.0,0.0,0.0,-0.3141,-0.3224,-0.3247,-0.3903,-0.4197,0.0,-0.4518,-0.4743,0.0,0.0,0.0,0.0,0.0,0.0,0.0,0.0,-0.9021,-0.975,-1.0936,-1.1543,-1.159,-1.1406,-1.134,-1.1401,-1.1482,-1.1392,-1.1123,-1.0976,-1.0612,0.0,0.0,0.0,0.0,0.0,0.0,0.0,0.0,0.0,0.0,0.0,0.0,0.0,0.0,0.0,0.0,0.0,0.0,0.0,0.0,0.0,0.0,0.0,-1.1156,0.0,0.0,0.0,0.0,0.0,0.0,0.0,0.0,0.0,-1.1445,-1.2193,-1.2774,-1.3294,-1.3665,-1.3892,-1.3771,0.0,0.0,0.0,0.0,0.0,0.0,0.0,-1.2218,-1.2655,-1.2143,-1.1844,-1.2184,-1.3134,-1.3878,-1.3689,0.0,0.0,-1.1759,-1.13,-1.1352,-1.152,-1.1636,-1.1688,-1.1852,-1.2484,-1.2914,0.0,0.0,0.0,0.0,0.0,0.0,0.0,0.0,-0.2887,-0.2883,0.0,-0.2875,0.0,0.0,0.0,0.0,0.0,-0.3175,0.0,0.0,-0.3929,-0.3997,-0.4041,-0.4685,-0.5031,-0.4954,-0.5029,-0.5783,-0.6921,-0.6164,0.0,0.0,0.0,0.0,0.0,0.0,-0.949,-0.9949,-1.092,-1.1435,-1.126,-1.1411,-1.1411,-1.1241,-1.1435,-1.1543,-1.1539,-1.1534,-1.1241,-1.0617,-1.0405,0.0,0.0,0.0,0.0,0.0,0.0,0.0,0.0,0.0,0.0,0.0,0.0,0.0,0.0,0.0,0.0,0.0,0.0,0.0,0.0,-1.0245,0.0,0.0,0.0,0.0,0.0,0.0,0.0,0.0,0.0,0.0,-1.3016,-1.2638,-1.3049,-1.5088,0.0,0.0,0.0,0.0,-1.4394,-1.4298,-1.34,-1.267,-1.267,-1.2653,-1.2856,-1.3568,0.0,0.0,-1.3403,-1.3936,-1.4212,-1.3604,-1.4577,-1.5411,-1.5279,-1.411,-1.333,-1.3348,-1.3336,-1.3373,-1.3385,-1.3931,-1.4548,-0.3157,0.0,0.0,0.0,0.0,-0.3092,-0.3048,-0.3128,-0.3128,-0.308,-0.2999,-0.3092,0.0,0.0,0.0,0.0,0.0,0.0,-0.3789,-0.4042,-0.4566,-0.485,-0.489,-0.5461,-0.5684,-0.5761,-0.6722,-0.7739,-0.8582,-0.9014,-0.8729,-0.7985,0.0,0.0,0.0,0.0,-1.0529,-1.1042,-1.1494,-1.1775,-1.1869,-1.1491,-1.1397,-1.1633,-1.185,-1.1964,-1.1964,-1.1964,-1.1666,-1.1052,-1.0962,0.0,0.0,0.0,0.0,0.0,0.0,0.0,0.0,0.0,0.0,0.0,0.0,0.0,0.0,0.0,0.0,0.0,0.0,0.0,-1.0162,-1.0964,-1.1707,0.0,0.0,0.0,0.0,0.0,0.0,0.0,0.0,0.0,-1.463,-1.4598,-1.4532,0.0,0.0,-1.5255,-1.4771,-1.5064,-1.535,-1.535,-1.5082,0.0,-1.4836,-1.4671,-1.4682,-1.5084,-1.5044,-1.4994,-1.5123,-1.5233,-1.5292,-1.5123,-1.545,-1.5705,-1.5678,-1.5048,-1.4565,-1.4715,-1.4774,-1.4839,-1.5114,-1.5266,-1.5464,-0.3857,-0.3286,-0.3147,-0.3128,-0.3191,-0.3194,-0.3234,-0.3303,-0.3304,-0.326,-0.3194,-0.3194,-0.314,-0.305,-0.3402,0.0,0.0,0.0,-0.4353,-0.4842,-0.5313,-0.5474,-0.5532,-0.6105,-0.6551,-0.6973,-0.7821,-0.8803,-1.0036,-1.0505,-1.0306,-0.9588,0.0,0.0,-1.0032,-1.0609,-1.1152,-1.1642,-1.1836,-1.1931,-1.1883,-1.1439,-1.1392,-1.1798,-1.1945,-1.2091,-1.2252,-1.2257,-1.2044,-1.159,-1.1411,-1.1019,0.0,0.0,0.0,0.0,0.0,0.0,0.0,0.0,0.0,0.0,0.0,-0.9204,-0.8062,0.0,0.0,0.0,-1.0368,-1.1163,-1.1867,-1.2424,0.0,0.0,0.0,0.0,0.0,0.0,0.0,-1.4333,-1.4741,-1.5219,-1.5806,-1.5839,-1.5576,-1.4962,-1.5445,-1.5681,-1.512,0.0,-1.6039,-1.6159,-1.6179,-1.6172,-1.6172,-1.6032,-1.5972,-1.6146,-1.6172,-1.6179,-1.6172,-1.6179,-1.6172,-1.6172,-1.6179,-1.6179,-1.6172,-1.5885,-1.5605,-1.5578,-1.5571,-1.5631,-1.5798,-1.5825,-1.5825,-0.4827,-0.367,-0.3508,-0.3435,-0.3427,-0.3432,-0.3428,-0.342,-0.3424,-0.3421,-0.3413,-0.3413,-0.3382,-0.3324,-0.3275,0.0,-0.4996,-0.4482,-0.4946,-0.5982,-0.6085,-0.6088,-0.6093,-0.6837,-0.7536,-0.8285,-0.8501,-0.9439,-1.1,-1.1056,-1.1314,-1.1865,-1.168,-1.1567,-1.152,-1.1567,-1.1676,-1.1841,-1.202,-1.1917,-1.1501,-1.1312,-1.1411,-1.1803,-1.1836,-1.203,-1.2413,-1.2422,-1.2323,-1.2115,-1.1732,-1.1331,-1.091,0.0,0.0,0.0,0.0,0.0,0.0,0.0,0.0,0.0,0.0,0.0,0.0,0.0,0.0,0.0,-1.2355,0.0,-1.4472,-1.4168,0.0,0.0,0.0,-1.3471,-1.4892,-1.5226,-1.559,-1.6104,0.0,0.0,-1.6676,-1.6508,-1.6206,-1.5939,-1.5899,-1.5999,-1.6266,-1.6313,-1.6406,-1.6633,-1.6693,-1.6693,-1.6647,-1.664,-1.6627,-1.6647,-1.6707,-1.6667,-1.6667,-1.668,-1.6693,-1.6667,-1.67,-1.6687,-1.67,-1.664,-1.6533,-1.5999,-1.5912,-1.5912,-1.5939,-1.5945,-1.5952,-0.4096,-0.3744,-0.3702,-0.3632,-0.355,-0.3595,-0.3561,-0.3482,-0.3526,-0.3496,-0.3413,-0.3413,-0.3616,-0.4024,-0.4058,-0.4513,-0.5181,-0.5138,-0.5507,-0.6189,-0.6741,-0.6851,-0.6963,-0.7761,-0.8216,-0.8543,-0.9855,-1.0643,-1.1126,-1.1733,-1.2121,-1.229,-1.2247,-1.1983,-1.1553,-1.1983,-1.2167,-1.2063,-1.195,-1.169,-1.1293,-1.1383,-1.1557,-1.1808,-1.1978,-1.2181,-1.2427,-1.229,-1.2115,-1.1902,-1.1652,-1.1326,-1.0915,-1.0452,0.0,0.0,0.0,0.0,0.0,0.0,0.0,0.0,0.0,-1.0562,-0.9488,0.0,-1.147,0.0,-1.3811,-1.4473,-1.3674,-1.3646,0.0,0.0,-1.385,-1.4059,-1.5738,-1.6081,-1.6379,-1.6828,-1.6861,-1.6936,-1.7011,-1.6806,-1.658,-1.6506,-1.6493,-1.652,-1.66,-1.6607,-1.6627,-1.67,-1.6727,-1.6707,-1.6727,-1.6707,-1.672,-1.6707,-1.6714,-1.6707,-1.6707,-1.6707,-1.6707,-1.6707,-1.6707,-1.6707,-1.672,-1.6707,-1.6673,-1.6533,-1.65,-1.6493,-1.65,-1.6486,-1.6493,-0.5636,-0.5638,-0.5638,-0.558,-0.5373,-0.4307,-0.368,-0.3623,-0.3654,-0.3617,-0.3529,-0.3829,-0.4033,-0.4361,-0.4726,-0.5188,-0.5634,-0.5793,-0.6151,-0.6707,-0.7041,-0.7376,-0.782,-0.8263,-0.8927,-0.9699,-1.0688,-1.135,-1.1673,-1.211,-1.2436,-1.2436,-1.2436,-1.2266,-1.1959,-1.2271,-1.238,-1.2271,-1.1973,-1.1657,-1.1359,-1.1458,-1.1614,-1.1813,-1.203,-1.2195,-1.2304,-1.22,-1.2039,-1.1822,-1.1624,-1.1368,-1.1042,-1.0731,-1.0414,0.0,0.0,0.0,0.0,0.0,0.0,0.0,0.0,0.0,0.0,0.0,-1.2883,-1.3998,-1.5273,-1.5749,-1.5093,-1.5153,-1.5338,-1.5619,-1.5201,-1.536,-1.6393,-1.6613,-1.6835,-1.7079,-1.712,-1.7175,-1.7493,-1.7211,-1.7056,-1.7292,-1.7197,-1.7048,-1.6934,-1.6907,-1.6947,-1.7074,-1.7094,-1.7101,-1.7094,-1.7094,-1.7101,-1.7094,-1.7094,-1.7101,-1.7094,-1.7094,-1.7094,-1.7094,-1.7094,-1.7094,-1.7094,-1.7094,-1.7094,-1.7094,-1.7094,-1.7001,-1.676,-1.6707,-1.6707,-0.7858,-0.7858,-0.7858,-0.7858,-0.772,-0.5381,-0.4257,-0.4249,-0.4249,-0.4328,-0.4257,-0.4752,-0.5052,-0.494,-0.5487,-0.6146,-0.6594,-0.6594,-0.693,-0.7485,-0.7595,-0.7928,-0.8702,-0.8813,-0.9588,-1.1017,-1.1236,-1.1678,-1.2327,-1.2436,-1.2436,-1.2436,-1.2436,-1.2436,-1.2436,-1.2436,-1.2413,-1.2356,-1.2002,-1.1709,-1.1482,-1.1505,-1.1614,-1.1813,-1.1997,-1.211,-1.2134,-1.2115,-1.2011,-1.1827,-1.1647,-1.1458,-1.1246,-1.1047,-1.0745,0.0,-1.0286,0.0,0.0,0.0,0.0,0.0,0.0,0.0,0.0,-1.2783,-1.4551,-1.5378,-1.6699,-1.7384,-1.7272,-1.745,-1.7505,-1.722,-1.7007,-1.682,-1.6854,-1.7075,-1.7196,-1.723,-1.723,-1.7332,-1.7893,-1.7517,-1.7412,-1.7823,-1.7647,-1.7442,-1.7261,-1.7201,-1.7288,-1.7555,-1.7589,-1.7508,-1.7528,-1.7555,-1.7549,-1.7569,-1.7542,-1.7589,-1.7555,-1.7555,-1.7569,-1.7569,-1.7542,-1.7555,-1.7582,-1.7569,-1.7569,-1.7542,-1.7535,-1.7388,-1.6994,-1.6867,-1.682,-0.7858,-0.7858,-0.7858,-0.7858,-0.7853,-0.7324,-0.7135,-0.705,-0.705,-0.6987,-0.6993,-0.7681,-0.774,-0.7277,-0.7741,-0.8137,-0.8355,-0.8355,-0.8689,-0.9354,-0.9361,-0.9361,-0.9578,-1.0245,-1.0798,-1.1126,-1.1787,-1.2223,-1.2436,-1.2436,-1.2436,-1.2436,-1.2436,-1.2436,-1.2436,0.0,0.0,0.0,-1.186,-1.1638,-1.1279,-1.143,-1.1614,-1.1808,-1.1855,0.0,-1.2124,-1.1968,-1.186,-1.1817,-1.1779,0.0,0.0,0.0,0.0,0.0,0.0,0.0,0.0,0.0,0.0,0.0,-1.1301,-1.1889,-1.3153,-1.5564,-1.6798,-1.6388,-1.744,-1.8138,-1.8105,-1.7874,-1.7818,-1.7718,-1.7519,-1.751,-1.774,-1.7585,-1.7674,-1.8116,-1.7728,-1.7644,-1.79,-1.7711,-1.7515,-1.7674,-1.7582,-1.7562,-1.7508,-1.7482,-1.7522,-1.7575,-1.7589,-1.7589,-1.7589,-1.7589,-1.7589,-1.7589,-1.7589,-1.7589,-1.7589,-1.7589,-1.7589,-1.7589,-1.7589,-1.7589,-1.7589,-1.7589,-1.7589,-1.7589,-1.7589,-1.7549,-1.7442,-1.7408,-1.7422,-0.9198,0.0,-0.9812,-0.9812,0.0,-0.9815,-0.9889,-0.9929,-0.8489,-0.7934,-0.8046,-0.8845,-0.886,-0.8565,-0.9059,-0.9314,-0.935,-0.935,-0.9464,-0.9798,-0.9794,-1.0017,-1.0464,-1.0998,-1.1487,-1.1939,-1.2478,-1.2753,-1.2748,-1.2748,-1.2696,-1.2602,-1.2602,-1.255,-1.2441,-1.2436,-1.2233,-1.1822,-1.1817,-1.1614,-1.1231,-1.1505,-1.1713,-1.1817,-1.2016,0.0,0.0,0.0,0.0,0.0,0.0,0.0,0.0,-1.1557,0.0,-1.1203,-1.109,-1.108,-1.1179,-1.1673,-1.2251,-1.2592,-1.3762,-1.4593,-1.4702,-1.6513,-1.7654,-1.7917,-1.8484,-1.868,-1.8586,-1.8491,-1.8288,-1.8171,-1.8069,-1.803,-1.8163,-1.8095,-1.8151,-1.8276,-1.8108,-1.8115,-1.8443,-1.8016,-1.7905,-1.8003,-1.7793,-1.7589,-1.7589,-1.7589,-1.7589,-1.7589,-1.7589,-1.7589,-1.7589,-1.7589,-1.7589,-1.7589,-1.7589,-1.7589,-1.7589,-1.7589,-1.7589,-1.7589,-1.7589,-1.7589,-1.7589,-1.7589,-1.7589,-1.7589,-1.7589,-1.7589,-1.7589,-1.7589,-1.7589,-1.0789,-1.1776,-1.1776,-1.1776,-1.1897,-1.1893,-1.201,-1.2113,0.0,0.0,0.0,-0.9806,-1.0018,-0.9898,-1.033,-1.0467,-1.0331,-1.0437,-1.0331,-1.0327,-1.0441,-1.0773,-1.1457,-1.16,-1.2131,-1.2828,-1.2989,-1.3065,-1.3065,-1.3065,-1.2984,-1.2833,-1.2786,-1.2658,-1.2455,-1.2436,-1.2252,-1.1893,-1.1836,-1.1619,-1.1222,-1.1605,-1.1817,-1.1817,-1.2186,-1.2309,-1.2148,-1.2032,-1.2058,-1.1888,-1.1912,-1.1912,-1.1879,-1.2077,-1.2161,-1.2127,-1.2324,-1.2442,-1.2486,-1.3307,-1.392,-1.4157,-1.6268,-1.716,-1.6179,-1.7105,-1.8142,-1.9257,-1.9272,-1.9168,-1.8974,-1.8974,-1.8862,-1.8639,-1.8534,-1.852,-1.8527,-1.8534,-1.8527,-1.8429,-1.8429,-1.8429,-1.8653,-1.8227,-1.8016,-1.8108,-1.7891,-1.7589,-1.7589,-1.7589,-1.7589,-1.7589,-1.7589,-1.7589,-1.7589,-1.7589,-1.7589,-1.7589,-1.7589,-1.7589,-1.7589,-1.7589,-1.7589,-1.7589,-1.7589,-1.7589,-1.7589,-1.7589,-1.7589,-1.7589,-1.7589,-1.7589,-1.7589,-1.7589,-1.7589,-1.1651,-1.1776,-1.1776,-1.1889,-1.2118,-1.2118,-1.2359,-1.2599,-1.2475,-1.2093,-1.1699,-1.2242,-1.2381,-1.2346,-1.2294,-1.2434,-1.2634,-1.2634,-1.2629,-1.2634,-1.2634,-1.2634,-1.2866,-1.2894,-1.2908,-1.3027,-1.3055,-1.3065,-1.3065,-1.3069,-1.3051,-1.3008,-1.2852,-1.2663,-1.2455,-1.2436,-1.2323,-1.2101,-1.1912,-1.1619,-1.1217,-1.1605,-1.1817,-1.1827,-1.2058,-1.2172,-1.2143,-1.2143,-1.2129,-1.2101,-1.2257,-1.2271,-1.2106,-1.2916,-1.345,-1.3367,-1.4157,-1.4753,-1.4982,-1.5104,-1.5321,-1.5671,-1.6804,-1.7877,-1.8679,-1.8887,-1.9124,-1.9272,-1.9272,-1.9272,-1.9279,-1.9175,-1.9168,-1.9168,-1.9168,-1.9168,-1.9168,-1.8988,-1.8883,-1.8891,-1.8338,-1.8149,-1.8282,-1.7945,-1.7853,-1.782,-1.7887,-1.7615,-1.7642,-1.7589,-1.7589,-1.7589,-1.7589,-1.7589,-1.7615,-1.7589,-1.7622,-1.7589,-1.7615,-1.7622,-1.7622,-1.7602,-1.7589,-1.7589,-1.7589,-1.7589,-1.7589,-1.7589,-1.7589,-1.7589,-1.7589,-1.7589,-1.7589,-1.7589,-1.7589,-1.1893,-1.2005,-1.2005,-1.2242,-1.2479,-1.2599,-1.2719,-1.2719,-1.3209,-1.3204,-1.2835,-1.3108,-1.3254,-1.3152,-1.3049,-1.3058,-1.3065,-1.3065,-1.3065,-1.3065,-1.3065,-1.3065,-1.3079,-1.3183,-1.3244,-1.3249,-1.3353,-1.3405,-1.3405,-1.3405,-1.3348,-1.324,-1.3032,-1.2876,-1.2781,-1.2673,-1.2512,-1.2304,-1.2096,-1.1846,-1.1548,-1.1831,-1.1992,-1.1997,-1.2195,-1.2299,-1.2299,-1.2299,-1.2304,-1.2299,-1.2389,-1.2394,-1.2309,-1.2724,-1.3311,-1.3846,-1.4356,-1.4926,-1.5674,-1.6317,-1.701,-1.766,-1.8206,-1.875,-1.9272,-1.9272,-1.9272,-1.9272,-1.9272,-1.9272,-1.9272,-1.9272,-1.9272,-1.9272,-1.9272,-1.9272,-1.9301,-1.935,-1.9437,-1.9346,-1.927,-1.9148,-1.9155,-1.8926,-1.8805,-1.8805,-1.8704,-1.8488,-1.8273,-1.8279,-1.8158,-1.7761,-1.7589,-1.7669,-1.7796,-1.7822,-1.7889,-1.8036,-1.7936,-1.7849,-1.7816,-1.7722,-1.7595,-1.7589,-1.7589,-1.7589,-1.7589,-1.7589,-1.7589,-1.7589,-1.7589,-1.7589,-1.7589,-1.7589,-1.7589,-1.2005,-1.2238,-1.2234,-1.2479,-1.2844,-1.3204,-1.3204,-1.2964,-1.3444,-1.3569,-1.3324,-1.3569,-1.3603,-1.3466,-1.3457,-1.3367,-1.3225,-1.3206,-1.3211,-1.3206,-1.3206,-1.3206,-1.3221,-1.3381,-1.3457,-1.3471,-1.3618,-1.3688,-1.3688,-1.3688,-1.3584,-1.3391,-1.3221,-1.3117,-1.3065,-1.2913,-1.2729,-1.2517,-1.2356,-1.2134,-1.1836,-1.203,-1.2032,-1.2153,-1.2332,-1.2436,-1.2436,-1.2484,-1.2621,-1.2835,-1.2988,-1.3098,-1.3267,-1.3474,-1.4099,-1.4922,-1.5232,-1.5731,-1.6523,-1.7437,-1.8325,-1.9175,-1.9418,-1.9491,-1.9491,-1.9491,-1.9418,-1.9308,-1.9272,-1.9301,-1.9381,-1.9396,-1.9411,-1.9477,-1.9491,-1.9528,-1.952,-1.9718,-1.9872,-1.9901,-1.9975,-1.9997,-2.0012,-1.9683,-1.9428,-1.9311,-1.9353,-1.9133,-1.8919,-1.8809,-1.8482,-1.807,-1.7789,-1.7889,-1.811,-1.8136,-1.8217,-1.8464,-1.8223,-1.8056,-1.7976,-1.7782,-1.7609,-1.7589,-1.7589,-1.7589,-1.7589,-1.7589,-1.7589,-1.7589,-1.7589,-1.7589,-1.7589,-1.7589,-1.7589,-1.2242,-1.2238,-1.2492,-1.284,-1.3213,-1.3449,-1.3569,-1.3569,-1.3688,-1.3688,-1.3688,-1.3688,-1.3679,-1.3665,-1.3655,-1.3636,-1.3613,-1.3627,-1.3618,-1.3618,-1.3632,-1.3627,-1.3608,-1.3646,-1.3665,-1.3655,-1.3679,-1.3688,-1.3688,-1.3688,-1.3594,-1.341,-1.3367,-1.3263,-1.3098,-1.3055,-1.2942,-1.2743,-1.272,-1.2422,-1.1869,-1.203,-1.2032,-1.2143,-1.2342,-1.2436,-1.2469,-1.263,-1.3285,-1.4277,-1.4564,-1.5016,-1.5811,-1.6857,-1.7401,-1.7292,-1.8213,-1.8726,-1.8585,-1.8897,-1.9182,-1.9323,-1.9813,-2.0113,-2.0113,-2.0128,-1.9886,-1.9462,-1.9294,-1.944,-1.9667,-1.9718,-1.9813,-2.0033,-2.0084,-2.0142,-2.0113,-2.0172,-2.0194,-2.0194,-1.9931,-1.9477,-1.9644,-1.9216,-1.8863,-1.8911,-1.8925,-1.8925,-1.8695,-1.8695,-1.8682,-1.8444,-1.8404,-1.8404,-1.8457,-1.845,-1.849,-1.8504,-1.8263,-1.815,-1.809,-1.7889,-1.7602,-1.7762,-1.7662,-1.7682,-1.7622,-1.7589,-1.7602,-1.7589,-1.7589,-1.7589,-1.7589,-1.7589,-1.7589,-1.2281,-1.266,-1.2891,-1.3242,-1.363,-1.3745,-1.3688,-1.3688,-1.3688,-1.3688,-1.3688,-1.3688,-1.3688,-1.3688,-1.3688,-1.3688,-1.3688,-1.3688,-1.3688,-1.3688,-1.3688,-1.3688,-1.3688,-1.3688,-1.3688,-1.3688,-1.3688,-1.3688,-1.3688,-1.3688,-1.3646,-1.3575,-1.3566,-1.3518,-1.3429,-1.3315,-1.3154,-1.2947,-1.2828,-1.2578,-1.2261,-1.2398,-1.2564,-1.2682,-1.2772,-1.281,-1.2819,-1.2899,-1.3168,-1.3728,-1.4477,-1.5041,-1.5495,-1.6442,-1.7289,-1.7822,-1.8731,-1.9301,-1.936,-1.9491,-1.9645,-1.9828,-2.0077,-2.0237,-2.0237,-2.0237,-2.0106,-1.9908,-1.9842,-1.9908,-2.0025,-2.0047,-2.0098,-2.0216,-2.0237,-2.0245,-2.0237,-2.0413,-2.0523,-2.0537,-2.0467,-2.0463,-2.0351,-2.0125,-1.9786,-1.9559,-1.9559,-1.9426,-1.9326,-1.9226,-1.9232,-1.9119,-1.9005,-1.8925,-1.8798,-1.8744,-1.8818,-1.8905,-1.8764,-1.8577,-1.8497,-1.8323,-1.813,-1.8103,-1.8076,-1.7996,-1.7889,-1.7842,-1.7822,-1.7695,-1.7589,-1.7589,-1.7589,-1.7589,-1.7589,-1.2679,-1.3239,-1.3492,-1.3692,-1.4,-1.3844,-1.374,-1.3688,-1.3688,-1.3688,-1.3688,-1.3688,-1.3688,-1.3688,-1.3688,-1.3688,-1.3688,-1.3688,-1.3688,-1.3688,-1.3688,-1.3688,-1.3688,-1.3688,-1.3688,-1.3688,-1.3688,-1.3721,-1.3769,-1.3773,-1.3802,-1.3849,-1.3859,-1.3859,-1.3844,-1.3707,-1.3476,-1.3173,-1.3008,-1.2917,-1.3028,-1.3285,-1.3223,-1.3098,-1.3041,-1.3065,-1.3069,-1.3461,-1.3829,-1.4162,-1.5357,-1.6267,-1.6529,-1.706,-1.7718,-1.8304,-1.8969,-1.9374,-1.9623,-1.9791,-1.9989,-2.0216,-2.0377,-2.0508,-2.0501,-2.0508,-2.0508,-2.0501,-2.0501,-2.0479,-2.0377,-2.0369,-2.0406,-2.0479,-2.0508,-2.0501,-2.053,-2.0728,-2.0859,-2.0881,-2.09,-2.0974,-2.0967,-2.0702,-2.0451,-2.0228,-2.0134,-2.004,-1.9815,-1.9679,-1.9564,-1.9488,-1.9359,-1.9272,-1.9085,-1.9045,-1.9172,-1.9199,-1.9078,-1.8878,-1.8898,-1.8671,-1.849,-1.8317,-1.845,-1.8377,-1.8063,-1.7996,-1.7923,-1.7695,-1.7589,-1.7589,-1.7589,-1.7589,-1.7589,-1.3248,-1.3788,-1.4057,-1.4213,-1.4019,-1.4005,-1.3887,-1.3736,-1.3712,-1.3703,-1.3721,-1.3717,-1.3698,-1.3717,-1.3731,-1.3693,-1.3688,-1.3688,-1.3698,-1.3707,-1.3707,-1.3693,-1.3688,-1.3688,-1.3703,-1.3745,-1.375,-1.3825,-1.3991,-1.4,-1.4095,-1.4255,-1.4251,-1.4265,-1.4246,-1.4342,-1.3962,-1.3565,-1.3582,-1.3844,-1.4373,-1.4735,-1.4199,-1.3194,-1.3093,-1.3322,-1.3332,-1.4531,-1.5665,-1.6785,-1.8173,-1.9368,-2.0145,-2.0046,-1.9715,-1.932,-1.9301,-1.9301,-1.944,-1.9908,-2.0245,-2.0333,-2.0794,-2.1137,-2.1072,-2.1072,-2.1072,-2.1137,-2.1079,-2.0984,-2.075,-2.0698,-2.0815,-2.1057,-2.1123,-2.1115,-2.113,-2.1094,-2.1181,-2.1159,-2.0938,-2.073,-2.05,-2.027,-2.0385,-2.027,-2.004,-1.9815,-1.97,-1.9597,-1.9482,-1.9482,-1.9366,-1.9359,-1.9339,-1.9279,-1.9305,-1.9319,-1.9178,-1.8958,-1.8831,-1.8718,-1.8611,-1.8524,-1.8557,-1.845,-1.817,-1.7976,-1.7856,-1.7702,-1.7609,-1.7589,-1.7589,-1.7589,-1.7589,-1.3756,-1.4171,-1.444,-1.4473,-1.4397,-1.4265,-1.4156,-1.4095,-1.4085,-1.409,-1.4085,-1.4085,-1.409,-1.409,-1.4085,-1.3939,-1.3703,-1.3688,-1.3759,-1.3877,-1.3896,-1.3962,-1.4076,-1.4085,-1.409,-1.4085,-1.409,-1.4128,-1.4189,-1.4208,-1.4237,-1.4298,-1.4312,-1.4312,-1.4433,-1.5167,-1.5458,-1.5111,-1.5762,-1.62,-1.6238,-1.6284,-1.6051,-1.5654,-1.5764,-1.5892,-1.5892,-1.6332,-1.6838,-1.7292,-1.8571,-1.9394,-1.9725,-2.0072,-2.015,-1.9908,-1.9703,-1.9769,-2.0157,-2.0413,-2.0647,-2.0852,-2.1064,-2.1211,-2.1211,-2.1211,-2.1211,-2.1211,-2.1211,-2.113,-2.1079,-2.1028,-2.1072,-2.1174,-2.1211,-2.1211,-2.1211,-2.1211,-2.1211,-2.1211,-2.1089,-2.096,-2.0608,-2.0608,-2.0378,-2.0046,-1.9931,-1.9815,-1.9591,-1.9482,-1.9366,-1.9366,-1.9366,-1.9366,-1.9366,-1.9359,-1.9359,-1.9352,-1.9272,-1.9225,-1.9132,-1.9098,-1.9018,-1.8945,-1.8885,-1.8664,-1.8417,-1.7976,-1.7842,-1.7722,-1.7629,-1.7589,-1.7589,-1.7629,-1.7615,-1.4285,-1.4507,-1.4655,-1.469,-1.4619,-1.4477,-1.4374,-1.4317,-1.4312,-1.4312,-1.4312,-1.4312,-1.4312,-1.4312,-1.4312,-1.417,-1.3906,-1.3892,-1.3967,-1.4099,-1.4109,-1.4185,-1.4288,-1.4312,-1.4312,-1.4312,-1.4312,-1.4461,-1.5026,-1.5031,-1.5317,-1.5887,-1.5882,-1.5756,-1.6008,-1.6751,-1.7095,-1.704,-1.7542,-1.7892,-1.793,-1.8071,-1.8173,-1.8378,-1.8603,-1.8238,-1.7455,-1.7793,-1.8033,-1.815,-1.921,-1.9869,-1.9853,-2.0172,-2.034,-2.0237,-2.0142,-2.0245,-2.0655,-2.0815,-2.0976,-2.1174,-2.1211,-2.1211,-2.1211,-2.1211,-2.1211,-2.1211,-2.1211,-2.1211,-2.1211,-2.1203,-2.1211,-2.1211,-2.1211,-2.1211,-2.1211,-2.1211,-2.1211,-2.1211,-2.1211,-2.1081,-2.096,-2.0838,-2.073,-2.0277,-2.0162,-2.004,-1.9815,-1.9591,-1.9475,-1.9475,-1.9482,-1.9482,-1.9366,-1.9366,-1.9366,-1.9359,-1.9352,-1.9359,-1.9366,-1.9366,-1.9359,-1.9325,-1.9178,-1.8945,-1.8577,-1.8103,-1.7869,-1.7756,-1.7635,-1.7589,-1.7629,-1.7695,-1.7749,-1.4931,-1.4931,-1.4931,-1.4813,-1.4671,-1.4638,-1.4515,-1.4383,-1.4355,-1.4378,-1.4397,-1.435,-1.4383,-1.435,-1.4392,-1.4331,-1.4322,-1.4312,-1.4312,-1.4317,-1.4317,-1.4331,-1.4369,-1.4378,-1.4383,-1.4378,-1.434,-1.5187,-1.6503,-1.6514,-1.7114,-1.8581,-1.8581,-1.8424,-1.8884,-1.8812,-1.874,-1.8619,-1.8722,-1.8943,-1.9439,-1.9841,-2.0206,-2.0953,-2.1285,-2.022,-1.7713,-1.8745,-1.9325,-1.9441,-2.0392,-2.0943,-2.0619,-2.0601,-2.0574,-2.0406,-2.0537,-2.0691,-2.0772,-2.1013,-2.1159,-2.1211,-2.1211,-2.1211,-2.1211,-2.1211,-2.1211,-2.1211,-2.1211,-2.1211,-2.1211,-2.1211,-2.1211,-2.1211,-2.1211,-2.1211,-2.1211,-2.1211,-2.1211,-2.1211,-2.1211,-2.1211,-2.1211,-2.1203,-2.1089,-2.0967,-2.073,-2.0486,-2.0378,-2.0046,-1.9815,-1.97,-1.9591,-1.9366,-1.9366,-1.9366,-1.9366,-1.9366,-1.9366,-1.9366,-1.9366,-1.9366,-1.9366,-1.9339,-1.9225,-1.8991,-1.8704,-1.8277,-1.8143,-1.8009,-1.7822,-1.7736,-1.7836,-1.7956,-1.8016,-1.4936,-1.4936,-1.4936,-1.4898,-1.4841,-1.4841,-1.4794,-1.4742,-1.4737,-1.4737,-1.4737,-1.4737,-1.4737,-1.4737,-1.4737,-1.4733,-1.4737,-1.4737,-1.4666,-1.4553,-1.4534,-1.4605,-1.4709,-1.4733,-1.4737,-1.4737,-1.4742,-1.553,-1.6722,-1.6995,-1.768,-1.8768,-1.9036,-1.9036,-1.9164,-1.9922,-2.032,-2.0309,-2.0965,-2.1369,-2.1555,-2.1582,-2.1608,-2.1884,-2.1774,-2.1167,-2.0468,-2.0498,-2.0622,-2.0615,-2.0974,-2.1159,-2.1042,-2.0845,-2.0786,-2.0881,-2.0772,-2.0837,-2.1035,-2.1137,-2.1211,-2.1211,-2.1211,-2.1211,-2.1211,-2.1211,-2.1211,-2.1211,-2.1211,-2.1211,-2.1211,-2.1211,-2.1211,-2.1211,-2.1211,-2.1211,-2.1211,-2.1218,-2.1211,-2.1211,-2.1211,-2.1211,-2.1218,-2.1233,-2.1147,-2.101,-2.0881,-2.0766,-2.0522,-2.0224,-1.9815,-1.9815,-1.9591,-1.9495,-1.9482,-1.9482,-1.9366,-1.9366,-1.9366,-1.9366,-1.9366,-1.9366,-1.9366,-1.9332,-1.9219,-1.9058,-1.8764,-1.8551,-1.8404,-1.8337,-1.8237,-1.8203,-1.821,-1.8257,-1.8323,-1.4936,-1.4936,-1.4936,-1.4936,-1.4936,-1.4936,-1.4936,-1.4936,-1.4936,-1.4936,-1.4931,-1.4931,-1.4936,-1.4936,-1.4936,-1.4936,-1.4936,-1.4936,-1.4865,-1.4761,-1.4747,-1.4822,-1.4926,-1.4936,-1.4936,-1.5062,-1.5443,-1.6343,-1.7748,-1.8262,-1.9158,-2.0309,-2.0563,-2.0563,-2.0563,-2.1328,-2.1839,-2.1937,-2.2405,-2.2806,-2.2762,-2.2623,-2.2476,-2.2337,-2.2147,-2.1928,-2.1723,-2.1496,-2.1328,-2.124,-2.1211,-2.1211,-2.1189,-2.102,-2.0998,-2.1108,-2.105,-2.1006,-2.1181,-2.1196,-2.1211,-2.1211,-2.1211,-2.1211,-2.1211,-2.1211,-2.1211,-2.1211,-2.1211,-2.1211,-2.1211,-2.1211,-2.1211,-2.1211,-2.1211,-2.1211,-2.1225,-2.132,-2.1386,-2.143,-2.1511,-2.1554,-2.1576,-2.1569,-2.1445,-2.1314,-2.1314,-2.1198,-2.0971,-2.0751,-2.0571,-2.0268,-2.0021,-1.9863,-1.9618,-1.9482,-1.9366,-1.9366,-1.9366,-1.9366,-1.9366,-1.9366,-1.9366,-1.9352,-1.9279,-1.9252,-1.9005,-1.8804,-1.8644,-1.8624,-1.8591,-1.845,-1.8384,-1.8557,-1.8631,-1.4936,-1.4936,-1.4936,-1.4936,-1.4936,-1.4936,-1.4936,-1.4936,-1.4936,-1.4936,-1.4936,-1.4936,-1.4936,-1.4936,-1.4936,-1.4936,-1.4936,-1.4936,-1.4926,-1.4912,-1.4907,-1.4922,-1.4931,-1.5187,-1.5318,-1.5448,-1.6467,-1.7753,-1.9158,-2.0182,-2.1713,-2.2598,-2.2724,-2.2981,-2.2724,-2.2981,-2.2981,-2.2973,-2.3084,-2.3069,-2.3076,-2.3069,-2.2945,-2.2659,-2.2571,-2.2323,-2.192,-2.1723,-2.1518,-2.1262,-2.1211,-2.1211,-2.1211,-2.1211,-2.1189,-2.1211,-2.1203,-2.1181,-2.1203,-2.1211,-2.1211,-2.1211,-2.1211,-2.1211,-2.1211,-2.1211,-2.1211,-2.1211,-2.1211,-2.1211,-2.1211,-2.1211,-2.1211,-2.1211,-2.1211,-2.1211,-2.1233,-2.1481,-2.162,-2.1708,-2.1957,-2.2162,-2.2081,-2.2089,-2.2096,-2.2096,-2.2074,-2.1926,-2.1926,-2.1608,-2.1475,-2.113,-2.0621,-2.0241,-1.9883,-1.9604,-1.9488,-1.9366,-1.9366,-1.9366,-1.9366,-1.9366,-1.9366,-1.9352,-1.9345,-1.9332,-1.9265,-1.9052,-1.8951,-1.8945,-1.8818,-1.8597,-1.8644,-1.8851,-1.8858,-1.4936,-1.4936,-1.4936,-1.4936,-1.4936,-1.4936,-1.4936,-1.4936,-1.4936,-1.4936,-1.4936,-1.4936,-1.4936,-1.4936,-1.4936,-1.4936,-1.4936,-1.4936,-1.4936,-1.4936,-1.4936,-1.4936,-1.5187,-1.5954,-1.6467,-1.6597,-1.7882,-1.9158,-2.0436,-2.0949,-2.1839,-2.3106,-2.3106,-2.3106,-2.3106,-2.3106,-2.3106,-2.3106,-2.3106,-2.3106,-2.3106,-2.3106,-2.3069,-2.2981,-2.2754,-2.2557,-2.233,-2.1928,-2.1547,-2.1247,-2.1211,-2.1211,-2.1211,-2.1211,-2.1211,-2.1211,-2.1211,-2.1211,-2.1211,-2.1211,-2.1211,-2.1211,-2.1211,-2.1211,-2.1211,-2.1211,-2.1211,-2.1211,-2.1211,-2.1211,-2.1211,-2.1225,-2.1218,-2.1211,-2.1269,-2.1247,-2.1262,-2.1489,-2.1701,-2.1737,-2.2008,-2.2198,-2.2242,-2.2242,-2.2242,-2.2235,-2.2242,-2.225,-2.218,-2.2031,-2.186,-2.1553,-2.1033,-2.0642,-2.0247,-1.9939,-1.9604,-1.9482,-1.9366,-1.9366,-1.9366,-1.9366,-1.9366,-1.9366,-1.9359,-1.9345,-1.9352,-1.9252,-1.9245,-1.9192,-1.9138,-1.8991,-1.9078,-1.9225,-1.9085,-1.4936,-1.4936,-1.4936,-1.4936,-1.4936,-1.4936,-1.4936,-1.4936,-1.4936,-1.4936,-1.4936,-1.4936,-1.4936,-1.4936,-1.4936,-1.4936,-1.4936,-1.4936,-1.4936,-1.5062,-1.5574,-1.5829,-1.6084,-1.6726,-1.7238,-1.8005,-1.9291,-2.0182,-2.1076,-2.1587,-2.2348,-2.2981,-2.3106,-2.3106,-2.3106,-2.3106,-2.3106,-2.3106,-2.3106,-2.3106,-2.3106,-2.3106,-2.3106,-2.3076,-2.2908,-2.2784,-2.2586,-2.2154,-2.1752,-2.1467,-2.1291,-2.1211,-2.1211,-2.1211,-2.1211,-2.1211,-2.1211,-2.1211,-2.1211,-2.1211,-2.1211,-2.1211,-2.1211,-2.1211,-2.1211,-2.1211,-2.1211,-2.1211,-2.1211,-2.1211,-2.1233,-2.1328,-2.1474,-2.162,-2.162,-2.1503,-2.1269,-2.1628,-2.1862,-2.2001,-2.2271,-2.2571,-2.2571,-2.2564,-2.2571,-2.2593,-2.2637,-2.263,-2.2623,-2.2428,-2.2197,-2.1903,-2.1561,-2.1145,-2.0545,-2.0206,-1.9836,-1.9597,-1.9366,-1.9366,-1.9366,-1.9366,-1.9366,-1.9366,-1.9366,-1.9366,-1.9366,-1.9366,-1.9339,-1.9312,-1.9359,-1.9366,-1.9366,-1.9366,-1.9239,-1.4936,-1.4936,-1.4936,-1.4936,-1.4936,-1.4936,-1.4936,-1.4936,-1.4936,-1.4936,-1.4936,-1.4936,-1.4936,-1.4936,-1.4936,-1.4936,-1.4936,-1.4936,-1.5062,-1.5574,-1.6467,-1.7361,-1.7748,-1.7876,-1.839,-1.9285,-2.0696,-2.1202,-2.1706,-2.2598,-2.2981,-2.3106,-2.3106,-2.3106,-2.3106,-2.3106,-2.3106,-2.3106,-2.3106,-2.3106,-2.3106,-2.3106,-2.3106,-2.3098,-2.3084,-2.2945,-2.2703,-2.2389,-2.2096,-2.1818,-2.1489,-2.1364,-2.132,-2.1269,-2.1233,-2.1218,-2.1211,-2.1211,-2.1211,-2.1211,-2.1211,-2.1211,-2.1211,-2.124,-2.1269,-2.1262,-2.1262,-2.143,-2.1291,-2.1335,-2.143,-2.1606,-2.1818,-2.2015,-2.2118,-2.1876,-2.1584,-2.1825,-2.2191,-2.225,-2.274,-2.2988,-2.3106,-2.3106,-2.3076,-2.2857,-2.2901,-2.2886,-2.2886,-2.2741,-2.2595,-2.2413,-2.2038,-2.1525,-2.0996,-2.0466,-2.0123,-1.9815,-1.9482,-1.9366,-1.9366,-1.9366,-1.9366,-1.9366,-1.9366,-1.9366,-1.9366,-1.9366,-1.9366,-1.9366,-1.9366,-1.9366,-1.9366,-1.9366,-1.9292,-1.4936,-1.4936,-1.4936,-1.4936,-1.4936,-1.4936,-1.4936,-1.4936,-1.4936,-1.4936,-1.4936,-1.4936,-1.4936,-1.4936,-1.4936,-1.4936,-1.5062,-1.5192,-1.5448,-1.6726,-1.7882,-1.9158,-1.9922,-2.0049,-2.0309,-2.0949,-2.1964,-2.2598,-2.2724,-2.2849,-2.3106,-2.3106,-2.3106,-2.3106,-2.3106,-2.3106,-2.3106,-2.3106,-2.3106,-2.3106,-2.3106,-2.3106,-2.3106,-2.3106,-2.3106,-2.3076,-2.2967,-2.2696,-2.2506,-2.2374,-2.214,-2.1869,-2.1628,-2.1562,-2.1467,-2.1298,-2.1233,-2.1225,-2.1225,-2.1262,-2.1225,-2.1276,-2.1306,-2.132,-2.1554,-2.1372,-2.1511,-2.1767,-2.1759,-2.1701,-2.1906,-2.2023,-2.214,-2.2228,-2.225,-2.2176,-2.203,-2.2096,-2.2286,-2.2484,-2.2652,-2.2828,-2.3069,-2.3106,-2.3106,-2.3106,-2.3106,-2.3106,-2.3084,-2.3062,-2.2842,-2.2571,-2.2144,-2.1712,-2.1253,-2.0727,-2.0224,-1.9931,-1.9591,-1.9366,-1.9366,-1.9366,-1.9366,-1.9366,-1.9366,-1.9366,-1.9366,-1.9366,-1.9366,-1.9366,-1.9366,-1.9366,-1.9366,-1.9366,-1.9345,-1.4936,-1.4936,-1.4936,-1.4936,-1.4936,-1.4936,-1.4936,-1.4936,-1.4936,-1.4936,-1.4936,-1.4936,-1.4936,-1.4936,-1.4931,-1.5187,-1.5959,-1.6597,-1.7625,-1.8774,-1.9801,-2.0696,-2.1832,-2.209,-2.209,-2.2223,-2.2731,-2.3106,-2.3106,-2.3106,-2.3106,-2.3106,-2.3106,-2.3106,-2.3106,-2.3106,-2.3106,-2.3106,-2.3106,-2.3106,-2.3106,-2.3106,-2.3106,-2.3106,-2.3106,-2.3106,-2.3069,-2.2952,-2.2864,-2.2806,-2.2681,-2.2315,-2.1811,-2.1701,-2.1598,-2.1481,-2.1437,-2.1533,-2.1613,-2.1664,-2.1686,-2.1657,-2.1657,-2.1759,-2.1862,-2.1745,-2.1818,-2.2052,-2.2059,-2.2045,-2.2337,-2.2389,-2.2432,-2.2593,-2.2615,-2.2608,-2.2586,-2.2491,-2.2432,-2.2623,-2.2769,-2.2923,-2.3047,-2.3076,-2.3098,-2.3098,-2.3098,-2.3084,-2.2835,-2.2791,-2.2652,-2.2403,-2.2118,-2.1744,-2.1445,-2.0988,-2.0428,-2.004,-1.97,-1.9597,-1.9488,-1.9366,-1.9366,-1.9366,-1.9366,-1.9366,-1.9366,-1.9366,-1.9366,-1.9366,-1.9366,-1.9366,-1.9366,-1.9366,-1.9345,-1.4936,-1.4936,-1.4936,-1.4936,-1.4936,-1.4936,-1.4936,-1.4936,-1.4936,-1.4936,-1.4931,-1.5057,-1.5443,-1.5318,-1.5704,-1.6343,-1.7367,-1.8646,-1.9795,-2.0563,-2.1202,-2.1964,-2.2724,-2.2856,-2.2856,-2.3106,-2.3106,-2.3106,-2.3106,-2.3106,-2.3106,-2.3106,-2.3106,-2.3106,-2.3106,-2.3106,-2.3106,-2.3106,-2.3106,-2.3106,-2.3106,-2.3106,-2.3106,-2.3106,-2.3106,-2.3106,-2.3106,-2.3076,-2.3084,-2.3106,-2.3106,-2.2645,-2.2103,-2.184,-2.1789,-2.1789,-2.1767,-2.1862,-2.2015,-2.2103,-2.2118,-2.2184,-2.2162,-2.2198,-2.222,-2.2176,-2.222,-2.2315,-2.2381,-2.2454,-2.2659,-2.2696,-2.2828,-2.2988,-2.3084,-2.3106,-2.3062,-2.2857,-2.2747,-2.2732,-2.2725,-2.2747,-2.2937,-2.304,-2.3069,-2.3091,-2.3091,-2.301,-2.2762,-2.2564,-2.2447,-2.2228,-2.1942,-2.1693,-2.1387,-2.0959,-2.0406,-2.0155,-1.9931,-1.9707,-1.9597,-1.9707,-1.9707,-1.9482,-1.9488,-1.9482,-1.9482,-1.9482,-1.9482,-1.9482,-1.9366,-1.9366,-1.9366,-1.9366,-1.9345,-1.4936,-1.4936,-1.4936,-1.4936,-1.4936,-1.4936,-1.4936,-1.4936,-1.4936,-1.4936,-1.5057,-1.6084,-1.6597,-1.6856,-1.7882,-1.8396,-1.8908,-2.0055,-2.0949,-2.1461,-2.209,-2.2856,-2.2981,-2.3106,-2.3106,-2.3106,-2.3106,-2.3106,-2.3106,-2.3106,-2.3106,-2.3106,-2.3106,-2.3106,-2.3106,-2.3106,-2.3106,-2.3106,-2.3106,-2.3106,-2.3106,-2.3106,-2.3106,-2.3106,-2.3106,-2.3106,-2.3106,-2.3106,-2.3106,-2.3106,-2.3106,-2.2871,-2.255,-2.244,-2.2323,-2.2147,-2.2096,-2.2162,-2.2264,-2.2235,-2.2198,-2.2184,-2.2242,-2.2359,-2.2432,-2.2389,-2.2491,-2.2754,-2.2879,-2.2952,-2.3018,-2.2981,-2.3018,-2.3098,-2.3106,-2.3106,-2.3091,-2.304,-2.2981,-2.2959,-2.274,-2.2586,-2.2857,-2.3025,-2.3025,-2.3069,-2.3098,-2.2952,-2.2703,-2.2506,-2.2352,-2.2074,-2.1759,-2.1533,-2.1313,-2.0816,-2.0385,-2.027,-2.004,-1.9924,-1.9931,-2.004,-2.0046,-1.9822,-1.9597,-1.9707,-1.9707,-1.9707,-1.9591,-1.9482,-1.9482,-1.9366,-1.9366,-1.9366,-1.9366,-1.4936,-1.4936,-1.4936,-1.4936,-1.4936,-1.4936,-1.4936,-1.4936,-1.4936,-1.4936,-1.5318,-1.6343,-1.698,-1.7361,-1.839,-1.9291,-2.0309,-2.1461,-2.2097,-2.2348,-2.2849,-2.3106,-2.3106,-2.3106,-2.3106,-2.3106,-2.3106,-2.3106,-2.3106,-2.3106,-2.3106,-2.3106,-2.3106,-2.3106,-2.3106,-2.3106,-2.3106,-2.3106,-2.3106,-2.3106,-2.3106,-2.3106,-2.3106,-2.3106,-2.3106,-2.3106,-2.3106,-2.3106,-2.3106,-2.3106,-2.3106,-2.3018,-2.2923,-2.2835,-2.2725,-2.2476,-2.241,-2.2498,-2.2615,-2.2667,-2.2681,-2.2674,-2.2652,-2.2718,-2.2798,-2.2791,-2.2791,-2.2988,-2.3106,-2.3106,-2.3098,-2.3106,-2.3106,-2.3106,-2.3106,-2.3106,-2.3106,-2.3106,-2.3106,-2.3106,-2.2967,-2.2879,-2.2959,-2.3054,-2.301,-2.3032,-2.3091,-2.2908,-2.2659,-2.2484,-2.2315,-2.1928,-2.162,-2.1423,-2.1254,-2.0881,-2.05,-2.0385,-2.0385,-2.0155,-2.0155,-2.027,-2.027,-2.0046,-1.9931,-2.0046,-1.9931,-1.9931,-1.9822,-1.9591,-1.9482,-1.9482,-1.9366,-1.9366,-1.9366,-1.4936,-1.4936,-1.4936,-1.4936,-1.4936,-1.4936,-1.5057,-1.5318,-1.5318,-1.5578,-1.5959,-1.7232,-1.8005,-1.8262,-1.9285,-2.0563,-2.158,-2.2724,-2.2981,-2.2981,-2.3106,-2.3106,-2.3106,-2.3106,-2.3106,-2.3106,-2.3106,-2.3106,-2.3106,-2.3106,-2.3106,-2.3106,-2.3106,-2.3106,-2.3106,-2.3106,-2.3106,-2.3106,-2.3106,-2.3106,-2.3106,-2.3106,-2.3106,-2.3106,-2.3106,-2.3106,-2.3106,-2.3106,-2.3106,-2.3106,-2.3106,-2.3098,-2.3106,-2.3106,-2.2981,-2.2776,-2.2725,-2.2879,-2.2996,-2.3069,-2.301,-2.2996,-2.3076,-2.3091,-2.3084,-2.3032,-2.3069,-2.3106,-2.3106,-2.3106,-2.3106,-2.3106,-2.3106,-2.3106,-2.3106,-2.3106,-2.3106,-2.3106,-2.3106,-2.3106,-2.3106,-2.3106,-2.3098,-2.2952,-2.2879,-2.304,-2.3106,-2.2923,-2.2689,-2.252,-2.2279,-2.1825,-2.1503,-2.1328,-2.1218,-2.1103,-2.073,-2.0608,-2.0493,-2.0493,-2.05,-2.05,-2.0392,-2.0392,-2.0515,-2.0515,-2.0392,-2.0162,-1.9931,-1.9707,-1.9591,-1.9475,-1.9366,-1.9366,-1.9366,-1.4936,-1.4936,-1.4936,-1.4936,-1.4931,-1.5062,-1.5704,-1.6726,-1.6721,-1.7496,-1.8267,-1.9795,-2.0436,-2.0823,-2.1839,-2.2598,-2.2856,-2.2981,-2.3106,-2.3106,-2.3106,-2.3106,-2.3106,-2.3106,-2.3106,-2.3106,-2.3106,-2.3106,-2.3106,-2.3106,-2.3106,-2.3106,-2.3106,-2.3106,-2.3106,-2.3106,-2.3106,-2.3106,-2.3106,-2.3106,-2.3106,-2.3106,-2.3106,-2.3106,-2.3106,-2.3106,-2.3106,-2.3106,-2.3106,-2.3106,-2.3106,-2.3106,-2.3106,-2.3106,-2.3098,-2.3062,-2.3054,-2.3069,-2.3098,-2.3106,-2.3106,-2.3106,-2.3106,-2.3106,-2.3106,-2.3106,-2.3106,-2.3106,-2.3106,-2.3106,-2.3106,-2.3106,-2.3106,-2.3106,-2.3106,-2.3106,-2.3106,-2.3106,-2.3106,-2.3106,-2.3106,-2.3106,-2.3106,-2.2908,-2.2762,-2.2959,-2.3069,-2.2901,-2.271,-2.2535,-2.225,-2.1796,-2.1452,-2.1262,-2.1203,-2.1089,-2.0967,-2.0723,-2.0723,-2.0723,-2.073,-2.0737,-2.0974,-2.0974,-2.0974,-2.0859,-2.063,-2.0392,-2.0162,-1.9931,-1.9707,-1.9591,-1.9366,-1.9366,-1.9366,-1.6343,-1.4931,-1.5694,-1.6084,-1.6213,-1.685,-1.7496,-1.8011,-1.8133,-1.8396,-1.9164,-2.0436,-2.1461,-2.2215,-2.2981,-2.3106,-2.3106,-2.3106,-2.3106,-2.3106,-2.3106,-2.3106,-2.3106,-2.3106,-2.3106,-2.3106,-2.3106,-2.3106,-2.3106,-2.3106,-2.3106,-2.3106,-2.3106,-2.3106,-2.3106,-2.3106,-2.3106,-2.3106,-2.3106,-2.3106,-2.3106,-2.3106,-2.3106,-2.3106,-2.3106,-2.3106,-2.3106,-2.3106,-2.3106,-2.3106,-2.3106,-2.3106,-2.3106,-2.3106,-2.3106,-2.3106,-2.3098,-2.3098,-2.3106,-2.3106,-2.3106,-2.3106,-2.3106,-2.3106,-2.3106,-2.3106,-2.3106,-2.3106,-2.3106,-2.3106,-2.3106,-2.3106,-2.3106,-2.3106,-2.3106,-2.3106,-2.3106,-2.3106,-2.3106,-2.3106,-2.3106,-2.3106,-2.3106,-2.3018,-2.2901,-2.2996,-2.3106,-2.3025,-2.2784,-2.252,-2.2184,-2.1774,-2.1467,-2.1218,-2.1203,-2.1089,-2.1089,-2.0967,-2.0967,-2.0967,-2.1089,-2.1089,-2.1211,-2.1211,-2.1096,-2.0974,-2.0744,-2.0622,-2.0385,-2.0155,-1.9931,-1.9707,-1.9597,-1.9366,-1.9366,-1.7759,-1.6089,-1.7109,-1.749,-1.7619,-1.8652,-1.9164,-1.9546,-1.9546,-1.9674,-2.0182,-2.1202,-2.2223,-2.2856,-2.3106,-2.3106,-2.3106,-2.3106,-2.3106,-2.3106,-2.3106,-2.3106,-2.3106,-2.3106,-2.3106,-2.3106,-2.3106,-2.3106,-2.3106,-2.3106,-2.3106,-2.3106,-2.3106,-2.3106,-2.3106,-2.3106,-2.3106,-2.3106,-2.3106,-2.3106,-2.3106,-2.3106,-2.3106,-2.3106,-2.3106,-2.3106,-2.3106,-2.3106,-2.3106,-2.3106,-2.3106,-2.3106,-2.3106,-2.3106,-2.3106,-2.3106,-2.3106,-2.3106,-2.3106,-2.3106,-2.3106,-2.3106,-2.3106,-2.3106,-2.3106,-2.3106,-2.3106,-2.3106,-2.3106,-2.3106,-2.3106,-2.3106,-2.3106,-2.3106,-2.3106,-2.3106,-2.3106,-2.3106,-2.3106,-2.3106,-2.3106,-2.3106,-2.3106,-2.3106,-2.3091,-2.3091,-2.3106,-2.3106,-2.2857,-2.2542,-2.2213,-2.1832,-2.1459,-2.1233,-2.1211,-2.1203,-2.1211,-2.1211,-2.1211,-2.1211,-2.1211,-2.1211,-2.1211,-2.1211,-2.1211,-2.1096,-2.0974,-2.0845,-2.0723,-2.0385,-2.0162,-1.9931,-1.9707,-1.9597,-1.9482,-1.8908,-1.878,-1.8774,-1.8902,-1.8914,-1.8908,-1.9801,-2.0949,-2.0949,-2.1587,-2.2341,-2.2856,-2.2856,-2.3113,-2.3106,-2.3106,-2.3106,-2.3106,-2.3106,-2.3106,-2.3106,-2.3106,-2.3106,-2.3106,-2.3106,-2.3106,-2.3106,-2.3106,-2.3106,-2.3106,-2.3106,-2.3106,-2.3106,-2.3106,-2.3106,-2.3106,-2.3106,-2.3106,-2.3106,-2.3106,-2.3106,-2.3106,-2.3106,-2.3106,-2.3106,-2.3106,-2.3106,-2.3106,-2.3106,-2.3106,-2.3106,-2.3106,-2.3106,-2.3106,-2.3106,-2.3106,-2.3106,-2.3106,-2.3106,-2.3106,-2.3106,-2.3106,-2.3106,-2.3106,-2.3106,-2.3106,-2.3106,-2.3106,-2.3106,-2.3106,-2.3106,-2.3106,-2.3106,-2.3106,-2.3106,-2.3106,-2.3106,-2.3106,-2.3106,-2.3106,-2.3106,-2.3106,-2.3106,-2.3106,-2.3106,-2.3106,-2.3091,-2.3091,-2.2857,-2.2557,-2.2286,-2.1935,-2.1496,-2.1269,-2.1218,-2.1211,-2.1211,-2.1211,-2.1211,-2.1211,-2.1211,-2.1211,-2.1211,-2.1211,-2.1211,-2.1211,-2.1211,-2.0967,-2.0845,-2.0615,-2.0385,-2.0162,-1.9931,-1.9815,-1.9591,-2.1345,-2.1175,-2.1175,-2.0909,-2.0309,-2.1195,-2.1839,-2.2223,-2.2348,-2.2598,-2.3106,-2.3106,-2.3106,-2.3106,-2.3106,-2.3106,-2.3106,-2.3106,-2.3106,-2.3106,-2.3106,-2.3106,-2.3106,-2.3106,-2.3106,-2.3106,-2.3106,-2.3106,-2.3106,-2.3106,-2.3106,-2.3106,-2.3106,-2.3106,-2.3106,-2.3106,-2.3106,-2.3106,-2.3106,-2.3106,-2.3106,-2.3106,-2.3106,-2.3106,-2.3106,-2.3106,-2.3106,-2.3106,-2.3106,-2.3106,-2.3106,-2.3106,-2.3106,-2.3106,-2.3106,-2.3106,-2.3106,-2.3106,-2.3106,-2.3106,-2.3106,-2.3106,-2.3106,-2.3106,-2.3106,-2.3106,-2.3106,-2.3106,-2.3106,-2.3106,-2.3106,-2.3106,-2.3106,-2.3106,-2.3106,-2.3106,-2.3106,-2.3106,-2.3106,-2.3106,-2.3106,-2.3106,-2.3106,-2.3106,-2.3106,-2.3106,-2.3091,-2.3025,-2.2784,-2.252,-2.2235,-2.1928,-2.1489,-2.1276,-2.1218,-2.1211,-2.1211,-2.1211,-2.1211,-2.1211,-2.1211,-2.1211,-2.1211,-2.1211,-2.1211,-2.1211,-2.1203,-2.1089,-2.0967,-2.0852,-2.0615,-2.0385,-2.0155,-1.9931,-1.9931,-2.2754,-2.2615,-2.2528,-2.2126,-2.1569,-2.245,-2.2886,-2.2959,-2.2952,-2.304,-2.3106,-2.3106,-2.3106,-2.3106,-2.3106,-2.3106,-2.3106,-2.3106,-2.3106,-2.3106,-2.3106,-2.3106,-2.3106,-2.3106,-2.3106,-2.3106,-2.3106,-2.3106,-2.3106,-2.3106,-2.3106,-2.3106,-2.3106,-2.3106,-2.3106,-2.3106,-2.3106,-2.3106,-2.3106,-2.3106,-2.3106,-2.3106,-2.3106,-2.3106,-2.3106,-2.3106,-2.3106,-2.3106,-2.3106,-2.3106,-2.3106,-2.3106,-2.3106,-2.3106,-2.3106,-2.3106,-2.3106,-2.3106,-2.3106,-2.3106,-2.3106,-2.3106,-2.3106,-2.3106,-2.3106,-2.3106,-2.3106,-2.3106,-2.3106,-2.3106,-2.3106,-2.3106,-2.3106,-2.3106,-2.3106,-2.3106,-2.3106,-2.3106,-2.3106,-2.3106,-2.3106,-2.3106,-2.3106,-2.3106,-2.3106,-2.3106,-2.3098,-2.2974,-2.2703,-2.2418,-2.2111,-2.1796,-2.1445,-2.1298,-2.1211,-2.1211,-2.1211,-2.1211,-2.1211,-2.1211,-2.1211,-2.1211,-2.1211,-2.1211,-2.1211,-2.1211,-2.1203,-2.1089,-2.1203,-2.1203,-2.0852,-2.0615,-2.0385,-2.0155,-2.0155,-2.2374,-2.2571,-2.2308,-2.2198,-2.2086,-2.2213,-2.2389,-2.2623,-2.2645,-2.2798,-2.3032,-2.3062,-2.3091,-2.3098,-2.3106,-2.3106,-2.3106,-2.3106,-2.3106,-2.3106,-2.3106,-2.3106,-2.3106,-2.3106,-2.3106,-2.3106,-2.3106,-2.3106,-2.3106,-2.3106,-2.3106,-2.3106,-2.3106,-2.3106,-2.3106,-2.3106,-2.3106,-2.3106,-2.3106,-2.3106,-2.3106,-2.3106,-2.3106,-2.3106,-2.3106,-2.3106,-2.3106,-2.3106,-2.3106,-2.3106,-2.3106,-2.3106,-2.3106,-2.3106,-2.3106,-2.3106,-2.3106,-2.3106,-2.3106,-2.3106,-2.3106,-2.3106,-2.3106,-2.3106,-2.3106,-2.3106,-2.3106,-2.3106,-2.3106,-2.3106,-2.3106,-2.3106,-2.3106,-2.3106,-2.3106,-2.3106,-2.3106,-2.3106,-2.3106,-2.3106,-2.3106,-2.3106,-2.3106,-2.3106,-2.3106,-2.3106,-2.3106,-2.2923,-2.2601,-2.2271,-2.1935,-2.1657,-2.1342,-2.1291,-2.1211,-2.1211,-2.1211,-2.1211,-2.1211,-2.1211,-2.1211,-2.1211,-2.1211,-2.1211,-2.1211,-2.1211,-2.1211,-2.1211,-2.1211,-2.1203,-2.0967,-2.073,-2.05,-2.0385,-2.0507,-2.2118,-2.2001,-2.1898,-2.1737,-2.162,-2.2008,-2.225,-2.2323,-2.2352,-2.2506,-2.274,-2.2791,-2.293,-2.304,-2.3106,-2.3106,-2.3106,-2.3106,-2.3106,-2.3106,-2.3106,-2.3106,-2.3106,-2.3106,-2.3106,-2.3106,-2.3106,-2.3106,-2.3106,-2.3106,-2.3106,-2.3106,-2.3106,-2.3106,-2.3106,-2.3106,-2.3106,-2.3106,-2.3106,-2.3106,-2.3106,-2.3106,-2.3106,-2.3106,-2.3106,-2.3106,-2.3106,-2.3106,-2.3106,-2.3106,-2.3106,-2.3106,-2.3106,-2.3106,-2.3106,-2.3106,-2.3106,-2.3106,-2.3106,-2.3106,-2.3106,-2.3106,-2.3106,-2.3106,-2.3106,-2.3106,-2.3106,-2.3106,-2.3106,-2.3106,-2.3106,-2.3106,-2.3106,-2.3106,-2.3106,-2.3106,-2.3106,-2.3106,-2.3106,-2.3106,-2.3106,-2.3106,-2.3106,-2.3084,-2.3084,-2.2945,-2.2901,-2.2689,-2.2381,-2.2045,-2.1708,-2.1474,-2.1254,-2.1233,-2.1211,-2.1211,-2.1211,-2.1211,-2.1211,-2.1211,-2.1211,-2.1211,-2.1211,-2.1211,-2.1211,-2.1211,-2.1211,-2.1211,-2.1211,-2.1089,-2.0967,-2.0967,-2.0852,-2.0859,-2.0974,-2.1789,-2.1686,-2.1569,-2.1408,-2.1291,-2.1672,-2.1906,-2.2023,-2.2132,-2.2301,-2.2462,-2.2571,-2.2725,-2.2923,-2.3054,-2.3106,-2.3106,-2.3106,-2.3106,-2.3106,-2.3106,-2.3106,-2.3106,-2.3106,-2.3106,-2.3106,-2.3106,-2.3106,-2.3106,-2.3106,-2.3106,-2.3106,-2.3106,-2.3106,-2.3106,-2.3106,-2.3106,-2.3106,-2.3106,-2.3106,-2.3106,-2.3106,-2.3106,-2.3106,-2.3106,-2.3106,-2.3106,-2.3106,-2.3106,-2.3106,-2.3106,-2.3106,-2.3106,-2.3106,-2.3106,-2.3106,-2.3106,-2.3106,-2.3106,-2.3106,-2.3106,-2.3106,-2.3106,-2.3106,-2.3106,-2.3106,-2.3106,-2.3106,-2.3106,-2.3106,-2.3106,-2.3106,-2.3106,-2.3106,-2.3106,-2.3106,-2.3106,-2.3106,-2.3106,-2.3106,-2.3106,-2.3106,-2.3098,-2.3076,-2.3054,-2.2864,-2.2667,-2.2418,-2.2176,-2.1862,-2.1569,-2.1357,-2.1218,-2.1211,-2.1211,-2.1211,-2.1211,-2.1211,-2.1211,-2.1211,-2.1211,-2.1211,-2.1211,-2.1211,-2.1211,-2.1211,-2.1211,-2.1211,-2.1211,-2.1211,-2.1203,-2.1203,-2.1211,-2.1211,-2.1211,-2.1401,-2.1613,-2.1342,-2.1218,-2.1218,-2.1276,-2.1423,-2.1693,-2.2001,-2.2132,-2.2176,-2.2425,-2.2579,-2.2689,-2.2945,-2.3076,-2.3106,-2.3106,-2.3106,-2.3106,-2.3106,-2.3106,-2.3106,-2.3106,-2.3106,-2.3106,-2.3106,-2.3106,-2.3106,-2.3106,-2.3106,-2.3106,-2.3106,-2.3106,-2.3106,-2.3106,-2.3106,-2.3106,-2.3106,-2.3106,-2.3106,-2.3106,-2.3106,-2.3106,-2.3106,-2.3106,-2.3106,-2.3106,-2.3106,-2.3106,-2.3106,-2.3106,-2.3106,-2.3106,-2.3106,-2.3106,-2.3106,-2.3106,-2.3106,-2.3106,-2.3106,-2.3106,-2.3106,-2.3106,-2.3106,-2.3106,-2.3106,-2.3106,-2.3106,-2.3106,-2.3106,-2.3106,-2.3106,-2.3106,-2.3106,-2.3106,-2.3106,-2.3106,-2.3106,-2.3106,-2.3106,-2.3106,-2.3091,-2.3069,-2.2908,-2.2703,-2.2476,-2.2213,-2.1972,-2.1759,-2.1489,-2.1313,-2.1211,-2.1211,-2.1211,-2.1211,-2.1211,-2.1211,-2.1211,-2.1211,-2.1211,-2.1211,-2.1211,-2.1211,-2.1211,-2.1211,-2.1211,-2.1211,-2.1211,-2.1211,-2.1211,-2.1211,-2.1211,-2.1211,-2.1211,-2.1262,-2.1335,-2.1247,-2.1211,-2.1211,-2.1211,-2.1269,-2.1364,-2.1459,-2.1598,-2.1847,-2.192,-2.2228,-2.2623,-2.2725,-2.2908,-2.304,-2.3106,-2.3106,-2.3106,-2.3106,-2.3106,-2.3106,-2.3106,-2.3106,-2.3106,-2.3106,-2.3106,-2.3106,-2.3106,-2.3106,-2.3106,-2.3106,-2.3106,-2.3106,-2.3106,-2.3106,-2.3106,-2.3106,-2.3106,-2.3106,-2.3106,-2.3106,-2.3106,-2.3106,-2.3106,-2.3106,-2.3106,-2.3106,-2.3106,-2.3106,-2.3106,-2.3106,-2.3106,-2.3106,-2.3106,-2.3106,-2.3106,-2.3106,-2.3106,-2.3106,-2.3106,-2.3106,-2.3106,-2.3106,-2.3106,-2.3106,-2.3106,-2.3106,-2.3106,-2.3106,-2.3106,-2.3106,-2.3106,-2.3106,-2.3106,-2.3106,-2.3106,-2.3106,-2.3106,-2.3106,-2.3062,-2.3047,-2.2886,-2.2718,-2.2513,-2.2279,-2.2008,-2.1781,-2.1562,-2.143,-2.1254,-2.1211,-2.1211,-2.1211,-2.1211,-2.1211,-2.1211,-2.1211,-2.1211,-2.1211,-2.1211,-2.1211,-2.1211,-2.1211,-2.1211,-2.1211,-2.1211,-2.1211,-2.1211,-2.1211,-2.1211,-2.1211,-2.1211,-2.1211,-2.1211,-2.1211,-2.1211,-2.1211,-2.1211,-2.1211,-2.1211,-2.1211,-2.1211,-2.1335,-2.1503,-2.1657,-2.1979,-2.2403,-2.2586,-2.2806,-2.3091,-2.3106,-2.3106,-2.3106,-2.3106,-2.3106,-2.3106,-2.3106,-2.3106,-2.3106,-2.3106,-2.3106,-2.3106,-2.3106,-2.3106,-2.3106,-2.3106,-2.3106,-2.3106,-2.3106,-2.3106,-2.3106,-2.3106,-2.3106,-2.3106,-2.3106,-2.3106,-2.3106,-2.3106,-2.3106,-2.3106,-2.3106,-2.3106,-2.3106,-2.3106,-2.3106,-2.3106,-2.3106,-2.3106,-2.3106,-2.3106,-2.3106,-2.3106,-2.3106,-2.3106,-2.3106,-2.3106,-2.3106,-2.3106,-2.3106,-2.3106,-2.3106,-2.3106,-2.3106,-2.3106,-2.3106,-2.3106,-2.3106,-2.3106,-2.3106,-2.3106,-2.3106,-2.3106,-2.3106,-2.3069,-2.301,-2.2901,-2.2718,-2.2476,-2.2184,-2.1957,-2.1759,-2.1554,-2.1386,-2.1313,-2.1225,-2.1211,-2.1211,-2.1211,-2.1211,-2.1211,-2.1211,-2.1211,-2.1211,-2.1211,-2.1211,-2.1211,-2.1211,-2.1211,-2.1211,-2.1211,-2.1211,-2.1211,-2.1211,-2.1211,-2.1211,-2.1211,-2.1211,-2.1211,-2.1211,-2.1211,-2.1211,-2.1211,-2.1211,-2.1211,-2.1211,-2.1211,-2.1211,-2.1218,-2.1284,-2.1518,-2.1811,-2.2147,-2.2396,-2.2703,-2.2952,-2.3054,-2.3106,-2.3106,-2.3106,-2.3106,-2.3106,-2.3106,-2.3106,-2.3106,-2.3106,-2.3106,-2.3106,-2.3106,-2.3106,-2.3106,-2.3106,-2.3106,-2.3106,-2.3106,-2.3106,-2.3106,-2.3106,-2.3106,-2.3106,-2.3106,-2.3106,-2.3106,-2.3106,-2.3106,-2.3106,-2.3106,-2.3106,-2.3106,-2.3106,-2.3106,-2.3106,-2.3106,-2.3106,-2.3106,-2.3106,-2.3106,-2.3106,-2.3106,-2.3106,-2.3106,-2.3106,-2.3106,-2.3106,-2.3106,-2.3106,-2.3106,-2.3106,-2.3106,-2.3106,-2.3106,-2.3106,-2.3106,-2.3106,-2.3106,-2.3106,-2.3106,-2.3106,-2.3076,-2.2967,-2.2893,-2.2732,-2.2542,-2.2206,-2.1869,-2.1635,-2.1474,-2.1393,-2.124,-2.1218,-2.1211,-2.1211,-2.1211,-2.1211,-2.1211,-2.1211,-2.1211,-2.1211,-2.1211,-2.1211,-2.1211,-2.1211,-2.1211,-2.1211,-2.1211,-2.1211,-2.1211,-2.1211,-2.1211,-2.1211,-2.1211,-2.1211,-2.1211,-2.1211,-2.1211,-2.1211,-2.1211,-2.1211,-2.1211,-2.1211,-2.1211,-2.1211,-2.1211,-2.1211,-2.1225,-2.132,-2.1525,-2.1869,-2.2154,-2.2454,-2.274,-2.2967,-2.3084,-2.3106,-2.3106,-2.3106,-2.3106,-2.3106,-2.3106,-2.3106,-2.3106,-2.3106,-2.3106,-2.3106,-2.3106,-2.3106,-2.3106,-2.3106,-2.3106,-2.3106,-2.3106,-2.3106,-2.3106,-2.3106,-2.3106,-2.3106,-2.3106,-2.3106,-2.3106,-2.3106,-2.3106,-2.3106,-2.3106,-2.3106,-2.3106,-2.3106,-2.3106,-2.3106,-2.3106,-2.3106,-2.3106,-2.3106,-2.3106,-2.3106,-2.3106,-2.3106,-2.3106,-2.3106,-2.3106,-2.3106,-2.3106,-2.3106,-2.3106,-2.3106,-2.3106,-2.3106,-2.3106,-2.3106,-2.3106,-2.3106,-2.3106,-2.3106,-2.3106,-2.301,-2.2886,-2.2718,-2.2557,-2.2279,-2.1935,-2.1664,-2.143,-2.1284,-2.1291,-2.1218,-2.1218,-2.1211,-2.1211,-2.1211,-2.1211,-2.1211,-2.1211,-2.1211,-2.1211,-2.1211,-2.1211,-2.1211,-2.1211,-2.1211,-2.1211,-2.1211,-2.1211,-2.1211,-2.1211,-2.1211,-2.1211,-2.1211,-2.1211,-2.1211,-2.1211,-2.1211,-2.1211,-2.1211,-2.1211,-2.1211,-2.1211,-2.1211,-2.1211,-2.1211,-2.1211,-2.1211,-2.1233,-2.1386,-2.1664,-2.1898,-2.2235,-2.2557,-2.2791,-2.2967,-2.3062,-2.3098,-2.3106,-2.3106,-2.3106,-2.3106,-2.3106,-2.3106,-2.3106,-2.3106,-2.3106,-2.3106,-2.3106,-2.3106,-2.3106,-2.3106,-2.3106,-2.3106,-2.3106,-2.3106,-2.3106,-2.3106,-2.3106,-2.3106,-2.3106,-2.3106,-2.3106,-2.3106,-2.3106,-2.3106,-2.3106,-2.3106,-2.3106,-2.3106,-2.3106,-2.3106,-2.3106,-2.3106,-2.3106,-2.3106,-2.3106,-2.3106,-2.3106,-2.3106,-2.3106,-2.3106,-2.3106,-2.3106,-2.3106,-2.3106,-2.3106,-2.3106,-2.3106,-2.3106,-2.3106,-2.3106,-2.3106,-2.3106,-2.3106,-2.3106,-2.3076,-2.2871,-2.2586,-2.2381,-2.2067,-2.1737,-2.1474,-2.124,-2.1218,-2.1211,-2.1211,-2.1211,-2.1211,-2.1211,-2.1211,-2.1211,-2.1211,-2.1211,-2.1211,-2.1211,-2.1211,-2.1211,-2.1211,-2.1211,-2.1211,-2.1211,-2.1211,-2.1211,-2.1211,-2.1211,-2.1211,-2.1211,-2.1211,-2.1211,-2.1211,-2.1211,-2.1211,-2.1211,-2.1211,-2.1211,-2.1211,-2.1211,-2.1211,-2.1211,-2.1211,-2.1211,-2.1211,-2.1211,-2.1393,-2.1547,-2.1723,-2.2096,-2.2403,-2.2615,-2.282,-2.2967,-2.3084,-2.3098,-2.3106,-2.3106,-2.3106,-2.3106,-2.3106,-2.3106,-2.3106,-2.3106,-2.3106,-2.3106,-2.3106,-2.3106,-2.3106,-2.3106,-2.3106,-2.3106,-2.3106,-2.3106,-2.3106,-2.3106,-2.3106,-2.3106,-2.3106,-2.3106,-2.3106,-2.3106,-2.3106,-2.3106,-2.3106,-2.3106,-2.3106,-2.3106,-2.3106,-2.3106,-2.3106,-2.3106,-2.3106,-2.3106,-2.3106,-2.3106,-2.3106,-2.3106,-2.3106,-2.3106,-2.3106,-2.3106,-2.3106,-2.3106,-2.3106,-2.3106,-2.3106,-2.3106,-2.3106,-2.3106,-2.3106,-2.3098,-2.3091,-2.3076,-2.2762,-2.2454,-2.214,-2.1832,-2.1569,-2.1298,-2.1211,-2.1211,-2.1211,-2.1211,-2.1211,-2.1211,-2.1211,-2.1211,-2.1211,-2.1211,-2.1211,-2.1211,-2.1211,-2.1211,-2.1211,-2.1211,-2.1211,-2.1211,-2.1211,-2.1211,-2.1211,-2.1211,-2.1211,-2.1211,-2.1211,-2.1211,-2.1211,-2.1211,-2.1211,-2.1211,-2.1211,-2.1211,-2.1211,-2.1211,-2.1211,-2.1211,-2.1211,-2.1211,-2.1211,-2.1211,-2.1211,-2.1269,-2.1328,-2.1606,-2.1869,-2.2015,-2.233,-2.2571,-2.2718,-2.2945,-2.3054,-2.3106,-2.3106,-2.3106,-2.3106,-2.3106,-2.3106,-2.3106,-2.3106,-2.3106,-2.3106,-2.3106,-2.3106,-2.3106,-2.3106,-2.3106,-2.3106,-2.3106,-2.3106,-2.3106,-2.3106,-2.3106,-2.3106,-2.3106,-2.3106,-2.3106,-2.3106,-2.3106,-2.3106,-2.3106,-2.3106,-2.3106,-2.3106,-2.3106,-2.3106,-2.3106,-2.3106,-2.3106,-2.3106,-2.3106,-2.3106,-2.3106,-2.3106,-2.3106,-2.3106,-2.3106,-2.3106,-2.3106,-2.3106,-2.3106,-2.3106,-2.3106,-2.3106,-2.3106,-2.3106,-2.3106,-2.3069,-2.3032,-2.2813,-2.2506,-2.2191,-2.1876,-2.1613,-2.1386,-2.1211,-2.1211,-2.1211,-2.1211,-2.1211,-2.1211,-2.1211,-2.1211,-2.1211,-2.1211,-2.1211,-2.1211,-2.1211,-2.1211,-2.1211,-2.1211,-2.1211,-2.1211,-2.1211,-2.1211,-2.1211,-2.1211,-2.1211,-2.1211,-2.1211,-2.1211,-2.1211,-2.1211,-2.1211,-2.1211]},{"header":{"parameterUnit":"m.s-1","parameterCategory":1,"la1":31.0,"la2":29.5877,"lo1":-88.7671,"lo2":-86.6584,"dy":0.0162,"dx":0.0185,"nx":115,"ny":88,"refTime":"2023-08-04T18:00:00:Z","depth":0,"parameterNumber":3,"parameterNumberName":"V-component_of_WINDS"},"data":[0.0,0.0,0.0,0.0,0.0,0.0,0.0,0.0,0.0,0.0,0.0,0.0,0.0,0.0,0.0,0.0,0.0,0.0,0.0,0.0,0.0,0.0,0.0,0.0,0.0,0.0,0.0,0.0,0.0,0.0,0.0,0.0,0.0,0.0,0.0,0.0,0.0,0.0,0.0,0.0,0.0,0.0,0.0,0.0,0.0,0.0,0.0,0.0,0.0,0.0,0.0,0.0,0.0,0.0,0.0,0.0,0.0,0.0,0.0,0.0,0.0,0.0,0.0,0.0,0.0,0.0,0.0,0.0,0.0,0.0,0.0,0.0,0.0,0.0,0.0,0.0,0.0,0.0,0.0,0.0,0.0,0.0,0.0,0.0,0.0,0.0,0.0,0.0,0.0,0.0,0.0,0.0,0.0,0.0,0.0,0.0,0.0,0.0,0.0,0.0,0.0,0.0,0.0,0.0,0.0,0.0,0.0,0.0,0.0,0.0,0.0,0.0,0.0,0.0,0.0,0.0,0.0,0.0,0.0,0.0,0.0,0.0,0.0,0.0,0.0,0.0,0.0,0.0,0.0,0.0,0.0,0.0,0.0,0.0,0.0,0.0,0.0,0.0,0.0,0.0,0.0,0.0,0.0,0.0,0.0,0.0,0.0,0.0,0.0,0.0,0.0,0.0,0.0,0.0,0.0,0.0,0.0,0.0,0.0,0.0,0.0,0.0,0.0,0.0,0.0,0.0,0.0,0.0,0.0,0.0,0.0,0.0,0.0,0.0,0.0,0.0,0.0,0.0,0.0,0.0,0.0,0.0,0.0,0.0,0.0,0.0,0.0,0.0,0.0,0.0,0.0,0.0,0.0,0.0,0.0,0.0,0.0,0.0,0.0,0.0,0.0,0.0,0.0,0.0,0.0,0.0,0.0,0.0,0.0,0.0,0.0,0.0,0.0,0.0,0.0,0.0,0.0,0.0,0.0,0.0,0.0,0.0,0.0,0.0,0.0,0.0,0.0,0.0,0.0,0.0,0.0,0.0,0.0,0.0,0.0,0.0,0.0,0.0,0.0,0.0,0.0,0.0,0.0,0.0,0.0,0.0,0.0,0.0,0.0,0.0,0.0,0.0,0.0,0.0,0.0,0.0,0.0,0.0,0.0,0.0,0.0,0.0,0.0,0.0,0.0,0.0,0.0,0.0,0.0,0.0,0.0,0.0,0.0,0.0,0.0,0.0,0.0,0.0,0.0,0.0,0.0,0.0,0.0,0.0,0.0,0.0,0.0,0.0,0.0,0.0,0.0,0.0,0.0,0.0,0.0,0.0,0.0,0.0,0.0,0.0,0.0,0.0,0.0,0.0,0.0,0.0,0.0,0.0,0.0,0.0,0.0,0.0,0.0,0.0,0.0,0.0,0.0,0.0,0.0,0.0,0.0,0.0,0.0,0.0,0.0,0.0,0.0,0.0,0.0,0.0,0.0,0.0,0.0,0.0,0.0,0.0,0.0,0.0,0.0,0.0,0.0,0.0,0.0,0.0,0.0,0.0,0.0,0.0,0.0,0.0,0.0,0.0,0.0,0.0,0.0,0.0,0.0,0.0,0.0,0.0,0.0,0.0,0.0,0.0,0.0,0.0,0.0,0.0,0.0,0.0,0.0,0.0,0.0,0.0,0.0,0.0,0.0,0.0,0.0,0.0,0.0,0.0,0.0,0.0,0.0,0.0,0.0,0.0,0.0,0.0,0.0,0.0,0.0,0.0,0.0,0.0,0.0,0.0,0.0,0.0,0.0,0.0,0.0,0.0,0.0,0.0,0.0,0.0,0.0,0.0,0.0,0.0,0.0,0.0,0.0,0.0,0.0,0.0,0.0,0.0,0.0,0.0,0.0,0.0,0.0,0.0,0.0,0.0,0.0,0.0,0.0,0.0,0.0,0.0,0.0,0.0,0.0,0.0,0.0,0.0,0.0,0.0,0.0,0.0,0.0,0.0,0.0,0.0,0.0,0.0,0.0,0.0,0.0,0.0,0.0,0.0,0.0,0.0,0.0,0.0,0.0,0.0,0.0,0.0,0.0,0.0,0.0,0.0,0.0,0.0,0.0,0.0,0.0,0.0,0.0,0.0,0.0,0.0,0.0,0.0,0.0,0.0,0.0,0.0,0.0,0.0,0.0,0.0,0.0,0.0,0.0,0.0,0.0,0.0,0.0,0.0,0.0,0.0,0.0,0.0,0.0,0.0,0.0,0.0,0.0,0.0,0.0,0.0,0.0,0.0,0.0,0.0,0.0,0.0,0.0,0.0,0.0,0.0,0.0,0.0,0.0,0.0,0.0,0.0,0.0,0.0,0.0,0.0,0.0,0.0,0.0,0.0,0.0,0.0,0.0,0.0,0.0,0.0,0.0,0.0,0.0,0.0,0.0,0.0,0.0,0.0,0.0,0.0,0.0,0.0,0.0,0.0,0.0,0.0,0.0,0.0,0.0,0.0,0.0,0.0,0.0,0.0,0.0,0.0,0.0,0.0,0.0,0.0,0.0,0.0,0.0,0.0,0.0,0.0,0.0,0.0,0.0,0.0,0.0,0.0,0.0,0.0,0.0,0.0,0.0,0.0,0.0,0.0,0.0,0.0,0.0,0.0,0.0,0.0,0.0,0.0,0.0,0.0,0.0,0.0,0.0,0.0,0.0,0.0,0.0,0.0,0.0,0.0,0.0,0.0,0.0,0.0,0.0,0.0,0.0,0.0,0.0,0.0,0.0,0.0,0.0,0.0,0.0,0.0,0.0,0.0,0.0,0.0,0.0,0.0,0.0,0.0,0.0,0.0,0.0,0.0,0.0,0.0,0.0,0.0,0.0,0.0,0.0,0.0,0.0,0.0,0.0,0.0,0.0,0.0,0.0,0.0,0.0,0.0,0.0,0.0,0.0,0.0,0.0,0.0,0.0,0.0,0.0,0.0,0.0,0.0,0.0,0.0,0.0,0.0,0.0,0.0,0.0,0.0,0.0,0.0,0.0,0.0,0.0,0.0,0.0,0.0,0.0,0.0,0.0,0.0,0.0,0.0,0.0,0.0,0.0,0.0,0.0,0.0,0.0,0.0,0.0,0.0,0.0,0.0,0.0,0.0,0.0,0.0,0.0,0.0,0.0,0.0,0.0,0.0,0.0,0.0,0.0,0.0,0.0,0.0,0.0,0.0,0.0,0.0,0.0,0.0,0.0,0.0,0.0,0.0,0.0,0.0,0.0,0.0,0.0,0.0,0.0,0.0,0.0,0.0,0.0,0.0,0.0,0.0,0.0,0.0,0.0,0.0,0.0,0.0,0.0,0.0,0.0,0.0,0.0,0.0,0.0,0.0,0.0,0.0,0.0,0.0,0.0,0.0,0.0,0.0,0.0,0.0,0.0,0.0,0.0,0.0,0.0,0.0,0.0,0.0,0.0,0.0,0.0,0.0,0.0,0.0,0.0,0.0,0.0,0.0,0.0,0.0,0.0,0.0,0.0,0.0,0.0,0.0,0.0,0.0,0.0,0.0,0.0,0.0,0.0,0.0,0.0,0.0,0.0,0.0,0.0,0.0,0.0,0.0,0.0,0.0,0.0,0.0,0.0,0.0,0.0,0.0,0.0,0.0,0.0,0.0,0.0,0.0,0.0,0.0,0.0,0.0,0.0,0.0,0.0,0.0,0.0,0.0,0.0,0.0,0.0,0.0,0.0,0.0,0.0,0.0,0.0,0.0,0.0,0.0,0.0,0.0,0.0,0.0,0.0,0.0,0.0,0.0,0.0,0.0,0.0,0.0,0.0,0.0,0.0,0.0,0.0,0.0,0.0,0.0,0.0,0.0,0.0,0.0,0.0,0.0,0.0,0.0,0.0,0.0,0.0,0.0,0.0,0.0,0.0,0.0,0.0,0.0,0.0,0.0,0.0,0.0,0.0,0.0,0.0,0.0,0.0,0.0,0.0,0.0,0.0,0.0,0.0,0.0,0.0,0.0,0.0,0.0,0.0,0.0,0.0,0.0,0.0,0.0,0.0,0.0,0.0,0.0,0.0,0.0,0.0,0.0,0.0,0.0,0.0,0.0,0.0,0.0,0.0,0.0,0.0,0.0,0.0,0.0,0.0,0.0,0.0,0.0,0.0,0.0,0.0,0.0,0.0,0.0,0.0,0.0,0.0,0.0,0.0,0.0,0.0,0.0,0.0,0.0,0.0,0.0,0.0,0.0,0.0,0.0,0.0,0.0,0.0,0.0,0.0,0.0,0.0,0.0,0.0,0.0,0.0,0.0,0.0,0.0,-2.7974,0.0,0.0,0.0,0.0,0.0,0.0,0.0,0.0,0.0,0.0,0.0,0.0,0.0,0.0,0.0,0.0,0.0,0.0,0.0,0.0,0.0,0.0,0.0,0.0,0.0,0.0,0.0,0.0,0.0,0.0,0.0,0.0,0.0,0.0,0.0,0.0,0.0,0.0,0.0,0.0,0.0,0.0,0.0,0.0,0.0,0.0,0.0,0.0,0.0,0.0,0.0,0.0,0.0,0.0,0.0,0.0,0.0,0.0,0.0,0.0,0.0,0.0,0.0,0.0,0.0,0.0,0.0,0.0,0.0,0.0,0.0,0.0,0.0,0.0,0.0,0.0,0.0,0.0,0.0,0.0,0.0,0.0,0.0,0.0,0.0,0.0,0.0,0.0,0.0,0.0,0.0,0.0,0.0,0.0,0.0,0.0,0.0,0.0,0.0,0.0,0.0,0.0,0.0,0.0,0.0,0.0,0.0,0.0,0.0,0.0,-2.9569,-2.9511,-2.9471,-2.906,-2.8258,0.0,0.0,0.0,0.0,0.0,0.0,0.0,0.0,0.0,0.0,0.0,0.0,0.0,0.0,0.0,0.0,0.0,0.0,0.0,0.0,0.0,0.0,0.0,0.0,0.0,0.0,0.0,0.0,0.0,0.0,0.0,0.0,0.0,0.0,0.0,0.0,0.0,0.0,0.0,0.0,0.0,0.0,0.0,0.0,0.0,0.0,0.0,0.0,0.0,0.0,0.0,0.0,0.0,0.0,0.0,0.0,0.0,0.0,0.0,0.0,0.0,0.0,0.0,0.0,0.0,0.0,0.0,0.0,0.0,0.0,0.0,0.0,0.0,0.0,0.0,0.0,0.0,0.0,0.0,0.0,0.0,0.0,0.0,0.0,0.0,0.0,0.0,0.0,0.0,0.0,0.0,0.0,0.0,0.0,0.0,0.0,0.0,0.0,0.0,0.0,0.0,0.0,0.0,0.0,0.0,0.0,0.0,0.0,0.0,0.0,0.0,0.0,-2.9831,-2.9513,-2.8933,0.0,0.0,0.0,0.0,0.0,0.0,0.0,0.0,0.0,0.0,0.0,0.0,0.0,0.0,0.0,0.0,0.0,0.0,0.0,0.0,0.0,0.0,0.0,0.0,0.0,0.0,0.0,0.0,0.0,0.0,0.0,0.0,0.0,0.0,0.0,0.0,0.0,0.0,0.0,0.0,0.0,0.0,0.0,0.0,0.0,0.0,0.0,0.0,0.0,0.0,0.0,0.0,0.0,0.0,0.0,0.0,0.0,0.0,0.0,0.0,0.0,0.0,0.0,0.0,0.0,0.0,0.0,0.0,0.0,0.0,0.0,0.0,0.0,0.0,0.0,0.0,0.0,0.0,0.0,0.0,0.0,0.0,0.0,0.0,0.0,0.0,0.0,0.0,0.0,0.0,0.0,0.0,0.0,0.0,0.0,0.0,0.0,0.0,0.0,0.0,0.0,0.0,0.0,0.0,0.0,0.0,0.0,0.0,0.0,0.0,-3.013,-3.0846,-3.0791,0.0,-3.0659,0.0,0.0,0.0,0.0,0.0,0.0,0.0,0.0,0.0,0.0,0.0,0.0,0.0,0.0,0.0,0.0,0.0,0.0,0.0,0.0,0.0,0.0,0.0,0.0,0.0,0.0,0.0,0.0,0.0,0.0,0.0,0.0,0.0,0.0,0.0,0.0,0.0,0.0,0.0,0.0,0.0,0.0,0.0,0.0,0.0,0.0,0.0,0.0,0.0,0.0,0.0,0.0,0.0,0.0,0.0,0.0,0.0,0.0,0.0,0.0,0.0,0.0,0.0,0.0,0.0,0.0,0.0,0.0,0.0,0.0,0.0,0.0,0.0,0.0,0.0,0.0,0.0,0.0,0.0,0.0,0.0,0.0,0.0,0.0,0.0,0.0,0.0,0.0,0.0,0.0,0.0,0.0,0.0,0.0,0.0,0.0,0.0,0.0,0.0,0.0,0.0,0.0,0.0,0.0,0.0,0.0,0.0,0.0,0.0,0.0,-3.0833,-3.0996,-3.105,-3.1033,0.0,0.0,0.0,0.0,0.0,0.0,0.0,0.0,0.0,0.0,0.0,0.0,0.0,0.0,0.0,0.0,0.0,0.0,0.0,0.0,0.0,0.0,0.0,0.0,0.0,0.0,0.0,0.0,0.0,0.0,0.0,0.0,0.0,0.0,0.0,0.0,0.0,0.0,0.0,0.0,0.0,0.0,0.0,0.0,0.0,0.0,0.0,0.0,0.0,0.0,0.0,0.0,0.0,0.0,0.0,0.0,0.0,0.0,0.0,0.0,0.0,0.0,0.0,0.0,0.0,0.0,0.0,0.0,0.0,0.0,0.0,0.0,0.0,0.0,0.0,0.0,0.0,0.0,0.0,0.0,0.0,0.0,0.0,0.0,0.0,0.0,0.0,0.0,0.0,0.0,0.0,0.0,0.0,0.0,0.0,0.0,0.0,0.0,0.0,0.0,0.0,0.0,0.0,0.0,0.0,0.0,0.0,0.0,0.0,0.0,-3.1211,-3.1466,-3.1512,-3.1597,-3.1352,-3.071,0.0,0.0,0.0,0.0,0.0,0.0,0.0,0.0,0.0,0.0,0.0,0.0,0.0,0.0,0.0,0.0,0.0,0.0,0.0,0.0,0.0,0.0,0.0,0.0,0.0,0.0,0.0,0.0,0.0,0.0,0.0,0.0,0.0,0.0,0.0,0.0,0.0,0.0,0.0,0.0,0.0,0.0,0.0,0.0,0.0,0.0,0.0,0.0,0.0,0.0,0.0,0.0,0.0,0.0,0.0,0.0,0.0,0.0,0.0,0.0,0.0,0.0,0.0,0.0,0.0,0.0,0.0,0.0,0.0,0.0,0.0,0.0,0.0,0.0,0.0,0.0,0.0,0.0,0.0,0.0,0.0,0.0,0.0,0.0,0.0,0.0,0.0,0.0,0.0,0.0,0.0,0.0,0.0,0.0,0.0,0.0,0.0,0.0,0.0,0.0,0.0,0.0,0.0,0.0,0.0,0.0,0.0,0.0,-3.2541,-3.1889,-3.1889,-3.268,-3.2732,-3.1952,0.0,0.0,0.0,0.0,0.0,0.0,0.0,0.0,0.0,0.0,0.0,0.0,0.0,0.0,0.0,0.0,0.0,0.0,0.0,0.0,0.0,0.0,0.0,0.0,0.0,0.0,0.0,0.0,0.0,0.0,0.0,0.0,0.0,0.0,0.0,0.0,0.0,0.0,0.0,0.0,0.0,0.0,0.0,0.0,0.0,0.0,0.0,0.0,0.0,0.0,0.0,0.0,0.0,0.0,0.0,0.0,0.0,0.0,0.0,0.0,0.0,0.0,0.0,0.0,0.0,0.0,0.0,0.0,0.0,0.0,0.0,0.0,0.0,0.0,0.0,0.0,0.0,0.0,0.0,0.0,0.0,0.0,0.0,0.0,0.0,0.0,0.0,0.0,0.0,0.0,0.0,0.0,0.0,0.0,0.0,0.0,0.0,0.0,0.0,0.0,0.0,0.0,0.0,0.0,0.0,0.0,0.0,0.0,0.0,-3.1244,-3.1431,-3.2158,-3.3442,-3.209,-3.1188,0.0,0.0,0.0,0.0,0.0,0.0,0.0,0.0,0.0,0.0,0.0,0.0,0.0,0.0,0.0,0.0,0.0,0.0,0.0,0.0,0.0,0.0,0.0,0.0,0.0,0.0,0.0,0.0,0.0,0.0,0.0,0.0,0.0,0.0,0.0,0.0,0.0,0.0,0.0,0.0,0.0,0.0,0.0,0.0,0.0,0.0,0.0,0.0,0.0,0.0,0.0,0.0,0.0,0.0,0.0,0.0,0.0,0.0,0.0,0.0,0.0,0.0,0.0,0.0,0.0,0.0,0.0,0.0,0.0,0.0,0.0,0.0,0.0,0.0,0.0,0.0,0.0,0.0,0.0,0.0,0.0,0.0,0.0,0.0,0.0,0.0,0.0,0.0,0.0,0.0,0.0,0.0,0.0,0.0,0.0,0.0,0.0,0.0,0.0,0.0,0.0,0.0,0.0,0.0,0.0,0.0,0.0,0.0,0.0,-3.127,0.0,-3.2859,-3.3609,-3.2131,-3.0995,0.0,0.0,0.0,0.0,0.0,0.0,0.0,0.0,0.0,0.0,0.0,0.0,0.0,0.0,0.0,0.0,0.0,0.0,0.0,0.0,0.0,0.0,0.0,0.0,0.0,0.0,0.0,0.0,0.0,0.0,0.0,0.0,0.0,0.0,0.0,0.0,0.0,0.0,0.0,0.0,0.0,0.0,0.0,0.0,0.0,0.0,0.0,0.0,0.0,0.0,0.0,0.0,0.0,0.0,0.0,0.0,0.0,0.0,0.0,0.0,0.0,0.0,0.0,0.0,0.0,0.0,0.0,0.0,0.0,0.0,0.0,0.0,0.0,0.0,0.0,0.0,0.0,0.0,0.0,0.0,0.0,0.0,0.0,0.0,0.0,0.0,0.0,0.0,0.0,0.0,0.0,0.0,0.0,0.0,0.0,0.0,0.0,0.0,0.0,0.0,0.0,0.0,0.0,0.0,0.0,0.0,0.0,0.0,-3.141,-3.2986,-3.3866,-3.3895,-3.3179,-3.3024,-3.1458,0.0,0.0,0.0,0.0,0.0,0.0,0.0,0.0,0.0,0.0,0.0,0.0,0.0,0.0,0.0,0.0,0.0,0.0,0.0,0.0,0.0,0.0,0.0,0.0,0.0,0.0,0.0,0.0,0.0,0.0,0.0,0.0,0.0,0.0,0.0,0.0,0.0,0.0,0.0,0.0,0.0,0.0,0.0,0.0,0.0,0.0,0.0,0.0,0.0,0.0,0.0,0.0,0.0,0.0,0.0,0.0,0.0,0.0,0.0,0.0,0.0,0.0,0.0,0.0,0.0,0.0,0.0,0.0,0.0,0.0,0.0,0.0,0.0,0.0,0.0,0.0,0.0,0.0,0.0,0.0,0.0,0.0,0.0,0.0,0.0,0.0,0.0,0.0,0.0,0.0,0.0,0.0,0.0,0.0,0.0,0.0,0.0,0.0,0.0,0.0,0.0,0.0,0.0,0.0,0.0,0.0,0.0,0.0,0.0,-3.2193,-3.3054,-3.3963,-3.4775,-3.259,-3.1429,0.0,0.0,0.0,0.0,0.0,0.0,0.0,0.0,0.0,0.0,0.0,0.0,0.0,0.0,0.0,0.0,0.0,0.0,0.0,0.0,0.0,0.0,0.0,0.0,0.0,0.0,0.0,0.0,0.0,0.0,0.0,0.0,0.0,0.0,0.0,0.0,0.0,0.0,0.0,0.0,0.0,0.0,0.0,0.0,0.0,0.0,0.0,0.0,0.0,0.0,0.0,0.0,0.0,0.0,0.0,0.0,0.0,0.0,0.0,0.0,0.0,0.0,0.0,0.0,0.0,0.0,0.0,0.0,0.0,0.0,0.0,0.0,0.0,0.0,0.0,0.0,0.0,0.0,0.0,0.0,0.0,0.0,0.0,0.0,0.0,0.0,0.0,0.0,0.0,0.0,0.0,0.0,0.0,0.0,0.0,0.0,0.0,0.0,0.0,0.0,0.0,0.0,0.0,0.0,0.0,0.0,0.0,0.0,0.0,-3.3267,-3.4098,-3.4891,-3.5684,-3.3305,-3.2068,-3.2096,0.0,0.0,0.0,0.0,0.0,0.0,0.0,0.0,0.0,0.0,0.0,0.0,0.0,0.0,0.0,0.0,0.0,0.0,0.0,0.0,0.0,0.0,0.0,0.0,0.0,0.0,0.0,0.0,0.0,0.0,0.0,0.0,0.0,0.0,0.0,0.0,0.0,0.0,0.0,0.0,0.0,0.0,0.0,0.0,0.0,0.0,0.0,0.0,0.0,0.0,0.0,0.0,0.0,0.0,0.0,0.0,0.0,0.0,0.0,0.0,0.0,0.0,0.0,0.0,0.0,0.0,0.0,0.0,0.0,0.0,0.0,0.0,0.0,0.0,0.0,0.0,0.0,0.0,0.0,0.0,0.0,0.0,0.0,0.0,0.0,0.0,0.0,0.0,0.0,0.0,0.0,0.0,0.0,0.0,0.0,0.0,0.0,0.0,0.0,0.0,0.0,0.0,0.0,0.0,0.0,0.0,0.0,0.0,-3.5974,-3.6729,-3.6748,-3.5955,-3.4969,-3.3325,0.0,0.0,0.0,0.0,0.0,0.0,0.0,0.0,0.0,0.0,0.0,0.0,0.0,0.0,0.0,0.0,0.0,0.0,0.0,0.0,0.0,0.0,0.0,0.0,0.0,0.0,0.0,0.0,0.0,0.0,0.0,0.0,0.0,0.0,0.0,0.0,0.0,0.0,0.0,0.0,0.0,0.0,0.0,0.0,0.0,0.0,0.0,0.0,0.0,0.0,0.0,0.0,0.0,0.0,0.0,0.0,0.0,0.0,0.0,0.0,0.0,0.0,0.0,0.0,0.0,0.0,0.0,0.0,0.0,0.0,0.0,0.0,0.0,0.0,0.0,0.0,0.0,0.0,0.0,0.0,0.0,0.0,0.0,0.0,0.0,0.0,0.0,0.0,0.0,0.0,0.0,0.0,0.0,0.0,0.0,0.0,0.0,0.0,0.0,0.0,0.0,0.0,0.0,0.0,0.0,0.0,0.0,0.0,0.0,-3.934,-3.9669,-3.9359,-3.8489,-3.6458,-3.5046,0.0,0.0,0.0,0.0,0.0,0.0,0.0,0.0,0.0,0.0,0.0,0.0,0.0,0.0,0.0,0.0,0.0,0.0,0.0,0.0,0.0,0.0,0.0,0.0,0.0,0.0,0.0,0.0,0.0,0.0,0.0,0.0,0.0,0.0,0.0,0.0,0.0,0.0,0.0,0.0,0.0,0.0,0.0,0.0,0.0,0.0,0.0,0.0,0.0,0.0,0.0,0.0,0.0,0.0,0.0,0.0,0.0,0.0,0.0,0.0,0.0,0.0,0.0,0.0,0.0,0.0,0.0,0.0,0.0,0.0,0.0,0.0,0.0,0.0,0.0,0.0,0.0,0.0,0.0,0.0,0.0,0.0,0.0,0.0,0.0,0.0,0.0,0.0,0.0,0.0,0.0,0.0,0.0,0.0,0.0,0.0,0.0,0.0,0.0,0.0,0.0,0.0,0.0,0.0,0.0,0.0,0.0,0.0,-3.8063,-4.0732,-4.1119,-4.1061,-4.0558,-3.845,-3.6787,0.0,0.0,0.0,0.0,0.0,0.0,0.0,0.0,0.0,0.0,0.0,0.0,0.0,0.0,0.0,0.0,0.0,0.0,0.0,0.0,0.0,0.0,0.0,0.0,0.0,0.0,0.0,0.0,0.0,0.0,0.0,0.0,0.0,0.0,0.0,0.0,0.0,0.0,0.0,0.0,0.0,0.0,0.0,0.0,0.0,0.0,0.0,0.0,0.0,0.0,0.0,0.0,0.0,0.0,0.0,0.0,0.0,0.0,0.0,0.0,0.0,0.0,0.0,0.0,0.0,0.0,0.0,0.0,0.0,0.0,0.0,0.0,0.0,0.0,0.0,0.0,0.0,0.0,0.0,0.0,0.0,0.0,0.0,0.0,0.0,0.0,0.0,0.0,0.0,0.0,0.0,0.0,0.0,0.0,0.0,0.0,0.0,0.0,0.0,0.0,0.0,0.0,0.0,0.0,0.0,0.0,0.0,0.0,-3.9301,-4.1023,-4.1841,-4.2247,-4.2189,-4.0526,-3.8419,0.0,0.0,0.0,0.0,0.0,0.0,0.0,0.0,0.0,0.0,0.0,0.0,0.0,0.0,0.0,0.0,0.0,0.0,0.0,0.0,0.0,0.0,0.0,0.0,0.0,0.0,0.0,0.0,0.0,0.0,0.0,0.0,0.0,0.0,0.0,0.0,0.0,0.0,0.0,0.0,0.0,0.0,0.0,0.0,0.0,0.0,0.0,0.0,0.0,0.0,0.0,0.0,0.0,0.0,0.0,0.0,0.0,0.0,0.0,0.0,0.0,0.0,0.0,0.0,0.0,0.0,0.0,0.0,0.0,0.0,0.0,0.0,0.0,0.0,0.0,0.0,0.0,0.0,0.0,0.0,0.0,0.0,0.0,0.0,0.0,0.0,0.0,0.0,0.0,0.0,0.0,0.0,0.0,0.0,0.0,0.0,0.0,0.0,0.0,0.0,0.0,0.0,0.0,0.0,0.0,0.0,0.0,0.0,-4.1061,-4.2725,-4.3438,-4.3817,-4.3817,-4.1523,-3.9135,0.0,0.0,0.0,0.0,0.0,0.0,0.0,0.0,0.0,0.0,0.0,0.0,0.0,0.0,0.0,0.0,0.0,0.0,0.0,0.0,0.0,0.0,0.0,0.0,0.0,0.0,0.0,0.0,0.0,0.0,0.0,0.0,0.0,0.0,0.0,0.0,0.0,0.0,0.0,0.0,0.0,0.0,0.0,0.0,0.0,0.0,0.0,0.0,-2.7611,0.0,0.0,0.0,0.0,0.0,0.0,0.0,0.0,0.0,0.0,0.0,0.0,0.0,0.0,0.0,0.0,0.0,0.0,0.0,0.0,0.0,0.0,0.0,0.0,0.0,0.0,0.0,0.0,0.0,0.0,0.0,0.0,0.0,0.0,0.0,0.0,0.0,0.0,0.0,0.0,0.0,0.0,0.0,0.0,0.0,0.0,0.0,0.0,0.0,0.0,0.0,0.0,0.0,0.0,0.0,0.0,0.0,0.0,0.0,-4.1484,-4.3163,-4.3869,-4.4205,-4.4147,-4.2445,-4.0406,0.0,0.0,0.0,0.0,0.0,0.0,0.0,0.0,0.0,0.0,0.0,0.0,0.0,0.0,0.0,0.0,0.0,0.0,0.0,0.0,0.0,0.0,0.0,0.0,0.0,0.0,0.0,0.0,0.0,0.0,0.0,0.0,0.0,0.0,0.0,0.0,0.0,0.0,0.0,0.0,0.0,0.0,0.0,0.0,0.0,0.0,0.0,0.0,0.0,0.0,0.0,0.0,0.0,0.0,0.0,0.0,0.0,0.0,0.0,0.0,0.0,0.0,0.0,0.0,0.0,0.0,0.0,0.0,0.0,0.0,0.0,0.0,0.0,0.0,0.0,0.0,0.0,0.0,0.0,0.0,0.0,0.0,0.0,0.0,0.0,0.0,0.0,0.0,0.0,0.0,0.0,0.0,0.0,0.0,0.0,0.0,0.0,0.0,0.0,0.0,0.0,0.0,0.0,0.0,0.0,0.0,0.0,-3.9518,-4.1463,-4.3006,-4.3865,-4.4288,-4.425,-4.3213,-4.157,-3.9332,0.0,0.0,0.0,0.0,0.0,0.0,0.0,0.0,0.0,0.0,0.0,0.0,0.0,0.0,0.0,0.0,0.0,0.0,0.0,0.0,0.0,0.0,0.0,0.0,0.0,0.0,0.0,0.0,0.0,0.0,0.0,0.0,0.0,0.0,0.0,0.0,0.0,0.0,-2.8346,-2.8975,0.0,0.0,0.0,0.0,0.0,0.0,0.0,0.0,-3.0719,0.0,0.0,0.0,0.0,0.0,0.0,0.0,0.0,0.0,0.0,0.0,0.0,0.0,0.0,0.0,0.0,0.0,0.0,0.0,0.0,0.0,0.0,0.0,0.0,0.0,0.0,0.0,0.0,0.0,0.0,0.0,0.0,0.0,0.0,0.0,0.0,0.0,0.0,0.0,0.0,0.0,0.0,0.0,0.0,0.0,0.0,0.0,0.0,0.0,0.0,0.0,0.0,0.0,0.0,0.0,0.0,-3.8882,-4.0665,-4.2027,-4.2925,-4.4306,-4.5025,-4.4968,-4.3346,-4.1604,-3.9823,0.0,0.0,0.0,0.0,0.0,0.0,0.0,0.0,0.0,0.0,0.0,0.0,0.0,0.0,0.0,0.0,0.0,0.0,0.0,0.0,0.0,0.0,0.0,0.0,0.0,0.0,0.0,0.0,0.0,0.0,0.0,0.0,0.0,0.0,0.0,0.0,0.0,0.0,0.0,-3.0467,-3.0968,0.0,0.0,0.0,0.0,0.0,0.0,0.0,0.0,-3.0225,0.0,0.0,0.0,0.0,0.0,0.0,0.0,0.0,0.0,0.0,0.0,0.0,0.0,0.0,0.0,0.0,0.0,0.0,0.0,0.0,0.0,0.0,0.0,0.0,0.0,0.0,0.0,0.0,0.0,0.0,0.0,0.0,0.0,0.0,0.0,0.0,0.0,0.0,0.0,0.0,0.0,0.0,0.0,0.0,0.0,0.0,0.0,0.0,0.0,0.0,0.0,0.0,0.0,0.0,0.0,-3.9187,-4.1195,-4.2603,-4.3406,-4.4481,-4.5038,-4.5,-4.2913,-4.1408,0.0,0.0,0.0,0.0,0.0,0.0,0.0,0.0,0.0,0.0,0.0,0.0,0.0,0.0,0.0,0.0,0.0,0.0,0.0,0.0,0.0,0.0,0.0,0.0,0.0,0.0,0.0,0.0,0.0,0.0,0.0,0.0,0.0,0.0,0.0,0.0,0.0,0.0,0.0,0.0,-3.2117,-3.2289,-3.2463,0.0,0.0,0.0,0.0,0.0,0.0,-3.2222,-3.1783,0.0,0.0,0.0,0.0,0.0,0.0,0.0,0.0,0.0,0.0,0.0,0.0,0.0,0.0,0.0,0.0,0.0,0.0,0.0,0.0,0.0,0.0,0.0,0.0,0.0,0.0,0.0,0.0,0.0,0.0,0.0,0.0,0.0,0.0,0.0,0.0,0.0,0.0,0.0,0.0,0.0,0.0,0.0,0.0,0.0,0.0,0.0,0.0,0.0,0.0,0.0,0.0,0.0,0.0,0.0,-3.9127,-4.1418,-4.2995,-4.3849,-4.455,-4.4895,-4.4857,-4.2829,-4.1465,0.0,0.0,0.0,0.0,0.0,0.0,0.0,0.0,0.0,0.0,0.0,0.0,0.0,0.0,0.0,0.0,0.0,0.0,0.0,0.0,0.0,0.0,0.0,0.0,0.0,0.0,0.0,0.0,0.0,0.0,0.0,0.0,0.0,0.0,0.0,0.0,0.0,0.0,0.0,0.0,0.0,-3.3749,-3.3832,-3.3724,0.0,0.0,0.0,0.0,-3.3734,-3.3932,0.0,0.0,0.0,0.0,0.0,0.0,0.0,0.0,0.0,0.0,0.0,0.0,0.0,0.0,0.0,0.0,0.0,0.0,0.0,0.0,0.0,0.0,0.0,0.0,0.0,0.0,0.0,0.0,0.0,0.0,0.0,0.0,0.0,0.0,0.0,0.0,0.0,0.0,0.0,0.0,0.0,0.0,0.0,0.0,0.0,0.0,0.0,0.0,0.0,0.0,0.0,0.0,0.0,0.0,0.0,0.0,-3.8999,-4.138,-4.2968,-4.3729,-4.4497,-4.4895,-4.4876,-4.3929,-4.2356,0.0,0.0,0.0,0.0,0.0,0.0,0.0,0.0,0.0,0.0,0.0,0.0,0.0,0.0,0.0,0.0,0.0,0.0,0.0,0.0,0.0,0.0,0.0,0.0,0.0,0.0,0.0,0.0,0.0,0.0,0.0,0.0,0.0,0.0,0.0,0.0,0.0,0.0,0.0,0.0,0.0,-3.559,-3.5758,-3.5758,-3.5985,0.0,0.0,-3.5964,-3.6441,-3.6128,0.0,0.0,0.0,0.0,0.0,0.0,0.0,0.0,0.0,0.0,0.0,0.0,0.0,0.0,0.0,0.0,0.0,0.0,0.0,0.0,0.0,0.0,0.0,0.0,0.0,0.0,0.0,0.0,0.0,0.0,0.0,0.0,0.0,0.0,0.0,0.0,0.0,0.0,0.0,0.0,0.0,0.0,0.0,0.0,0.0,0.0,0.0,0.0,0.0,0.0,0.0,0.0,0.0,0.0,0.0,-3.775,-3.9731,-4.2041,-4.3601,-4.4345,-4.4724,-4.4895,-4.4895,-4.3644,-4.2242,0.0,0.0,0.0,0.0,0.0,0.0,0.0,0.0,0.0,0.0,0.0,0.0,0.0,0.0,0.0,0.0,0.0,0.0,0.0,0.0,0.0,0.0,0.0,0.0,0.0,0.0,0.0,0.0,0.0,0.0,0.0,0.0,0.0,0.0,0.0,0.0,0.0,0.0,0.0,0.0,0.0,0.0,-3.6958,-3.7179,0.0,0.0,0.0,-3.6856,-3.6979,0.0,0.0,0.0,0.0,0.0,0.0,0.0,0.0,0.0,0.0,0.0,0.0,0.0,0.0,0.0,0.0,0.0,0.0,0.0,0.0,0.0,0.0,0.0,0.0,0.0,0.0,0.0,0.0,0.0,0.0,0.0,0.0,0.0,0.0,0.0,0.0,0.0,0.0,0.0,0.0,0.0,0.0,0.0,0.0,0.0,0.0,0.0,0.0,0.0,0.0,0.0,0.0,0.0,0.0,0.0,0.0,0.0,-4.0252,-4.2737,-4.4289,-4.4876,-4.4895,-4.4895,-4.4876,-4.3682,0.0,0.0,0.0,0.0,0.0,0.0,0.0,0.0,0.0,0.0,0.0,0.0,0.0,0.0,0.0,0.0,0.0,0.0,0.0,0.0,0.0,0.0,0.0,0.0,0.0,0.0,0.0,-2.8104,0.0,0.0,0.0,0.0,0.0,0.0,0.0,0.0,0.0,0.0,0.0,0.0,0.0,0.0,-3.7327,-3.7927,-3.8245,-3.8335,0.0,0.0,-3.7969,-3.7845,-3.7514,-3.6835,0.0,0.0,0.0,0.0,0.0,0.0,0.0,0.0,0.0,0.0,0.0,0.0,0.0,0.0,0.0,0.0,0.0,0.0,0.0,0.0,0.0,0.0,0.0,0.0,0.0,0.0,0.0,0.0,0.0,0.0,0.0,0.0,0.0,0.0,0.0,0.0,0.0,0.0,0.0,0.0,0.0,0.0,0.0,0.0,0.0,0.0,0.0,0.0,0.0,0.0,0.0,0.0,0.0,0.0,-3.9316,-4.0176,-4.3225,-4.4838,-4.4895,-4.4895,-4.4895,-4.4895,-4.4781,-4.3227,0.0,0.0,0.0,0.0,0.0,0.0,0.0,0.0,0.0,0.0,0.0,0.0,0.0,0.0,0.0,0.0,0.0,0.0,0.0,0.0,0.0,0.0,0.0,0.0,0.0,0.0,0.0,0.0,0.0,0.0,0.0,0.0,0.0,0.0,0.0,0.0,0.0,0.0,0.0,0.0,0.0,-3.7963,-3.882,-3.8955,-3.9315,0.0,-3.9995,-3.9727,-4.003,-4.0248,-3.9669,-3.7499,0.0,0.0,0.0,0.0,0.0,0.0,0.0,0.0,0.0,0.0,0.0,0.0,0.0,0.0,0.0,0.0,0.0,0.0,0.0,0.0,0.0,0.0,0.0,0.0,0.0,0.0,0.0,0.0,0.0,0.0,0.0,0.0,0.0,0.0,0.0,0.0,0.0,0.0,0.0,0.0,0.0,0.0,0.0,0.0,0.0,0.0,0.0,0.0,0.0,0.0,0.0,0.0,0.0,-3.9943,-4.0272,-4.3285,-4.4895,-4.4895,-4.4895,-4.4895,-4.4895,-4.4895,-4.3587,0.0,0.0,0.0,0.0,0.0,0.0,0.0,0.0,0.0,0.0,0.0,0.0,0.0,0.0,0.0,0.0,0.0,0.0,0.0,0.0,0.0,0.0,0.0,0.0,0.0,0.0,0.0,0.0,-3.1936,-3.1839,-3.1942,0.0,0.0,0.0,0.0,0.0,0.0,0.0,0.0,0.0,0.0,-3.9337,-4.0815,-4.1064,0.0,0.0,-4.1789,-4.1694,-4.1821,-4.0615,-3.9369,-3.848,-3.6767,0.0,0.0,0.0,0.0,0.0,0.0,0.0,0.0,0.0,0.0,0.0,0.0,0.0,0.0,0.0,0.0,0.0,0.0,0.0,0.0,0.0,0.0,0.0,0.0,0.0,0.0,0.0,0.0,0.0,0.0,0.0,0.0,0.0,0.0,0.0,0.0,0.0,0.0,0.0,0.0,0.0,0.0,0.0,0.0,0.0,0.0,0.0,0.0,0.0,0.0,0.0,0.0,-4.0422,-4.0653,-4.346,-4.4895,-4.4895,-4.4895,-4.4895,-4.4895,-4.4895,-4.3853,0.0,0.0,0.0,0.0,0.0,0.0,0.0,0.0,0.0,0.0,0.0,0.0,0.0,0.0,0.0,0.0,0.0,0.0,0.0,0.0,0.0,0.0,0.0,0.0,0.0,0.0,0.0,0.0,-3.3037,-3.2847,-3.2387,0.0,0.0,0.0,0.0,0.0,0.0,0.0,0.0,0.0,0.0,-4.0513,-4.1968,-4.229,-4.2515,-4.2848,-4.2764,-4.2614,-4.2531,-4.1026,-3.9619,-3.8859,0.0,0.0,0.0,0.0,0.0,0.0,0.0,0.0,0.0,0.0,0.0,0.0,0.0,0.0,0.0,0.0,0.0,0.0,0.0,0.0,0.0,0.0,0.0,0.0,0.0,0.0,0.0,0.0,0.0,0.0,-3.2172,0.0,0.0,0.0,0.0,0.0,0.0,0.0,0.0,0.0,0.0,0.0,0.0,0.0,0.0,0.0,0.0,0.0,0.0,0.0,0.0,0.0,0.0,-4.0653,-4.1397,-4.3738,-4.4933,-4.4933,-4.4895,-4.4914,-4.4933,-4.4895,-4.4118,-4.2431,0.0,0.0,0.0,0.0,0.0,0.0,0.0,0.0,0.0,0.0,0.0,0.0,0.0,0.0,0.0,0.0,0.0,0.0,0.0,0.0,0.0,0.0,0.0,0.0,0.0,0.0,-3.3306,-3.432,-3.4566,0.0,0.0,0.0,0.0,0.0,0.0,0.0,0.0,0.0,-3.9263,-4.0349,-4.1269,-4.1867,-4.2165,-4.254,-4.3039,-4.268,-4.2243,-4.2039,-4.1856,-4.1029,0.0,0.0,0.0,0.0,0.0,0.0,0.0,0.0,0.0,0.0,0.0,0.0,0.0,0.0,0.0,0.0,0.0,0.0,0.0,0.0,0.0,0.0,0.0,0.0,0.0,0.0,0.0,-3.5597,-3.5071,0.0,0.0,0.0,0.0,0.0,0.0,0.0,0.0,0.0,0.0,0.0,-3.9844,-4.0636,0.0,0.0,0.0,0.0,0.0,0.0,0.0,0.0,0.0,0.0,0.0,0.0,-4.1457,-4.2252,-4.455,-4.6032,-4.6506,-4.5464,-4.5179,-4.5748,-4.5748,-4.499,-4.3322,0.0,0.0,0.0,0.0,0.0,0.0,0.0,0.0,0.0,0.0,0.0,0.0,0.0,0.0,0.0,0.0,0.0,0.0,0.0,0.0,0.0,0.0,0.0,0.0,0.0,-3.2836,0.0,0.0,0.0,0.0,0.0,0.0,0.0,0.0,0.0,0.0,0.0,-3.9183,-4.084,-4.1705,-4.251,-4.3436,-4.3638,-4.3759,0.0,0.0,0.0,0.0,0.0,0.0,0.0,0.0,0.0,0.0,0.0,0.0,0.0,0.0,-3.9194,-3.6434,-3.4971,-3.4304,-3.4808,0.0,0.0,0.0,0.0,0.0,0.0,0.0,0.0,0.0,0.0,0.0,0.0,0.0,0.0,-3.8227,0.0,-3.7701,0.0,0.0,0.0,0.0,0.0,0.0,0.0,0.0,-4.1052,-4.2142,-4.2434,-4.3517,-4.3587,0.0,-4.2986,-4.1625,0.0,0.0,0.0,0.0,0.0,0.0,0.0,0.0,-4.1991,-4.309,-4.5119,-4.6297,-4.6487,-4.5748,-4.5483,-4.5729,-4.6051,-4.5691,-4.4611,-4.4023,-4.2564,0.0,0.0,0.0,0.0,0.0,0.0,0.0,0.0,0.0,0.0,0.0,0.0,0.0,0.0,0.0,0.0,0.0,0.0,0.0,0.0,0.0,0.0,0.0,-3.3833,0.0,0.0,0.0,0.0,0.0,0.0,0.0,0.0,0.0,-3.6858,-3.867,-4.0514,-4.1845,-4.269,-4.3397,-4.4009,0.0,0.0,0.0,0.0,0.0,0.0,0.0,-4.1582,-4.1717,-4.0993,-4.0308,-4.0165,-4.1343,-4.2087,-4.1512,0.0,0.0,-3.8763,-3.725,-3.6559,-3.71,-3.7187,-3.7355,-3.7877,-3.7858,-3.8044,0.0,0.0,0.0,0.0,0.0,0.0,0.0,0.0,-4.1286,-4.1227,0.0,-4.111,0.0,0.0,0.0,0.0,0.0,-4.15,0.0,0.0,-4.4906,-4.5685,-4.5053,-4.6522,-4.6879,-4.6161,-4.686,-4.6261,-4.4326,-4.1241,0.0,0.0,0.0,0.0,0.0,0.0,-4.2368,-4.3967,-4.5485,-4.5862,-4.516,-4.5767,-4.5767,-4.5085,-4.5862,-4.6297,-4.6278,-4.6259,-4.5085,-4.2583,-4.173,0.0,0.0,0.0,0.0,0.0,0.0,0.0,0.0,0.0,0.0,0.0,0.0,0.0,0.0,0.0,0.0,0.0,0.0,0.0,0.0,-3.5728,0.0,0.0,0.0,0.0,0.0,0.0,0.0,0.0,0.0,0.0,-3.9184,-4.07,-4.2025,-4.2312,0.0,0.0,0.0,0.0,-4.3974,-4.4005,-4.349,-4.3118,-4.3118,-4.3062,-4.2717,-4.1757,0.0,0.0,-4.1872,-4.289,-4.3417,-4.1869,-4.2036,-4.2341,-4.2264,-4.0979,-4.0129,-4.0185,-4.0148,-4.0259,-4.0296,-4.0173,-4.0244,-4.5144,0.0,0.0,0.0,0.0,-4.2877,-4.3585,-4.4734,-4.4734,-4.4052,-4.2883,-4.2877,0.0,0.0,0.0,0.0,0.0,0.0,-4.4428,-4.5073,-4.6358,-4.7134,-4.7522,-4.7932,-4.8024,-4.7779,-4.7831,-4.7518,-4.6877,-4.5841,-4.3388,-3.9693,0.0,0.0,0.0,0.0,-4.5156,-4.5556,-4.6531,-4.7226,-4.7605,-4.6089,-4.571,-4.6657,-4.7529,-4.7984,-4.7984,-4.7984,-4.679,-4.4326,-4.3966,0.0,0.0,0.0,0.0,0.0,0.0,0.0,0.0,0.0,0.0,0.0,0.0,0.0,0.0,0.0,0.0,0.0,0.0,0.0,-3.6644,-3.531,-3.4988,0.0,0.0,0.0,0.0,0.0,0.0,0.0,0.0,0.0,-4.1314,-4.1802,-4.2506,0.0,0.0,-4.3682,-4.3828,-4.3749,-4.3649,-4.3649,-4.3494,0.0,-4.3393,-4.2913,-4.2641,-4.2894,-4.3383,-4.3545,-4.3004,-4.3317,-4.3483,-4.3004,-4.3033,-4.3149,-4.3075,-4.1912,-4.113,-4.1553,-4.1719,-4.1903,-4.2386,-4.2518,-4.2488,-4.9008,-4.6995,-4.5007,-4.4734,-4.5631,-4.567,-4.6254,-4.7228,-4.7248,-4.6624,-4.567,-4.567,-4.491,-4.3624,-4.3226,0.0,0.0,0.0,-4.626,-4.7056,-4.7556,-4.8048,-4.8553,-4.8839,-4.8938,-4.8841,-4.8692,-4.8683,-4.8783,-4.8384,-4.6488,-4.3247,0.0,0.0,-4.2604,-4.5057,-4.6453,-4.6695,-4.7472,-4.7851,-4.7662,-4.588,-4.5691,-4.7321,-4.7908,-4.8496,-4.914,-4.9159,-4.8306,-4.6487,-4.5767,-4.4194,0.0,0.0,0.0,0.0,0.0,0.0,0.0,0.0,0.0,0.0,0.0,-3.2633,-3.1746,0.0,0.0,0.0,-3.5571,-3.6801,-3.7073,-3.6601,0.0,0.0,0.0,0.0,0.0,0.0,0.0,-4.0756,-4.1627,-4.239,-4.3133,-4.3224,-4.3382,-4.3763,-4.3615,-4.3676,-4.4225,0.0,-4.4066,-4.4397,-4.4452,-4.4433,-4.4433,-4.4048,-4.3883,-4.436,-4.4433,-4.4452,-4.4433,-4.4452,-4.4433,-4.4433,-4.4452,-4.4452,-4.4433,-4.3644,-4.2873,-4.28,-4.2782,-4.2947,-4.3406,-4.3479,-4.3479,-5.2532,-5.2489,-5.017,-4.9118,-4.9001,-4.9079,-4.9021,-4.8904,-4.8962,-4.8923,-4.8806,-4.8806,-4.8358,-4.754,-4.6839,0.0,-4.7531,-4.7641,-4.8066,-4.8716,-4.8684,-4.8703,-4.8742,-4.9432,-4.9685,-4.9507,-4.947,-4.9717,-5.0135,-4.9363,-4.8523,-4.7586,-4.6847,-4.6392,-4.6203,-4.6392,-4.6828,-4.7491,-4.8211,-4.7795,-4.6127,-4.5369,-4.5767,-4.734,-4.7472,-4.8249,-4.9784,-4.9822,-4.9424,-4.859,-4.7055,-4.5445,-4.3758,0.0,0.0,0.0,0.0,0.0,0.0,0.0,0.0,0.0,0.0,0.0,0.0,0.0,0.0,0.0,-3.6398,0.0,-3.7458,-3.8927,0.0,0.0,0.0,-3.9401,-4.0097,-4.0723,-4.1421,-4.2229,0.0,0.0,-4.4602,-4.4747,-4.4525,-4.3791,-4.3681,-4.3956,-4.469,-4.4819,-4.5076,-4.57,-4.5865,-4.5865,-4.5736,-4.5718,-4.5681,-4.5736,-4.5902,-4.5792,-4.5792,-4.5828,-4.5865,-4.5792,-4.5883,-4.5847,-4.5883,-4.5718,-4.5424,-4.3956,-4.3718,-4.3718,-4.3791,-4.3809,-4.3828,-5.3535,-5.3541,-5.2937,-5.1943,-5.0774,-5.1417,-5.093,-4.98,-5.0424,-4.9995,-4.8806,-4.8806,-4.8655,-4.8427,-4.8835,-4.9109,-4.9299,-4.9932,-5.0285,-5.0403,-5.0351,-5.0337,-5.0341,-5.0422,-5.0449,-5.0374,-5.0114,-5.0073,-5.0188,-4.9829,-4.9535,-4.9292,-4.9121,-4.806,-4.6335,-4.806,-4.8799,-4.8382,-4.7927,-4.6885,-4.5293,-4.5653,-4.6354,-4.7359,-4.8041,-4.8856,-4.9841,-4.9292,-4.859,-4.7738,-4.6733,-4.5426,-4.3777,-4.192,0.0,0.0,0.0,0.0,0.0,0.0,0.0,0.0,0.0,-3.6836,-3.3364,0.0,-3.781,0.0,-3.7186,-3.8711,-4.0281,-3.963,0.0,0.0,-4.051,-4.0831,-4.324,-4.301,-4.3232,-4.4711,-4.5096,-4.5297,-4.5498,-4.5553,-4.5553,-4.5351,-4.5314,-4.5388,-4.5608,-4.5626,-4.5681,-4.5883,-4.5957,-4.5902,-4.5957,-4.5902,-4.5938,-4.5902,-4.592,-4.5902,-4.5902,-4.5902,-4.5902,-4.5902,-4.5902,-4.5902,-4.5938,-4.5902,-4.581,-4.5424,-4.5333,-4.5314,-4.5333,-4.5296,-4.5314,-5.4769,-5.4789,-5.4789,-5.4225,-5.3363,-5.3244,-5.2625,-5.1807,-5.2255,-5.1729,-5.0463,-5.0049,-4.9857,-4.9849,-5.0227,-5.0417,-5.0428,-5.0843,-5.1017,-5.0947,-5.0902,-5.0874,-5.0808,-5.0738,-5.0625,-5.0483,-5.0283,-5.0158,-5.0063,-4.9959,-4.9879,-4.9879,-4.9879,-4.9197,-4.7965,-4.9216,-4.9652,-4.9216,-4.8022,-4.6752,-4.5558,-4.5956,-4.6582,-4.7378,-4.8249,-4.8913,-4.9349,-4.8932,-4.8287,-4.7416,-4.662,-4.5596,-4.4289,-4.3038,-4.1768,0.0,0.0,0.0,0.0,0.0,0.0,0.0,0.0,0.0,0.0,0.0,-3.9946,-3.8989,-3.9786,-4.1026,-4.2621,-4.2206,-4.243,-4.3802,-4.3225,-4.3376,-4.5039,-4.4729,-4.473,-4.5681,-4.5791,-4.5937,-4.6172,-4.6341,-4.6544,-4.6873,-4.6929,-4.6838,-4.6526,-4.6452,-4.6562,-4.6911,-4.6966,-4.6985,-4.6966,-4.6966,-4.6985,-4.6966,-4.6966,-4.6985,-4.6966,-4.6966,-4.6966,-4.6966,-4.6966,-4.6966,-4.6966,-4.6966,-4.6966,-4.6966,-4.6966,-4.6709,-4.6049,-4.5902,-4.5902,-5.5915,-5.5915,-5.5915,-5.5915,-5.5816,-5.4638,-5.409,-5.3993,-5.3993,-5.3497,-5.2621,-5.1716,-5.1295,-5.1306,-5.1132,-5.0978,-5.0942,-5.0942,-5.0917,-5.0839,-5.0822,-5.0771,-5.0644,-5.0625,-5.0504,-5.0212,-5.0163,-5.0082,-4.9906,-4.9879,-4.9879,-4.9879,-4.9879,-4.9879,-4.9879,-4.9879,-4.9784,-4.9557,-4.8136,-4.6961,-4.6051,-4.6146,-4.6582,-4.7378,-4.8117,-4.8572,-4.8666,-4.859,-4.8174,-4.7434,-4.6714,-4.5956,-4.5103,-4.4308,-4.3095,0.0,-4.1256,0.0,0.0,0.0,0.0,0.0,0.0,0.0,0.0,-4.1166,-4.1963,-4.254,-4.2941,-4.3574,-4.4416,-4.5164,-4.5603,-4.5753,-4.5791,-4.5902,-4.5993,-4.5974,-4.5992,-4.6083,-4.6083,-4.6358,-4.6919,-4.7165,-4.7516,-4.7988,-4.8157,-4.7921,-4.7425,-4.726,-4.7498,-4.8233,-4.8324,-4.8104,-4.8159,-4.8233,-4.8214,-4.8269,-4.8196,-4.8324,-4.8233,-4.8233,-4.8269,-4.8269,-4.8196,-4.8233,-4.8306,-4.8269,-4.8269,-4.8196,-4.8177,-4.7774,-4.6691,-4.6342,-4.6214,-5.5915,-5.5915,-5.5915,-5.5915,-5.5877,-5.5633,-5.5126,-5.4467,-5.4467,-5.3983,-5.3116,-5.2172,-5.1788,-5.1776,-5.1037,-5.0659,-5.0604,-5.0604,-5.0567,-5.0469,-5.0507,-5.0507,-5.0446,-5.0355,-5.0259,-5.0188,-5.0057,-4.9952,-4.9879,-4.9879,-4.9879,-4.9879,-4.9879,-4.9879,-4.9879,0.0,0.0,0.0,-4.7567,-4.6676,-4.5236,-4.5843,-4.6582,-4.7359,-4.7548,0.0,-4.8628,-4.8003,-4.7567,-4.7397,-4.7245,0.0,0.0,0.0,0.0,0.0,0.0,0.0,0.0,0.0,0.0,0.0,-4.4908,-4.3988,-4.236,-4.3054,-4.3761,-4.4125,-4.456,-4.4892,-4.5095,-4.5376,-4.5524,-4.5563,-4.564,-4.5915,-4.6517,-4.6722,-4.696,-4.7503,-4.7732,-4.7826,-4.7876,-4.8009,-4.8122,-4.8231,-4.8306,-4.8251,-4.8104,-4.8031,-4.8141,-4.8288,-4.8324,-4.8324,-4.8324,-4.8324,-4.8324,-4.8324,-4.8324,-4.8324,-4.8324,-4.8324,-4.8324,-4.8324,-4.8324,-4.8324,-4.8324,-4.8324,-4.8324,-4.8324,-4.8324,-4.8214,-4.7921,-4.7829,-4.7865,-5.5711,0.0,-5.5645,-5.5645,0.0,-5.5665,-5.5374,-5.491,-5.5151,-5.4721,-5.3836,-5.2859,-5.2242,-5.1876,-5.1375,-5.0873,-5.0449,-5.0449,-5.0448,-5.0404,-5.0385,-5.0361,-5.031,-5.0656,-5.0767,-5.0703,-5.0995,-5.1149,-5.113,-5.113,-5.0921,-5.0542,-5.0542,-5.0334,-4.9898,-4.9879,-4.9064,-4.7416,-4.7397,-4.6582,-4.5047,-4.6146,-4.698,-4.7397,-4.8193,0.0,0.0,0.0,0.0,0.0,0.0,0.0,0.0,-4.6354,0.0,-4.4933,-4.4478,-4.444,-4.4838,-4.4732,-4.5327,-4.6994,-4.7215,-4.6637,-4.5249,-4.5369,-4.5692,-4.6072,-4.6332,-4.6527,-4.6585,-4.6644,-4.6724,-4.6728,-4.6767,-4.6971,-4.7317,-4.7448,-4.7594,-4.7922,-4.8111,-4.813,-4.8046,-4.8187,-4.8208,-4.8151,-4.8229,-4.8324,-4.8324,-4.8324,-4.8324,-4.8324,-4.8324,-4.8324,-4.8324,-4.8324,-4.8324,-4.8324,-4.8324,-4.8324,-4.8324,-4.8324,-4.8324,-4.8324,-4.8324,-4.8324,-4.8324,-4.8324,-4.8324,-4.8324,-4.8324,-4.8324,-4.8324,-4.8324,-4.8324,-5.5504,-5.5403,-5.5403,-5.5403,-5.5377,-5.5358,-5.5313,-5.521,0.0,0.0,0.0,-5.3563,-5.2768,-5.2135,-5.1932,-5.1446,-5.0776,-5.0734,-5.0776,-5.0757,-5.0753,-5.0684,-5.0634,-5.1263,-5.1521,-5.1452,-5.2096,-5.24,-5.24,-5.24,-5.2077,-5.1471,-5.1282,-5.077,-4.9955,-4.9879,-4.914,-4.77,-4.7472,-4.6601,-4.5009,-4.6544,-4.7397,-4.7397,-4.8875,-4.9367,-4.8723,-4.8712,-4.8363,-4.7681,-4.7776,-4.7776,-4.7643,-4.7553,-4.7451,-4.7318,-4.7227,-4.7257,-4.7427,-4.7183,-4.7372,-4.8178,-4.827,-4.8126,-4.7661,-4.7316,-4.7262,-4.7663,-4.7699,-4.7741,-4.7861,-4.7861,-4.7884,-4.7929,-4.797,-4.7933,-4.7951,-4.797,-4.7951,-4.801,-4.801,-4.801,-4.7966,-4.8108,-4.8187,-4.8111,-4.8172,-4.8324,-4.8324,-4.8324,-4.8324,-4.8324,-4.8324,-4.8324,-4.8324,-4.8324,-4.8324,-4.8324,-4.8324,-4.8324,-4.8324,-4.8324,-4.8324,-4.8324,-4.8324,-4.8324,-4.8324,-4.8324,-4.8324,-4.8324,-4.8324,-4.8324,-4.8324,-4.8324,-4.8324,-5.5409,-5.5403,-5.5403,-5.5339,-5.5229,-5.5229,-5.5176,-5.5121,-5.513,-5.5115,-5.504,-5.4101,-5.3628,-5.3476,-5.2726,-5.2292,-5.2123,-5.2123,-5.2104,-5.2123,-5.2123,-5.2123,-5.2087,-5.22,-5.2257,-5.2248,-5.2362,-5.24,-5.24,-5.2419,-5.2343,-5.2172,-5.1547,-5.0789,-4.9955,-4.9879,-4.9424,-4.8534,-4.7776,-4.6601,-4.499,-4.6544,-4.7397,-4.7434,-4.8363,-4.8818,-4.8704,-4.8704,-4.8647,-4.8534,-4.9159,-4.9216,-4.8553,-4.8202,-4.769,-4.7003,-4.6669,-4.6792,-4.7518,-4.7541,-4.7862,-4.859,-4.8458,-4.8135,-4.7725,-4.7643,-4.7632,-4.7699,-4.7699,-4.7699,-4.7717,-4.7759,-4.7741,-4.7741,-4.7741,-4.7741,-4.7741,-4.7897,-4.7938,-4.7956,-4.8087,-4.8221,-4.8254,-4.8318,-4.8394,-4.8302,-4.8485,-4.8398,-4.8471,-4.8324,-4.8324,-4.8324,-4.8324,-4.8324,-4.8398,-4.8324,-4.8416,-4.8324,-4.8398,-4.8416,-4.8416,-4.8361,-4.8324,-4.8324,-4.8324,-4.8324,-4.8324,-4.8324,-4.8324,-4.8324,-4.8324,-4.8324,-4.8324,-4.8324,-4.8324,-5.5358,-5.5294,-5.5294,-5.5222,-5.5149,-5.5121,-5.5094,-5.5094,-5.5019,-5.5,-5.5047,-5.4601,-5.4164,-5.3746,-5.3329,-5.2864,-5.24,-5.24,-5.24,-5.24,-5.24,-5.24,-5.2456,-5.2873,-5.312,-5.3139,-5.3556,-5.3764,-5.3764,-5.3764,-5.3537,-5.3101,-5.2267,-5.1642,-5.1263,-5.0827,-5.0182,-4.9349,-4.8515,-4.751,-4.6316,-4.7453,-4.8098,-4.8117,-4.8913,-4.933,-4.933,-4.933,-4.9349,-4.933,-4.969,-4.9709,-4.9367,-4.9201,-4.8823,-4.8288,-4.8078,-4.8068,-4.824,-4.8068,-4.8034,-4.8194,-4.8053,-4.7907,-4.7699,-4.7699,-4.7699,-4.7699,-4.7699,-4.7699,-4.7699,-4.7699,-4.7699,-4.7699,-4.7699,-4.7699,-4.7772,-4.8194,-4.8412,-4.849,-4.892,-4.924,-4.9258,-4.9305,-4.9309,-4.9309,-4.9368,-4.945,-4.953,-4.9548,-4.9218,-4.8469,-4.8324,-4.8545,-4.8893,-4.8967,-4.915,-4.9554,-4.9279,-4.904,-4.8948,-4.8691,-4.8343,-4.8324,-4.8324,-4.8324,-4.8324,-4.8324,-4.8324,-4.8324,-4.8324,-4.8324,-4.8324,-4.8324,-4.8324,-5.5294,-5.5203,-5.5183,-5.5149,-5.5085,-5.5,-5.5,-5.5057,-5.4941,-5.4931,-5.4971,-5.4931,-5.456,-5.401,-5.3973,-5.3613,-5.3044,-5.2968,-5.2987,-5.2968,-5.2968,-5.2968,-5.3025,-5.3669,-5.3973,-5.4029,-5.4617,-5.4901,-5.4901,-5.4901,-5.4484,-5.3707,-5.3025,-5.2608,-5.24,-5.1793,-5.1054,-5.0201,-4.9557,-4.8666,-4.7472,-4.8249,-4.8712,-4.8742,-4.9462,-4.9879,-4.9879,-5.0069,-5.0155,-5.008,-5.0223,-5.0194,-4.9948,-4.9852,-4.9577,-4.9193,-4.9057,-4.8776,-4.8328,-4.8234,-4.805,-4.7759,-4.8061,-4.8242,-4.8242,-4.8242,-4.8061,-4.779,-4.7699,-4.7772,-4.7971,-4.8007,-4.8043,-4.8206,-4.8242,-4.8333,-4.8315,-4.8804,-4.9184,-4.9257,-4.9753,-5.0123,-5.0159,-5.0289,-5.0283,-5.0307,-5.0417,-5.0501,-5.0602,-5.0643,-5.0098,-4.9313,-4.8875,-4.915,-4.9756,-4.9829,-5.005,-5.0729,-5.0068,-4.9609,-4.9389,-4.8857,-4.8379,-4.8324,-4.8324,-4.8324,-4.8324,-4.8324,-4.8324,-4.8324,-4.8324,-4.8324,-4.8324,-4.8324,-4.8324,-5.5222,-5.5203,-5.5206,-5.5066,-5.5038,-5.496,-5.4931,-5.4931,-5.4901,-5.4901,-5.4901,-5.4901,-5.4863,-5.4806,-5.4769,-5.4693,-5.4598,-5.4655,-5.4617,-5.4617,-5.4674,-5.4655,-5.4579,-5.4731,-5.4806,-5.4769,-5.4863,-5.4901,-5.4901,-5.4901,-5.4522,-5.3783,-5.3613,-5.3196,-5.2532,-5.2362,-5.1907,-5.1111,-5.1016,-4.9822,-4.7605,-4.8249,-4.8712,-4.8704,-4.95,-4.9879,-5.0012,-5.0656,-5.0912,-5.0623,-5.1211,-5.1101,-5.0145,-4.9658,-4.9139,-4.8494,-4.8072,-4.7538,-4.688,-4.7366,-4.7777,-4.7826,-4.9039,-4.9782,-4.9782,-4.9818,-4.922,-4.817,-4.7753,-4.8116,-4.8677,-4.8804,-4.9039,-4.9582,-4.9709,-4.9854,-4.9782,-4.9927,-4.9981,-4.9981,-5.0275,-5.0411,-5.0514,-5.072,-5.079,-5.0918,-5.0955,-5.0955,-5.1018,-5.1018,-5.0982,-5.0674,-5.0563,-5.0563,-5.071,-5.0692,-5.0802,-5.0839,-5.0178,-4.9866,-4.9701,-4.915,-4.8361,-4.8802,-4.8526,-4.8581,-4.8416,-4.8324,-4.8361,-4.8324,-4.8324,-4.8324,-4.8324,-4.8324,-4.8324,-5.5973,-5.5949,-5.6397,-5.6235,-5.57,-5.5129,-5.4901,-5.4901,-5.4901,-5.4901,-5.4901,-5.4901,-5.4901,-5.4901,-5.4901,-5.4901,-5.4901,-5.4901,-5.4901,-5.4901,-5.4901,-5.4901,-5.4901,-5.4901,-5.4901,-5.4901,-5.4901,-5.4901,-5.4901,-5.4901,-5.4731,-5.4446,-5.4408,-5.4219,-5.3859,-5.3404,-5.276,-5.1926,-5.1452,-5.0448,-4.9178,-4.9728,-5.0391,-5.0865,-5.1225,-5.1376,-5.1414,-5.1736,-5.185,-5.1684,-5.1764,-5.1603,-5.108,-5.0229,-4.9509,-4.8967,-4.8166,-4.7772,-4.7916,-4.8242,-4.8623,-4.9075,-4.9691,-5.009,-5.009,-5.009,-4.9764,-4.9275,-4.9112,-4.9275,-4.9564,-4.9619,-4.9745,-5.0035,-5.009,-5.0108,-5.009,-5.0524,-5.0796,-5.0832,-5.1302,-5.1619,-5.1663,-5.1752,-5.1882,-5.1968,-5.1968,-5.1956,-5.2035,-5.2113,-5.2132,-5.2174,-5.2215,-5.1995,-5.1646,-5.1499,-5.1701,-5.194,-5.1555,-5.1041,-5.082,-5.0343,-4.9811,-4.9738,-4.9664,-4.9444,-4.915,-4.9022,-4.8967,-4.8618,-4.8324,-4.8324,-4.8324,-4.8324,-4.8324,-5.6605,-5.6778,-5.73,-5.7032,-5.6152,-5.5527,-5.511,-5.4901,-5.4901,-5.4901,-5.4901,-5.4901,-5.4901,-5.4901,-5.4901,-5.4901,-5.4901,-5.4901,-5.4901,-5.4901,-5.4901,-5.4901,-5.4901,-5.4901,-5.4901,-5.4901,-5.4901,-5.5034,-5.5223,-5.5242,-5.5356,-5.5546,-5.5583,-5.5583,-5.5527,-5.4977,-5.4048,-5.2836,-5.2172,-5.1329,-5.0374,-5.0912,-5.1594,-5.2049,-5.2305,-5.24,-5.2419,-5.2521,-5.2526,-5.2397,-5.2263,-5.1987,-5.1638,-5.062,-4.9689,-4.8956,-4.8156,-4.7953,-4.8568,-4.8985,-4.9474,-5.0035,-5.0434,-5.076,-5.0741,-5.076,-5.076,-5.0741,-5.0741,-5.0687,-5.0434,-5.0416,-5.0506,-5.0687,-5.076,-5.0741,-5.0814,-5.1303,-5.1629,-5.1683,-5.2055,-5.2572,-5.2554,-5.2554,-5.2589,-5.2696,-5.2795,-5.2893,-5.2999,-5.2987,-5.303,-5.3182,-5.3188,-5.2949,-5.2435,-5.2325,-5.2674,-5.2747,-5.2417,-5.1867,-5.1922,-5.1298,-5.0802,-5.0325,-5.0692,-5.049,-4.9627,-4.9444,-4.9242,-4.8618,-4.8324,-4.8324,-4.8324,-4.8324,-4.8324,-5.6816,-5.743,-5.7446,-5.7005,-5.6228,-5.6171,-5.5697,-5.5091,-5.4996,-5.4958,-5.5034,-5.5015,-5.4939,-5.5015,-5.5072,-5.492,-5.4901,-5.4901,-5.4939,-5.4977,-5.4977,-5.492,-5.4901,-5.4901,-5.4958,-5.5129,-5.5148,-5.5451,-5.6114,-5.6152,-5.6531,-5.7175,-5.7156,-5.7213,-5.7137,-5.6993,-5.6,-5.3905,-5.3478,-5.2583,-5.0961,-5.1386,-5.1638,-5.1481,-5.203,-5.2456,-5.2494,-5.2843,-5.2885,-5.2437,-5.2779,-5.2498,-5.1471,-5.0566,-4.9415,-4.8122,-4.7772,-4.7772,-4.8116,-4.9275,-5.0108,-5.0325,-5.1466,-5.2317,-5.2154,-5.2154,-5.2154,-5.2317,-5.2172,-5.1937,-5.1357,-5.123,-5.152,-5.2118,-5.2281,-5.2263,-5.2299,-5.2208,-5.2426,-5.2371,-5.2481,-5.2627,-5.2717,-5.2806,-5.2761,-5.2806,-5.2893,-5.2999,-5.3042,-5.3121,-5.3164,-5.3164,-5.3206,-5.3188,-5.3133,-5.2968,-5.3041,-5.3078,-5.2692,-5.2087,-5.1738,-5.1426,-5.1132,-5.0894,-5.0986,-5.0692,-4.9921,-4.9389,-4.9058,-4.8636,-4.8379,-4.8324,-4.8324,-4.8324,-4.8324,-5.8422,-5.9026,-5.8458,-5.8047,-5.7744,-5.7213,-5.6777,-5.6531,-5.6493,-5.6512,-5.6493,-5.6493,-5.6512,-5.6512,-5.6493,-5.5906,-5.4958,-5.4901,-5.5185,-5.5659,-5.5735,-5.6,-5.6455,-5.6493,-5.6512,-5.6493,-5.6512,-5.6664,-5.691,-5.6986,-5.7099,-5.7346,-5.7403,-5.7403,-5.7352,-5.7102,-5.6214,-5.4952,-5.4078,-5.2989,-5.1894,-5.2043,-5.2095,-5.2012,-5.2794,-5.3225,-5.3225,-5.3418,-5.3404,-5.3218,-5.3179,-5.2926,-5.2407,-5.0955,-4.9872,-4.9275,-4.8768,-4.8931,-4.989,-5.0524,-5.1104,-5.1611,-5.2136,-5.2498,-5.2498,-5.2498,-5.2498,-5.2498,-5.2498,-5.2299,-5.2172,-5.2045,-5.2154,-5.2408,-5.2498,-5.2498,-5.2498,-5.2498,-5.2498,-5.2498,-5.2526,-5.2536,-5.2654,-5.2654,-5.2743,-5.2912,-5.2955,-5.2999,-5.3103,-5.3164,-5.3206,-5.3206,-5.3206,-5.3206,-5.3206,-5.3188,-5.3188,-5.317,-5.2949,-5.2821,-5.2564,-5.2472,-5.2252,-5.205,-5.1885,-5.1279,-5.06,-4.9389,-4.9022,-4.8691,-4.8434,-4.8324,-4.8324,-4.8434,-4.8398,-5.9501,-5.9849,-5.933,-5.8919,-5.8635,-5.8066,-5.7649,-5.7422,-5.7403,-5.7403,-5.7403,-5.7403,-5.7403,-5.7403,-5.7403,-5.6834,-5.5773,-5.5716,-5.6019,-5.655,-5.6588,-5.6891,-5.7308,-5.7403,-5.7403,-5.7403,-5.7403,-5.7466,-5.7583,-5.7602,-5.7668,-5.7777,-5.7758,-5.7793,-5.7724,-5.7472,-5.68,-5.5735,-5.48,-5.3864,-5.2821,-5.2856,-5.2779,-5.2625,-5.3271,-5.3727,-5.372,-5.3567,-5.3508,-5.3468,-5.3138,-5.2791,-5.24,-5.1209,-5.0343,-5.009,-4.9854,-5.0108,-5.1122,-5.152,-5.1919,-5.2408,-5.2498,-5.2498,-5.2498,-5.2498,-5.2498,-5.2498,-5.2498,-5.2498,-5.2498,-5.248,-5.2498,-5.2498,-5.2498,-5.2498,-5.2498,-5.2498,-5.2498,-5.2498,-5.2498,-5.2508,-5.2536,-5.2563,-5.2627,-5.2824,-5.2868,-5.2893,-5.2999,-5.3103,-5.3146,-5.3146,-5.3164,-5.3164,-5.3206,-5.3206,-5.3206,-5.3188,-5.317,-5.3188,-5.3206,-5.3206,-5.3188,-5.3096,-5.2692,-5.205,-5.1041,-4.9738,-4.9095,-4.8783,-4.8453,-4.8324,-4.8434,-4.8618,-4.8765,-5.9885,-5.9885,-5.9885,-5.9412,-5.8843,-5.871,-5.8218,-5.7687,-5.7573,-5.7668,-5.7744,-5.7554,-5.7687,-5.7554,-5.7725,-5.7479,-5.7441,-5.7403,-5.7403,-5.7422,-5.7422,-5.7479,-5.763,-5.7668,-5.7687,-5.7668,-5.7516,-5.7683,-5.8031,-5.8068,-5.8241,-5.8486,-5.8486,-5.8434,-5.8553,-5.833,-5.7676,-5.6462,-5.5955,-5.5014,-5.3408,-5.3781,-5.3687,-5.2854,-5.3352,-5.3723,-5.3717,-5.3304,-5.3096,-5.3054,-5.2779,-5.2164,-5.1683,-5.1312,-5.0923,-5.0506,-5.0832,-5.1212,-5.1411,-5.2009,-5.2371,-5.2498,-5.2498,-5.2498,-5.2498,-5.2498,-5.2498,-5.2498,-5.2498,-5.2498,-5.2498,-5.2498,-5.2498,-5.2498,-5.2498,-5.2498,-5.2498,-5.2498,-5.2498,-5.2498,-5.2498,-5.2498,-5.2498,-5.248,-5.2526,-5.2554,-5.2627,-5.268,-5.2743,-5.2912,-5.2999,-5.3042,-5.3103,-5.3206,-5.3206,-5.3206,-5.3206,-5.3206,-5.3206,-5.3206,-5.3206,-5.3206,-5.3206,-5.3133,-5.2821,-5.2179,-5.1389,-5.0215,-4.9848,-4.9481,-4.8967,-4.8728,-4.9003,-4.9334,-4.9499,-5.9904,-5.9904,-5.9904,-5.9753,-5.9525,-5.9525,-5.9336,-5.9127,-5.9108,-5.9108,-5.9108,-5.9108,-5.9108,-5.9108,-5.9108,-5.9089,-5.9108,-5.9108,-5.8824,-5.8369,-5.8293,-5.8578,-5.8995,-5.9089,-5.9108,-5.9108,-5.9127,-5.8986,-5.8801,-5.8784,-5.8745,-5.8632,-5.8586,-5.8586,-5.8545,-5.827,-5.7781,-5.735,-5.6447,-5.5668,-5.5073,-5.4789,-5.4506,-5.4164,-5.3892,-5.3735,-5.3671,-5.3053,-5.269,-5.2672,-5.2572,-5.2371,-5.2082,-5.1593,-5.1448,-5.1683,-5.1411,-5.1574,-5.2063,-5.2317,-5.2498,-5.2498,-5.2498,-5.2498,-5.2498,-5.2498,-5.2498,-5.2498,-5.2498,-5.2498,-5.2498,-5.2498,-5.2498,-5.2498,-5.2498,-5.2498,-5.2498,-5.2516,-5.2498,-5.2498,-5.2498,-5.2498,-5.2516,-5.2552,-5.2671,-5.2663,-5.2672,-5.2717,-5.2771,-5.3032,-5.2999,-5.2999,-5.3103,-5.3201,-5.3164,-5.3164,-5.3206,-5.3206,-5.3206,-5.3206,-5.3206,-5.3206,-5.3206,-5.3115,-5.2803,-5.2362,-5.1555,-5.0967,-5.0563,-5.038,-5.0105,-5.0013,-5.0031,-5.016,-5.0343,-5.9904,-5.9904,-5.9904,-5.9904,-5.9904,-5.9904,-5.9904,-5.9904,-5.9904,-5.9904,-5.9885,-5.9885,-5.9904,-5.9904,-5.9904,-5.9904,-5.9904,-5.9904,-5.962,-5.9203,-5.9146,-5.9449,-5.9866,-5.9904,-5.9904,-5.9853,-5.9715,-5.9434,-5.8969,-5.8812,-5.8526,-5.8157,-5.8068,-5.8068,-5.8068,-5.7812,-5.7642,-5.7521,-5.6879,-5.6446,-5.6337,-5.5993,-5.5631,-5.5287,-5.4816,-5.4273,-5.3766,-5.3204,-5.2788,-5.257,-5.2498,-5.2498,-5.2444,-5.2027,-5.1973,-5.2245,-5.21,-5.1991,-5.2426,-5.2462,-5.2498,-5.2498,-5.2498,-5.2498,-5.2498,-5.2498,-5.2498,-5.2498,-5.2498,-5.2498,-5.2498,-5.2498,-5.2498,-5.2498,-5.2498,-5.2498,-5.2534,-5.277,-5.2933,-5.3041,-5.3241,-5.3349,-5.3403,-5.3385,-5.3414,-5.3425,-5.3425,-5.3471,-5.3581,-5.3709,-5.359,-5.3496,-5.3548,-5.3481,-5.3176,-5.3164,-5.3206,-5.3206,-5.3206,-5.3206,-5.3206,-5.3206,-5.3206,-5.317,-5.2968,-5.2894,-5.2215,-5.1665,-5.1224,-5.1169,-5.1077,-5.0692,-5.0508,-5.0986,-5.1187,-5.9904,-5.9904,-5.9904,-5.9904,-5.9904,-5.9904,-5.9904,-5.9904,-5.9904,-5.9904,-5.9904,-5.9904,-5.9904,-5.9904,-5.9904,-5.9904,-5.9904,-5.9904,-5.9866,-5.9809,-5.9791,-5.9847,-5.9885,-5.9801,-5.9767,-5.9734,-5.938,-5.8988,-5.8526,-5.8201,-5.769,-5.737,-5.732,-5.7239,-5.732,-5.7239,-5.7239,-5.722,-5.7134,-5.7098,-5.7116,-5.7098,-5.679,-5.6084,-5.5866,-5.5251,-5.4255,-5.3766,-5.3259,-5.2625,-5.2498,-5.2498,-5.2498,-5.2498,-5.2444,-5.2498,-5.248,-5.2426,-5.248,-5.2498,-5.2498,-5.2498,-5.2498,-5.2498,-5.2498,-5.2498,-5.2498,-5.2498,-5.2498,-5.2498,-5.2498,-5.2498,-5.2498,-5.2498,-5.2498,-5.2498,-5.2552,-5.3168,-5.3512,-5.3729,-5.4345,-5.4852,-5.4653,-5.4671,-5.4689,-5.4689,-5.4635,-5.461,-5.461,-5.4506,-5.4517,-5.4337,-5.4072,-5.3778,-5.3536,-5.314,-5.3182,-5.3206,-5.3206,-5.3206,-5.3206,-5.3206,-5.3206,-5.317,-5.3151,-5.3115,-5.2931,-5.2344,-5.2068,-5.205,-5.1701,-5.1096,-5.1224,-5.1793,-5.1811,-5.9904,-5.9904,-5.9904,-5.9904,-5.9904,-5.9904,-5.9904,-5.9904,-5.9904,-5.9904,-5.9904,-5.9904,-5.9904,-5.9904,-5.9904,-5.9904,-5.9904,-5.9904,-5.9904,-5.9904,-5.9904,-5.9904,-5.9801,-5.954,-5.938,-5.9344,-5.8949,-5.8526,-5.8113,-5.7951,-5.7642,-5.7188,-5.7188,-5.7188,-5.7188,-5.7188,-5.7188,-5.7188,-5.7188,-5.7188,-5.7188,-5.7188,-5.7098,-5.688,-5.6319,-5.583,-5.5269,-5.4273,-5.3331,-5.2589,-5.2498,-5.2498,-5.2498,-5.2498,-5.2498,-5.2498,-5.2498,-5.2498,-5.2498,-5.2498,-5.2498,-5.2498,-5.2498,-5.2498,-5.2498,-5.2498,-5.2498,-5.2498,-5.2498,-5.2498,-5.2498,-5.2534,-5.2516,-5.2498,-5.2643,-5.2589,-5.2625,-5.3186,-5.3711,-5.3802,-5.4472,-5.4943,-5.5051,-5.5051,-5.5051,-5.5033,-5.5051,-5.507,-5.5245,-5.5221,-5.5141,-5.4716,-5.4437,-5.4127,-5.3796,-5.3328,-5.314,-5.3164,-5.3206,-5.3206,-5.3206,-5.3206,-5.3206,-5.3206,-5.3188,-5.3151,-5.317,-5.2894,-5.2876,-5.2729,-5.2582,-5.2179,-5.2417,-5.2821,-5.2435,-5.9904,-5.9904,-5.9904,-5.9904,-5.9904,-5.9904,-5.9904,-5.9904,-5.9904,-5.9904,-5.9904,-5.9904,-5.9904,-5.9904,-5.9904,-5.9904,-5.9904,-5.9904,-5.9904,-5.9853,-5.9681,-5.9594,-5.9505,-5.9307,-5.914,-5.8891,-5.8503,-5.8201,-5.7905,-5.7737,-5.7468,-5.7239,-5.7188,-5.7188,-5.7188,-5.7188,-5.7188,-5.7188,-5.7188,-5.7188,-5.7188,-5.7188,-5.7188,-5.7116,-5.6699,-5.6391,-5.5903,-5.4834,-5.3838,-5.3132,-5.2697,-5.2498,-5.2498,-5.2498,-5.2498,-5.2498,-5.2498,-5.2498,-5.2498,-5.2498,-5.2498,-5.2498,-5.2498,-5.2498,-5.2498,-5.2498,-5.2498,-5.2498,-5.2498,-5.2498,-5.2552,-5.2788,-5.315,-5.3512,-5.3512,-5.3222,-5.2643,-5.353,-5.411,-5.4454,-5.5124,-5.5866,-5.5866,-5.5848,-5.5866,-5.5921,-5.6029,-5.6011,-5.5993,-5.5861,-5.5638,-5.525,-5.4735,-5.4373,-5.3872,-5.3332,-5.3054,-5.3121,-5.3206,-5.3206,-5.3206,-5.3206,-5.3206,-5.3206,-5.3206,-5.3206,-5.3206,-5.3206,-5.3133,-5.3059,-5.3188,-5.3206,-5.3206,-5.3206,-5.2858,-5.9904,-5.9904,-5.9904,-5.9904,-5.9904,-5.9904,-5.9904,-5.9904,-5.9904,-5.9904,-5.9904,-5.9904,-5.9904,-5.9904,-5.9904,-5.9904,-5.9904,-5.9904,-5.9853,-5.9681,-5.938,-5.9084,-5.8969,-5.893,-5.8772,-5.8484,-5.8041,-5.7859,-5.7671,-5.737,-5.7239,-5.7188,-5.7188,-5.7188,-5.7188,-5.7188,-5.7188,-5.7188,-5.7188,-5.7188,-5.7188,-5.7188,-5.7188,-5.717,-5.7134,-5.679,-5.6192,-5.5414,-5.4689,-5.4001,-5.3186,-5.2878,-5.277,-5.2643,-5.2552,-5.2516,-5.2498,-5.2498,-5.2498,-5.2498,-5.2498,-5.2498,-5.2498,-5.257,-5.2643,-5.2625,-5.2625,-5.3041,-5.2697,-5.2806,-5.3041,-5.3476,-5.4001,-5.449,-5.4744,-5.4146,-5.3422,-5.4019,-5.4925,-5.507,-5.6283,-5.6899,-5.7188,-5.7188,-5.7116,-5.6573,-5.6681,-5.6645,-5.6645,-5.664,-5.6278,-5.5825,-5.5239,-5.4644,-5.3991,-5.3316,-5.3113,-5.2999,-5.3164,-5.3206,-5.3206,-5.3206,-5.3206,-5.3206,-5.3206,-5.3206,-5.3206,-5.3206,-5.3206,-5.3206,-5.3206,-5.3206,-5.3206,-5.3206,-5.3004,-5.9904,-5.9904,-5.9904,-5.9904,-5.9904,-5.9904,-5.9904,-5.9904,-5.9904,-5.9904,-5.9904,-5.9904,-5.9904,-5.9904,-5.9904,-5.9904,-5.9853,-5.982,-5.9734,-5.9307,-5.8949,-5.8526,-5.827,-5.8227,-5.8157,-5.7951,-5.7594,-5.737,-5.732,-5.727,-5.7188,-5.7188,-5.7188,-5.7188,-5.7188,-5.7188,-5.7188,-5.7188,-5.7188,-5.7188,-5.7188,-5.7188,-5.7188,-5.7188,-5.7188,-5.7116,-5.6844,-5.6174,-5.5703,-5.5377,-5.4798,-5.4128,-5.353,-5.3367,-5.3132,-5.2715,-5.2552,-5.2534,-5.2534,-5.2625,-5.2534,-5.2661,-5.2733,-5.277,-5.3349,-5.2896,-5.3241,-5.3874,-5.3856,-5.3711,-5.4218,-5.4508,-5.4798,-5.5015,-5.507,-5.4888,-5.4526,-5.4689,-5.516,-5.5649,-5.6066,-5.65,-5.7098,-5.7188,-5.7188,-5.7188,-5.7188,-5.7188,-5.7134,-5.708,-5.6536,-5.5866,-5.5154,-5.4422,-5.3953,-5.3299,-5.3032,-5.2955,-5.3103,-5.3206,-5.3206,-5.3206,-5.3206,-5.3206,-5.3206,-5.3206,-5.3206,-5.3206,-5.3206,-5.3206,-5.3206,-5.3206,-5.3206,-5.3206,-5.3151,-5.9904,-5.9904,-5.9904,-5.9904,-5.9904,-5.9904,-5.9904,-5.9904,-5.9904,-5.9904,-5.9904,-5.9904,-5.9904,-5.9904,-5.9885,-5.9801,-5.9559,-5.9344,-5.9026,-5.865,-5.8332,-5.8041,-5.7624,-5.7546,-5.7546,-5.7516,-5.7338,-5.7188,-5.7188,-5.7188,-5.7188,-5.7188,-5.7188,-5.7188,-5.7188,-5.7188,-5.7188,-5.7188,-5.7188,-5.7188,-5.7188,-5.7188,-5.7188,-5.7188,-5.7188,-5.7188,-5.7098,-5.6808,-5.6591,-5.6446,-5.6138,-5.5233,-5.3983,-5.3711,-5.3458,-5.3168,-5.3059,-5.3295,-5.3494,-5.3621,-5.3675,-5.3603,-5.3603,-5.3856,-5.411,-5.382,-5.4001,-5.4581,-5.4599,-5.4562,-5.5287,-5.5414,-5.5522,-5.5921,-5.5975,-5.5957,-5.5903,-5.5667,-5.5522,-5.5993,-5.6355,-5.6736,-5.7043,-5.7116,-5.717,-5.717,-5.717,-5.7134,-5.6518,-5.641,-5.6066,-5.545,-5.4744,-5.4157,-5.3751,-5.3281,-5.287,-5.2893,-5.3042,-5.3121,-5.3182,-5.3206,-5.3206,-5.3206,-5.3206,-5.3206,-5.3206,-5.3206,-5.3206,-5.3206,-5.3206,-5.3206,-5.3206,-5.3206,-5.3151,-5.9904,-5.9904,-5.9904,-5.9904,-5.9904,-5.9904,-5.9904,-5.9904,-5.9904,-5.9904,-5.9885,-5.9834,-5.9715,-5.9767,-5.9647,-5.9434,-5.9103,-5.8691,-5.8314,-5.8068,-5.7859,-5.7594,-5.732,-5.7289,-5.7289,-5.7188,-5.7188,-5.7188,-5.7188,-5.7188,-5.7188,-5.7188,-5.7188,-5.7188,-5.7188,-5.7188,-5.7188,-5.7188,-5.7188,-5.7188,-5.7188,-5.7188,-5.7188,-5.7188,-5.7188,-5.7188,-5.7188,-5.7116,-5.7134,-5.7188,-5.7188,-5.6047,-5.4707,-5.4055,-5.3929,-5.3929,-5.3874,-5.411,-5.449,-5.4707,-5.4744,-5.4907,-5.4852,-5.4943,-5.4997,-5.4888,-5.4997,-5.5233,-5.5395,-5.5577,-5.6084,-5.6174,-5.65,-5.6899,-5.7134,-5.7188,-5.708,-5.6573,-5.6301,-5.6265,-5.6247,-5.6301,-5.6772,-5.7025,-5.7098,-5.7152,-5.7152,-5.6953,-5.6337,-5.5848,-5.5558,-5.5015,-5.4309,-5.3693,-5.3269,-5.3208,-5.2816,-5.285,-5.2955,-5.306,-5.3121,-5.306,-5.306,-5.3164,-5.3182,-5.3164,-5.3164,-5.3164,-5.3164,-5.3164,-5.3206,-5.3206,-5.3206,-5.3206,-5.3151,-5.9904,-5.9904,-5.9904,-5.9904,-5.9904,-5.9904,-5.9904,-5.9904,-5.9904,-5.9904,-5.9834,-5.9505,-5.9344,-5.9271,-5.8949,-5.8791,-5.8628,-5.8245,-5.7951,-5.7784,-5.7546,-5.7289,-5.7239,-5.7188,-5.7188,-5.7188,-5.7188,-5.7188,-5.7188,-5.7188,-5.7188,-5.7188,-5.7188,-5.7188,-5.7188,-5.7188,-5.7188,-5.7188,-5.7188,-5.7188,-5.7188,-5.7188,-5.7188,-5.7188,-5.7188,-5.7188,-5.7188,-5.7188,-5.7188,-5.7188,-5.7188,-5.6609,-5.5812,-5.554,-5.5251,-5.4816,-5.4689,-5.4852,-5.5106,-5.5033,-5.4943,-5.4907,-5.5051,-5.5341,-5.5522,-5.5414,-5.5667,-5.6319,-5.6627,-5.6808,-5.6971,-5.688,-5.6971,-5.717,-5.7188,-5.7188,-5.7152,-5.7025,-5.688,-5.6826,-5.6283,-5.5903,-5.6573,-5.6989,-5.6989,-5.7098,-5.717,-5.6808,-5.6192,-5.5703,-5.5323,-5.4635,-5.3856,-5.3295,-5.2752,-5.2845,-5.2761,-5.2806,-5.2893,-5.2937,-5.2955,-5.2893,-5.2912,-5.3017,-5.3121,-5.306,-5.306,-5.306,-5.3103,-5.3164,-5.3164,-5.3206,-5.3206,-5.3206,-5.3206,-5.9904,-5.9904,-5.9904,-5.9904,-5.9904,-5.9904,-5.9904,-5.9904,-5.9904,-5.9904,-5.9767,-5.9434,-5.9215,-5.9084,-5.8772,-5.8503,-5.8157,-5.7784,-5.7565,-5.7468,-5.727,-5.7188,-5.7188,-5.7188,-5.7188,-5.7188,-5.7188,-5.7188,-5.7188,-5.7188,-5.7188,-5.7188,-5.7188,-5.7188,-5.7188,-5.7188,-5.7188,-5.7188,-5.7188,-5.7188,-5.7188,-5.7188,-5.7188,-5.7188,-5.7188,-5.7188,-5.7188,-5.7188,-5.7188,-5.7188,-5.7188,-5.6971,-5.6736,-5.6518,-5.6247,-5.5631,-5.5468,-5.5685,-5.5975,-5.6102,-5.6138,-5.612,-5.6066,-5.6228,-5.6428,-5.641,-5.641,-5.6899,-5.7188,-5.7188,-5.717,-5.7188,-5.7188,-5.7188,-5.7188,-5.7188,-5.7188,-5.7188,-5.7188,-5.7188,-5.6844,-5.6627,-5.6826,-5.7062,-5.6953,-5.7007,-5.7152,-5.6699,-5.6084,-5.5649,-5.5233,-5.4273,-5.3512,-5.3023,-5.2607,-5.2672,-5.2717,-5.2761,-5.2761,-5.285,-5.285,-5.2806,-5.2806,-5.2912,-5.2955,-5.2912,-5.2955,-5.2955,-5.3017,-5.3103,-5.3164,-5.3164,-5.3206,-5.3206,-5.3206,-5.9904,-5.9904,-5.9904,-5.9904,-5.9904,-5.9904,-5.9834,-5.9767,-5.9767,-5.97,-5.9559,-5.9122,-5.8891,-5.8812,-5.8484,-5.8068,-5.7719,-5.732,-5.7239,-5.7239,-5.7188,-5.7188,-5.7188,-5.7188,-5.7188,-5.7188,-5.7188,-5.7188,-5.7188,-5.7188,-5.7188,-5.7188,-5.7188,-5.7188,-5.7188,-5.7188,-5.7188,-5.7188,-5.7188,-5.7188,-5.7188,-5.7188,-5.7188,-5.7188,-5.7188,-5.7188,-5.7188,-5.7188,-5.7188,-5.7188,-5.7188,-5.717,-5.7188,-5.7188,-5.688,-5.6373,-5.6247,-5.6627,-5.6917,-5.7098,-5.6953,-5.6917,-5.7116,-5.7152,-5.7134,-5.7007,-5.7098,-5.7188,-5.7188,-5.7188,-5.7188,-5.7188,-5.7188,-5.7188,-5.7188,-5.7188,-5.7188,-5.7188,-5.7188,-5.7188,-5.7188,-5.7188,-5.717,-5.6808,-5.6627,-5.7025,-5.7188,-5.6736,-5.6156,-5.574,-5.5142,-5.4019,-5.3222,-5.2788,-5.2516,-5.2562,-5.2627,-5.2654,-5.2698,-5.2698,-5.2717,-5.2717,-5.2779,-5.2779,-5.2753,-5.2753,-5.2779,-5.2868,-5.2955,-5.306,-5.3103,-5.3146,-5.3206,-5.3206,-5.3206,-5.9904,-5.9904,-5.9904,-5.9904,-5.9885,-5.9853,-5.9647,-5.9307,-5.9289,-5.9065,-5.8831,-5.8314,-5.8113,-5.7996,-5.7642,-5.737,-5.7289,-5.7239,-5.7188,-5.7188,-5.7188,-5.7188,-5.7188,-5.7188,-5.7188,-5.7188,-5.7188,-5.7188,-5.7188,-5.7188,-5.7188,-5.7188,-5.7188,-5.7188,-5.7188,-5.7188,-5.7188,-5.7188,-5.7188,-5.7188,-5.7188,-5.7188,-5.7188,-5.7188,-5.7188,-5.7188,-5.7188,-5.7188,-5.7188,-5.7188,-5.7188,-5.7188,-5.7188,-5.7188,-5.717,-5.708,-5.7062,-5.7098,-5.717,-5.7188,-5.7188,-5.7188,-5.7188,-5.7188,-5.7188,-5.7188,-5.7188,-5.7188,-5.7188,-5.7188,-5.7188,-5.7188,-5.7188,-5.7188,-5.7188,-5.7188,-5.7188,-5.7188,-5.7188,-5.7188,-5.7188,-5.7188,-5.7188,-5.6699,-5.6337,-5.6826,-5.7098,-5.6681,-5.621,-5.5776,-5.507,-5.3947,-5.3096,-5.2625,-5.248,-5.2526,-5.2554,-5.2608,-5.2608,-5.2608,-5.2627,-5.2645,-5.2572,-5.2572,-5.2572,-5.2618,-5.2708,-5.2779,-5.2868,-5.2955,-5.306,-5.3103,-5.3206,-5.3206,-5.3206,-5.9434,-5.9885,-5.9609,-5.9505,-5.947,-5.9252,-5.9065,-5.891,-5.8852,-5.8791,-5.8545,-5.8113,-5.7784,-5.7498,-5.7239,-5.7188,-5.7188,-5.7188,-5.7188,-5.7188,-5.7188,-5.7188,-5.7188,-5.7188,-5.7188,-5.7188,-5.7188,-5.7188,-5.7188,-5.7188,-5.7188,-5.7188,-5.7188,-5.7188,-5.7188,-5.7188,-5.7188,-5.7188,-5.7188,-5.7188,-5.7188,-5.7188,-5.7188,-5.7188,-5.7188,-5.7188,-5.7188,-5.7188,-5.7188,-5.7188,-5.7188,-5.7188,-5.7188,-5.7188,-5.7188,-5.7188,-5.717,-5.717,-5.7188,-5.7188,-5.7188,-5.7188,-5.7188,-5.7188,-5.7188,-5.7188,-5.7188,-5.7188,-5.7188,-5.7188,-5.7188,-5.7188,-5.7188,-5.7188,-5.7188,-5.7188,-5.7188,-5.7188,-5.7188,-5.7188,-5.7188,-5.7188,-5.7188,-5.6971,-5.6681,-5.6917,-5.7188,-5.6989,-5.6391,-5.574,-5.4907,-5.3892,-5.3132,-5.2516,-5.248,-5.2526,-5.2526,-5.2554,-5.2554,-5.2554,-5.2526,-5.2526,-5.2498,-5.2498,-5.2544,-5.2572,-5.2663,-5.269,-5.2761,-5.285,-5.2955,-5.306,-5.3121,-5.3206,-5.3206,-5.9006,-5.9524,-5.9178,-5.9046,-5.9008,-5.871,-5.8545,-5.8418,-5.8418,-5.8375,-5.8201,-5.7859,-5.7516,-5.7289,-5.7188,-5.7188,-5.7188,-5.7188,-5.7188,-5.7188,-5.7188,-5.7188,-5.7188,-5.7188,-5.7188,-5.7188,-5.7188,-5.7188,-5.7188,-5.7188,-5.7188,-5.7188,-5.7188,-5.7188,-5.7188,-5.7188,-5.7188,-5.7188,-5.7188,-5.7188,-5.7188,-5.7188,-5.7188,-5.7188,-5.7188,-5.7188,-5.7188,-5.7188,-5.7188,-5.7188,-5.7188,-5.7188,-5.7188,-5.7188,-5.7188,-5.7188,-5.7188,-5.7188,-5.7188,-5.7188,-5.7188,-5.7188,-5.7188,-5.7188,-5.7188,-5.7188,-5.7188,-5.7188,-5.7188,-5.7188,-5.7188,-5.7188,-5.7188,-5.7188,-5.7188,-5.7188,-5.7188,-5.7188,-5.7188,-5.7188,-5.7188,-5.7188,-5.7188,-5.7188,-5.7152,-5.7152,-5.7188,-5.7188,-5.6573,-5.5794,-5.4979,-5.4037,-5.3114,-5.2552,-5.2498,-5.248,-5.2498,-5.2498,-5.2498,-5.2498,-5.2498,-5.2498,-5.2498,-5.2498,-5.2498,-5.2544,-5.2572,-5.2581,-5.2608,-5.2761,-5.2868,-5.2955,-5.306,-5.3121,-5.3164,-5.8628,-5.8669,-5.865,-5.8609,-5.8646,-5.8628,-5.8332,-5.7951,-5.7951,-5.7737,-5.7449,-5.7289,-5.7289,-5.7206,-5.7188,-5.7188,-5.7188,-5.7188,-5.7188,-5.7188,-5.7188,-5.7188,-5.7188,-5.7188,-5.7188,-5.7188,-5.7188,-5.7188,-5.7188,-5.7188,-5.7188,-5.7188,-5.7188,-5.7188,-5.7188,-5.7188,-5.7188,-5.7188,-5.7188,-5.7188,-5.7188,-5.7188,-5.7188,-5.7188,-5.7188,-5.7188,-5.7188,-5.7188,-5.7188,-5.7188,-5.7188,-5.7188,-5.7188,-5.7188,-5.7188,-5.7188,-5.7188,-5.7188,-5.7188,-5.7188,-5.7188,-5.7188,-5.7188,-5.7188,-5.7188,-5.7188,-5.7188,-5.7188,-5.7188,-5.7188,-5.7188,-5.7188,-5.7188,-5.7188,-5.7188,-5.7188,-5.7188,-5.7188,-5.7188,-5.7188,-5.7188,-5.7188,-5.7188,-5.7188,-5.7188,-5.7188,-5.7152,-5.7152,-5.6573,-5.583,-5.516,-5.4291,-5.3204,-5.2643,-5.2516,-5.2498,-5.2498,-5.2498,-5.2498,-5.2498,-5.2498,-5.2498,-5.2498,-5.2498,-5.2498,-5.2498,-5.2498,-5.2554,-5.2581,-5.2672,-5.2761,-5.2868,-5.2955,-5.2999,-5.3103,-5.7473,-5.7015,-5.7015,-5.7446,-5.8157,-5.784,-5.7642,-5.7516,-5.7468,-5.737,-5.7188,-5.7188,-5.7188,-5.7188,-5.7188,-5.7188,-5.7188,-5.7188,-5.7188,-5.7188,-5.7188,-5.7188,-5.7188,-5.7188,-5.7188,-5.7188,-5.7188,-5.7188,-5.7188,-5.7188,-5.7188,-5.7188,-5.7188,-5.7188,-5.7188,-5.7188,-5.7188,-5.7188,-5.7188,-5.7188,-5.7188,-5.7188,-5.7188,-5.7188,-5.7188,-5.7188,-5.7188,-5.7188,-5.7188,-5.7188,-5.7188,-5.7188,-5.7188,-5.7188,-5.7188,-5.7188,-5.7188,-5.7188,-5.7188,-5.7188,-5.7188,-5.7188,-5.7188,-5.7188,-5.7188,-5.7188,-5.7188,-5.7188,-5.7188,-5.7188,-5.7188,-5.7188,-5.7188,-5.7188,-5.7188,-5.7188,-5.7188,-5.7188,-5.7188,-5.7188,-5.7188,-5.7188,-5.7188,-5.7188,-5.7188,-5.7188,-5.7152,-5.6989,-5.6391,-5.574,-5.5033,-5.4273,-5.3186,-5.2661,-5.2516,-5.2498,-5.2498,-5.2498,-5.2498,-5.2498,-5.2498,-5.2498,-5.2498,-5.2498,-5.2498,-5.2498,-5.248,-5.2526,-5.2554,-5.2599,-5.2672,-5.2761,-5.285,-5.2955,-5.2955,-5.6319,-5.5975,-5.5758,-5.617,-5.693,-5.663,-5.6645,-5.6826,-5.6808,-5.7025,-5.7188,-5.7188,-5.7188,-5.7188,-5.7188,-5.7188,-5.7188,-5.7188,-5.7188,-5.7188,-5.7188,-5.7188,-5.7188,-5.7188,-5.7188,-5.7188,-5.7188,-5.7188,-5.7188,-5.7188,-5.7188,-5.7188,-5.7188,-5.7188,-5.7188,-5.7188,-5.7188,-5.7188,-5.7188,-5.7188,-5.7188,-5.7188,-5.7188,-5.7188,-5.7188,-5.7188,-5.7188,-5.7188,-5.7188,-5.7188,-5.7188,-5.7188,-5.7188,-5.7188,-5.7188,-5.7188,-5.7188,-5.7188,-5.7188,-5.7188,-5.7188,-5.7188,-5.7188,-5.7188,-5.7188,-5.7188,-5.7188,-5.7188,-5.7188,-5.7188,-5.7188,-5.7188,-5.7188,-5.7188,-5.7188,-5.7188,-5.7188,-5.7188,-5.7188,-5.7188,-5.7188,-5.7188,-5.7188,-5.7188,-5.7188,-5.7188,-5.717,-5.6862,-5.6192,-5.5486,-5.4725,-5.3947,-5.3078,-5.2715,-5.2498,-5.2498,-5.2498,-5.2498,-5.2498,-5.2498,-5.2498,-5.2498,-5.2498,-5.2498,-5.2498,-5.2498,-5.248,-5.2526,-5.248,-5.248,-5.2599,-5.2672,-5.2761,-5.285,-5.285,-5.5377,-5.5866,-5.5214,-5.4943,-5.5009,-5.4979,-5.5414,-5.5993,-5.6047,-5.6428,-5.7007,-5.708,-5.7152,-5.717,-5.7188,-5.7188,-5.7188,-5.7188,-5.7188,-5.7188,-5.7188,-5.7188,-5.7188,-5.7188,-5.7188,-5.7188,-5.7188,-5.7188,-5.7188,-5.7188,-5.7188,-5.7188,-5.7188,-5.7188,-5.7188,-5.7188,-5.7188,-5.7188,-5.7188,-5.7188,-5.7188,-5.7188,-5.7188,-5.7188,-5.7188,-5.7188,-5.7188,-5.7188,-5.7188,-5.7188,-5.7188,-5.7188,-5.7188,-5.7188,-5.7188,-5.7188,-5.7188,-5.7188,-5.7188,-5.7188,-5.7188,-5.7188,-5.7188,-5.7188,-5.7188,-5.7188,-5.7188,-5.7188,-5.7188,-5.7188,-5.7188,-5.7188,-5.7188,-5.7188,-5.7188,-5.7188,-5.7188,-5.7188,-5.7188,-5.7188,-5.7188,-5.7188,-5.7188,-5.7188,-5.7188,-5.7188,-5.7188,-5.6736,-5.5939,-5.5124,-5.4291,-5.3603,-5.2824,-5.2697,-5.2498,-5.2498,-5.2498,-5.2498,-5.2498,-5.2498,-5.2498,-5.2498,-5.2498,-5.2498,-5.2498,-5.2498,-5.2498,-5.2498,-5.2498,-5.248,-5.2554,-5.2627,-5.2717,-5.2761,-5.2735,-5.4744,-5.4454,-5.42,-5.3802,-5.3512,-5.4472,-5.507,-5.5251,-5.5323,-5.5703,-5.6283,-5.641,-5.6754,-5.7025,-5.7188,-5.7188,-5.7188,-5.7188,-5.7188,-5.7188,-5.7188,-5.7188,-5.7188,-5.7188,-5.7188,-5.7188,-5.7188,-5.7188,-5.7188,-5.7188,-5.7188,-5.7188,-5.7188,-5.7188,-5.7188,-5.7188,-5.7188,-5.7188,-5.7188,-5.7188,-5.7188,-5.7188,-5.7188,-5.7188,-5.7188,-5.7188,-5.7188,-5.7188,-5.7188,-5.7188,-5.7188,-5.7188,-5.7188,-5.7188,-5.7188,-5.7188,-5.7188,-5.7188,-5.7188,-5.7188,-5.7188,-5.7188,-5.7188,-5.7188,-5.7188,-5.7188,-5.7188,-5.7188,-5.7188,-5.7188,-5.7188,-5.7188,-5.7188,-5.7188,-5.7188,-5.7188,-5.7188,-5.7188,-5.7188,-5.7188,-5.7188,-5.7188,-5.7188,-5.7134,-5.7134,-5.679,-5.6681,-5.6156,-5.5395,-5.4562,-5.3729,-5.315,-5.2607,-5.2552,-5.2498,-5.2498,-5.2498,-5.2498,-5.2498,-5.2498,-5.2498,-5.2498,-5.2498,-5.2498,-5.2498,-5.2498,-5.2498,-5.2498,-5.2498,-5.2526,-5.2554,-5.2554,-5.2599,-5.2618,-5.2572,-5.3929,-5.3675,-5.3385,-5.2987,-5.2697,-5.3639,-5.4218,-5.4508,-5.478,-5.5196,-5.5595,-5.5866,-5.6247,-5.6736,-5.7062,-5.7188,-5.7188,-5.7188,-5.7188,-5.7188,-5.7188,-5.7188,-5.7188,-5.7188,-5.7188,-5.7188,-5.7188,-5.7188,-5.7188,-5.7188,-5.7188,-5.7188,-5.7188,-5.7188,-5.7188,-5.7188,-5.7188,-5.7188,-5.7188,-5.7188,-5.7188,-5.7188,-5.7188,-5.7188,-5.7188,-5.7188,-5.7188,-5.7188,-5.7188,-5.7188,-5.7188,-5.7188,-5.7188,-5.7188,-5.7188,-5.7188,-5.7188,-5.7188,-5.7188,-5.7188,-5.7188,-5.7188,-5.7188,-5.7188,-5.7188,-5.7188,-5.7188,-5.7188,-5.7188,-5.7188,-5.7188,-5.7188,-5.7188,-5.7188,-5.7188,-5.7188,-5.7188,-5.7188,-5.7188,-5.7188,-5.7188,-5.7188,-5.717,-5.7116,-5.7062,-5.6591,-5.6102,-5.5486,-5.4888,-5.411,-5.3385,-5.286,-5.2516,-5.2498,-5.2498,-5.2498,-5.2498,-5.2498,-5.2498,-5.2498,-5.2498,-5.2498,-5.2498,-5.2498,-5.2498,-5.2498,-5.2498,-5.2498,-5.2498,-5.2498,-5.248,-5.248,-5.2498,-5.2498,-5.2498,-5.2969,-5.3494,-5.2824,-5.2516,-5.2516,-5.2661,-5.3023,-5.3693,-5.4454,-5.478,-5.4888,-5.5504,-5.5884,-5.6156,-5.679,-5.7116,-5.7188,-5.7188,-5.7188,-5.7188,-5.7188,-5.7188,-5.7188,-5.7188,-5.7188,-5.7188,-5.7188,-5.7188,-5.7188,-5.7188,-5.7188,-5.7188,-5.7188,-5.7188,-5.7188,-5.7188,-5.7188,-5.7188,-5.7188,-5.7188,-5.7188,-5.7188,-5.7188,-5.7188,-5.7188,-5.7188,-5.7188,-5.7188,-5.7188,-5.7188,-5.7188,-5.7188,-5.7188,-5.7188,-5.7188,-5.7188,-5.7188,-5.7188,-5.7188,-5.7188,-5.7188,-5.7188,-5.7188,-5.7188,-5.7188,-5.7188,-5.7188,-5.7188,-5.7188,-5.7188,-5.7188,-5.7188,-5.7188,-5.7188,-5.7188,-5.7188,-5.7188,-5.7188,-5.7188,-5.7188,-5.7188,-5.7188,-5.7152,-5.7098,-5.6699,-5.6192,-5.5631,-5.4979,-5.4381,-5.3856,-5.3186,-5.2752,-5.2498,-5.2498,-5.2498,-5.2498,-5.2498,-5.2498,-5.2498,-5.2498,-5.2498,-5.2498,-5.2498,-5.2498,-5.2498,-5.2498,-5.2498,-5.2498,-5.2498,-5.2498,-5.2498,-5.2498,-5.2498,-5.2498,-5.2498,-5.2625,-5.2806,-5.2589,-5.2498,-5.2498,-5.2498,-5.2643,-5.2878,-5.3114,-5.3458,-5.4074,-5.4255,-5.5015,-5.5993,-5.6247,-5.6699,-5.7025,-5.7188,-5.7188,-5.7188,-5.7188,-5.7188,-5.7188,-5.7188,-5.7188,-5.7188,-5.7188,-5.7188,-5.7188,-5.7188,-5.7188,-5.7188,-5.7188,-5.7188,-5.7188,-5.7188,-5.7188,-5.7188,-5.7188,-5.7188,-5.7188,-5.7188,-5.7188,-5.7188,-5.7188,-5.7188,-5.7188,-5.7188,-5.7188,-5.7188,-5.7188,-5.7188,-5.7188,-5.7188,-5.7188,-5.7188,-5.7188,-5.7188,-5.7188,-5.7188,-5.7188,-5.7188,-5.7188,-5.7188,-5.7188,-5.7188,-5.7188,-5.7188,-5.7188,-5.7188,-5.7188,-5.7188,-5.7188,-5.7188,-5.7188,-5.7188,-5.7188,-5.7188,-5.7188,-5.7188,-5.7188,-5.708,-5.7043,-5.6645,-5.6228,-5.5721,-5.5142,-5.4472,-5.3911,-5.3367,-5.3041,-5.2607,-5.2498,-5.2498,-5.2498,-5.2498,-5.2498,-5.2498,-5.2498,-5.2498,-5.2498,-5.2498,-5.2498,-5.2498,-5.2498,-5.2498,-5.2498,-5.2498,-5.2498,-5.2498,-5.2498,-5.2498,-5.2498,-5.2498,-5.2498,-5.2498,-5.2498,-5.2498,-5.2498,-5.2498,-5.2498,-5.2498,-5.2498,-5.2498,-5.2806,-5.3222,-5.3603,-5.4399,-5.545,-5.5903,-5.6446,-5.7152,-5.7188,-5.7188,-5.7188,-5.7188,-5.7188,-5.7188,-5.7188,-5.7188,-5.7188,-5.7188,-5.7188,-5.7188,-5.7188,-5.7188,-5.7188,-5.7188,-5.7188,-5.7188,-5.7188,-5.7188,-5.7188,-5.7188,-5.7188,-5.7188,-5.7188,-5.7188,-5.7188,-5.7188,-5.7188,-5.7188,-5.7188,-5.7188,-5.7188,-5.7188,-5.7188,-5.7188,-5.7188,-5.7188,-5.7188,-5.7188,-5.7188,-5.7188,-5.7188,-5.7188,-5.7188,-5.7188,-5.7188,-5.7188,-5.7188,-5.7188,-5.7188,-5.7188,-5.7188,-5.7188,-5.7188,-5.7188,-5.7188,-5.7188,-5.7188,-5.7188,-5.7188,-5.7188,-5.7188,-5.7098,-5.6953,-5.6681,-5.6228,-5.5631,-5.4907,-5.4345,-5.3856,-5.3349,-5.2933,-5.2752,-5.2534,-5.2498,-5.2498,-5.2498,-5.2498,-5.2498,-5.2498,-5.2498,-5.2498,-5.2498,-5.2498,-5.2498,-5.2498,-5.2498,-5.2498,-5.2498,-5.2498,-5.2498,-5.2498,-5.2498,-5.2498,-5.2498,-5.2498,-5.2498,-5.2498,-5.2498,-5.2498,-5.2498,-5.2498,-5.2498,-5.2498,-5.2498,-5.2498,-5.2516,-5.2679,-5.3259,-5.3983,-5.4816,-5.5432,-5.6192,-5.6808,-5.7062,-5.7188,-5.7188,-5.7188,-5.7188,-5.7188,-5.7188,-5.7188,-5.7188,-5.7188,-5.7188,-5.7188,-5.7188,-5.7188,-5.7188,-5.7188,-5.7188,-5.7188,-5.7188,-5.7188,-5.7188,-5.7188,-5.7188,-5.7188,-5.7188,-5.7188,-5.7188,-5.7188,-5.7188,-5.7188,-5.7188,-5.7188,-5.7188,-5.7188,-5.7188,-5.7188,-5.7188,-5.7188,-5.7188,-5.7188,-5.7188,-5.7188,-5.7188,-5.7188,-5.7188,-5.7188,-5.7188,-5.7188,-5.7188,-5.7188,-5.7188,-5.7188,-5.7188,-5.7188,-5.7188,-5.7188,-5.7188,-5.7188,-5.7188,-5.7188,-5.7188,-5.7188,-5.7116,-5.6844,-5.6663,-5.6265,-5.5794,-5.4961,-5.4128,-5.3548,-5.315,-5.2951,-5.257,-5.2516,-5.2498,-5.2498,-5.2498,-5.2498,-5.2498,-5.2498,-5.2498,-5.2498,-5.2498,-5.2498,-5.2498,-5.2498,-5.2498,-5.2498,-5.2498,-5.2498,-5.2498,-5.2498,-5.2498,-5.2498,-5.2498,-5.2498,-5.2498,-5.2498,-5.2498,-5.2498,-5.2498,-5.2498,-5.2498,-5.2498,-5.2498,-5.2498,-5.2498,-5.2498,-5.2534,-5.277,-5.3277,-5.4128,-5.4834,-5.5577,-5.6283,-5.6844,-5.7134,-5.7188,-5.7188,-5.7188,-5.7188,-5.7188,-5.7188,-5.7188,-5.7188,-5.7188,-5.7188,-5.7188,-5.7188,-5.7188,-5.7188,-5.7188,-5.7188,-5.7188,-5.7188,-5.7188,-5.7188,-5.7188,-5.7188,-5.7188,-5.7188,-5.7188,-5.7188,-5.7188,-5.7188,-5.7188,-5.7188,-5.7188,-5.7188,-5.7188,-5.7188,-5.7188,-5.7188,-5.7188,-5.7188,-5.7188,-5.7188,-5.7188,-5.7188,-5.7188,-5.7188,-5.7188,-5.7188,-5.7188,-5.7188,-5.7188,-5.7188,-5.7188,-5.7188,-5.7188,-5.7188,-5.7188,-5.7188,-5.7188,-5.7188,-5.7188,-5.7188,-5.6953,-5.6645,-5.6228,-5.583,-5.5142,-5.4291,-5.3621,-5.3041,-5.2679,-5.2697,-5.2516,-5.2516,-5.2498,-5.2498,-5.2498,-5.2498,-5.2498,-5.2498,-5.2498,-5.2498,-5.2498,-5.2498,-5.2498,-5.2498,-5.2498,-5.2498,-5.2498,-5.2498,-5.2498,-5.2498,-5.2498,-5.2498,-5.2498,-5.2498,-5.2498,-5.2498,-5.2498,-5.2498,-5.2498,-5.2498,-5.2498,-5.2498,-5.2498,-5.2498,-5.2498,-5.2498,-5.2498,-5.2552,-5.2933,-5.3621,-5.42,-5.5033,-5.583,-5.641,-5.6844,-5.708,-5.717,-5.7188,-5.7188,-5.7188,-5.7188,-5.7188,-5.7188,-5.7188,-5.7188,-5.7188,-5.7188,-5.7188,-5.7188,-5.7188,-5.7188,-5.7188,-5.7188,-5.7188,-5.7188,-5.7188,-5.7188,-5.7188,-5.7188,-5.7188,-5.7188,-5.7188,-5.7188,-5.7188,-5.7188,-5.7188,-5.7188,-5.7188,-5.7188,-5.7188,-5.7188,-5.7188,-5.7188,-5.7188,-5.7188,-5.7188,-5.7188,-5.7188,-5.7188,-5.7188,-5.7188,-5.7188,-5.7188,-5.7188,-5.7188,-5.7188,-5.7188,-5.7188,-5.7188,-5.7188,-5.7188,-5.7188,-5.7188,-5.7188,-5.7188,-5.7116,-5.6609,-5.5903,-5.5395,-5.4617,-5.3802,-5.315,-5.257,-5.2516,-5.2498,-5.2498,-5.2498,-5.2498,-5.2498,-5.2498,-5.2498,-5.2498,-5.2498,-5.2498,-5.2498,-5.2498,-5.2498,-5.2498,-5.2498,-5.2498,-5.2498,-5.2498,-5.2498,-5.2498,-5.2498,-5.2498,-5.2498,-5.2498,-5.2498,-5.2498,-5.2498,-5.2498,-5.2498,-5.2498,-5.2498,-5.2498,-5.2498,-5.2498,-5.2498,-5.2498,-5.2498,-5.2498,-5.2498,-5.2951,-5.3331,-5.3766,-5.4689,-5.545,-5.5975,-5.6482,-5.6844,-5.7134,-5.717,-5.7188,-5.7188,-5.7188,-5.7188,-5.7188,-5.7188,-5.7188,-5.7188,-5.7188,-5.7188,-5.7188,-5.7188,-5.7188,-5.7188,-5.7188,-5.7188,-5.7188,-5.7188,-5.7188,-5.7188,-5.7188,-5.7188,-5.7188,-5.7188,-5.7188,-5.7188,-5.7188,-5.7188,-5.7188,-5.7188,-5.7188,-5.7188,-5.7188,-5.7188,-5.7188,-5.7188,-5.7188,-5.7188,-5.7188,-5.7188,-5.7188,-5.7188,-5.7188,-5.7188,-5.7188,-5.7188,-5.7188,-5.7188,-5.7188,-5.7188,-5.7188,-5.7188,-5.7188,-5.7188,-5.7188,-5.717,-5.7152,-5.7116,-5.6337,-5.5577,-5.4798,-5.4037,-5.3385,-5.2715,-5.2498,-5.2498,-5.2498,-5.2498,-5.2498,-5.2498,-5.2498,-5.2498,-5.2498,-5.2498,-5.2498,-5.2498,-5.2498,-5.2498,-5.2498,-5.2498,-5.2498,-5.2498,-5.2498,-5.2498,-5.2498,-5.2498,-5.2498,-5.2498,-5.2498,-5.2498,-5.2498,-5.2498,-5.2498,-5.2498,-5.2498,-5.2498,-5.2498,-5.2498,-5.2498,-5.2498,-5.2498,-5.2498,-5.2498,-5.2498,-5.2498,-5.2643,-5.2788,-5.3476,-5.4128,-5.449,-5.5269,-5.5866,-5.6228,-5.679,-5.7062,-5.7188,-5.7188,-5.7188,-5.7188,-5.7188,-5.7188,-5.7188,-5.7188,-5.7188,-5.7188,-5.7188,-5.7188,-5.7188,-5.7188,-5.7188,-5.7188,-5.7188,-5.7188,-5.7188,-5.7188,-5.7188,-5.7188,-5.7188,-5.7188,-5.7188,-5.7188,-5.7188,-5.7188,-5.7188,-5.7188,-5.7188,-5.7188,-5.7188,-5.7188,-5.7188,-5.7188,-5.7188,-5.7188,-5.7188,-5.7188,-5.7188,-5.7188,-5.7188,-5.7188,-5.7188,-5.7188,-5.7188,-5.7188,-5.7188,-5.7188,-5.7188,-5.7188,-5.7188,-5.7188,-5.7188,-5.7098,-5.7007,-5.6464,-5.5703,-5.4925,-5.4146,-5.3494,-5.2933,-5.2498,-5.2498,-5.2498,-5.2498,-5.2498,-5.2498,-5.2498,-5.2498,-5.2498,-5.2498,-5.2498,-5.2498,-5.2498,-5.2498,-5.2498,-5.2498,-5.2498,-5.2498,-5.2498,-5.2498,-5.2498,-5.2498,-5.2498,-5.2498,-5.2498,-5.2498,-5.2498,-5.2498,-5.2498,-5.2498]}]]